[[{"header":{"parameterUnit":"m.s-1","parameterCategory":1,"la1":31.0,"la2":29.5877,"lo1":-88.7671,"lo2":-86.6584,"dy":0.0162,"dx":0.0185,"nx":115,"ny":88,"refTime":"2023-09-03T18:00:00:Z","depth":0,"parameterNumber":2,"parameterNumberName":"U-component_of_WINDS"},"data":[0.0,0.0,0.0,0.0,0.0,0.0,0.0,0.0,0.0,0.0,0.0,0.0,0.0,0.0,0.0,0.0,0.0,0.0,0.0,0.0,0.0,0.0,0.0,0.0,0.0,0.0,0.0,0.0,0.0,0.0,0.0,0.0,0.0,0.0,0.0,0.0,0.0,0.0,0.0,0.0,0.0,0.0,0.0,0.0,0.0,0.0,0.0,0.0,0.0,0.0,0.0,0.0,0.0,0.0,0.0,0.0,0.0,0.0,0.0,0.0,0.0,0.0,0.0,0.0,0.0,0.0,0.0,0.0,0.0,0.0,0.0,0.0,0.0,0.0,0.0,0.0,0.0,0.0,0.0,0.0,0.0,0.0,0.0,0.0,0.0,0.0,0.0,0.0,0.0,0.0,0.0,0.0,0.0,0.0,0.0,0.0,0.0,0.0,0.0,0.0,0.0,0.0,0.0,0.0,0.0,0.0,0.0,0.0,0.0,0.0,0.0,0.0,0.0,0.0,0.0,0.0,0.0,0.0,0.0,0.0,0.0,0.0,0.0,0.0,0.0,0.0,0.0,0.0,0.0,0.0,0.0,0.0,0.0,0.0,0.0,0.0,0.0,0.0,0.0,0.0,0.0,0.0,0.0,0.0,0.0,0.0,0.0,0.0,0.0,0.0,0.0,0.0,0.0,0.0,0.0,0.0,0.0,0.0,0.0,0.0,0.0,0.0,0.0,0.0,0.0,0.0,0.0,0.0,0.0,0.0,0.0,0.0,0.0,0.0,0.0,0.0,0.0,0.0,0.0,0.0,0.0,0.0,0.0,0.0,0.0,0.0,0.0,0.0,0.0,0.0,0.0,0.0,0.0,0.0,0.0,0.0,0.0,0.0,0.0,0.0,0.0,0.0,0.0,0.0,0.0,0.0,0.0,0.0,0.0,0.0,0.0,0.0,0.0,0.0,0.0,0.0,0.0,0.0,0.0,0.0,0.0,0.0,0.0,0.0,0.0,0.0,0.0,0.0,0.0,0.0,0.0,0.0,0.0,0.0,0.0,0.0,0.0,0.0,0.0,0.0,0.0,0.0,0.0,0.0,0.0,0.0,0.0,0.0,0.0,0.0,0.0,0.0,0.0,0.0,0.0,0.0,0.0,0.0,0.0,0.0,0.0,0.0,0.0,0.0,0.0,0.0,0.0,0.0,0.0,0.0,0.0,0.0,0.0,0.0,0.0,0.0,0.0,0.0,0.0,0.0,0.0,0.0,0.0,0.0,0.0,0.0,0.0,0.0,0.0,0.0,0.0,0.0,0.0,0.0,0.0,0.0,0.0,0.0,0.0,0.0,0.0,0.0,0.0,0.0,0.0,0.0,0.0,0.0,0.0,0.0,0.0,0.0,0.0,0.0,0.0,0.0,0.0,0.0,0.0,0.0,0.0,0.0,0.0,0.0,0.0,0.0,0.0,0.0,0.0,0.0,0.0,0.0,0.0,0.0,0.0,0.0,0.0,0.0,0.0,0.0,0.0,0.0,0.0,0.0,0.0,0.0,0.0,0.0,0.0,0.0,0.0,0.0,0.0,0.0,0.0,0.0,0.0,0.0,0.0,0.0,0.0,0.0,0.0,0.0,0.0,0.0,0.0,0.0,0.0,0.0,0.0,0.0,0.0,0.0,0.0,0.0,0.0,0.0,0.0,0.0,0.0,0.0,0.0,0.0,0.0,0.0,0.0,0.0,0.0,0.0,0.0,0.0,0.0,0.0,0.0,0.0,0.0,0.0,0.0,0.0,0.0,0.0,0.0,0.0,0.0,0.0,0.0,0.0,0.0,0.0,0.0,0.0,0.0,0.0,0.0,0.0,0.0,0.0,0.0,0.0,0.0,0.0,0.0,0.0,0.0,0.0,0.0,0.0,0.0,0.0,0.0,0.0,0.0,0.0,0.0,0.0,0.0,0.0,0.0,0.0,0.0,0.0,0.0,0.0,0.0,0.0,0.0,0.0,0.0,0.0,0.0,0.0,0.0,0.0,0.0,0.0,0.0,0.0,0.0,0.0,0.0,0.0,0.0,0.0,0.0,0.0,0.0,0.0,0.0,0.0,0.0,0.0,0.0,0.0,0.0,0.0,0.0,0.0,0.0,0.0,0.0,0.0,0.0,0.0,0.0,0.0,0.0,0.0,0.0,0.0,0.0,0.0,0.0,0.0,0.0,0.0,0.0,0.0,0.0,0.0,0.0,0.0,0.0,0.0,0.0,0.0,0.0,0.0,0.0,0.0,0.0,0.0,0.0,0.0,0.0,0.0,0.0,0.0,0.0,0.0,0.0,0.0,0.0,0.0,0.0,0.0,0.0,0.0,0.0,0.0,0.0,0.0,0.0,0.0,0.0,0.0,0.0,0.0,0.0,0.0,0.0,0.0,0.0,0.0,0.0,0.0,0.0,0.0,0.0,0.0,0.0,0.0,0.0,0.0,0.0,0.0,0.0,0.0,0.0,0.0,0.0,0.0,0.0,0.0,0.0,0.0,0.0,0.0,0.0,0.0,0.0,0.0,0.0,0.0,0.0,0.0,0.0,0.0,0.0,0.0,0.0,0.0,0.0,0.0,0.0,0.0,0.0,0.0,0.0,0.0,0.0,0.0,0.0,0.0,0.0,0.0,0.0,0.0,0.0,0.0,0.0,0.0,0.0,0.0,0.0,0.0,0.0,0.0,0.0,0.0,0.0,0.0,0.0,0.0,0.0,0.0,0.0,0.0,0.0,0.0,0.0,0.0,0.0,0.0,0.0,0.0,0.0,0.0,0.0,0.0,0.0,0.0,0.0,0.0,0.0,0.0,0.0,0.0,0.0,0.0,0.0,0.0,0.0,0.0,0.0,0.0,0.0,0.0,0.0,0.0,0.0,0.0,0.0,0.0,0.0,0.0,0.0,0.0,0.0,0.0,0.0,0.0,0.0,0.0,0.0,0.0,0.0,0.0,0.0,0.0,0.0,0.0,0.0,0.0,0.0,0.0,0.0,0.0,0.0,0.0,0.0,0.0,0.0,0.0,0.0,0.0,0.0,0.0,0.0,0.0,0.0,0.0,0.0,0.0,0.0,0.0,0.0,0.0,0.0,0.0,0.0,0.0,0.0,0.0,0.0,0.0,0.0,0.0,0.0,0.0,0.0,0.0,0.0,0.0,0.0,0.0,0.0,0.0,0.0,0.0,0.0,0.0,0.0,0.0,0.0,0.0,0.0,0.0,0.0,0.0,0.0,0.0,0.0,0.0,0.0,0.0,0.0,0.0,0.0,0.0,0.0,0.0,0.0,0.0,0.0,0.0,0.0,0.0,0.0,0.0,0.0,0.0,0.0,0.0,0.0,0.0,0.0,0.0,0.0,0.0,0.0,0.0,0.0,0.0,0.0,0.0,0.0,0.0,0.0,0.0,0.0,0.0,0.0,0.0,0.0,0.0,0.0,0.0,0.0,0.0,0.0,0.0,0.0,0.0,0.0,0.0,0.0,0.0,0.0,0.0,0.0,0.0,0.0,0.0,0.0,0.0,0.0,0.0,0.0,0.0,0.0,0.0,0.0,0.0,0.0,0.0,0.0,0.0,0.0,0.0,0.0,0.0,0.0,0.0,0.0,0.0,0.0,0.0,0.0,0.0,0.0,0.0,0.0,0.0,0.0,0.0,0.0,0.0,0.0,0.0,0.0,0.0,0.0,0.0,0.0,0.0,0.0,0.0,0.0,0.0,0.0,0.0,0.0,0.0,0.0,0.0,0.0,0.0,0.0,0.0,0.0,0.0,0.0,0.0,0.0,0.0,0.0,0.0,0.0,0.0,0.0,0.0,0.0,0.0,0.0,0.0,0.0,0.0,0.0,0.0,0.0,0.0,0.0,0.0,0.0,0.0,0.0,0.0,0.0,0.0,0.0,0.0,0.0,0.0,0.0,0.0,0.0,0.0,0.0,0.0,0.0,0.0,0.0,0.0,0.0,0.0,0.0,0.0,0.0,0.0,0.0,0.0,0.0,0.0,0.0,0.0,0.0,0.0,0.0,0.0,0.0,0.0,0.0,0.0,0.0,0.0,0.0,0.0,0.0,0.0,0.0,0.0,0.0,0.0,0.0,0.0,0.0,0.0,0.0,0.0,0.0,0.0,0.0,0.0,0.0,0.0,0.0,0.0,0.0,0.0,0.0,0.0,0.0,0.0,0.0,0.0,0.0,0.0,0.0,0.0,0.0,0.0,0.0,0.0,0.0,0.0,0.0,0.0,0.0,0.0,0.0,0.0,0.0,0.0,0.0,0.0,0.0982,0.0,0.0,0.0,0.0,0.0,0.0,0.0,0.0,0.0,0.0,0.0,0.0,0.0,0.0,0.0,0.0,0.0,0.0,0.0,0.0,0.0,0.0,0.0,0.0,0.0,0.0,0.0,0.0,0.0,0.0,0.0,0.0,0.0,0.0,0.0,0.0,0.0,0.0,0.0,0.0,0.0,0.0,0.0,0.0,0.0,0.0,0.0,0.0,0.0,0.0,0.0,0.0,0.0,0.0,0.0,0.0,0.0,0.0,0.0,0.0,0.0,0.0,0.0,0.0,0.0,0.0,0.0,0.0,0.0,0.0,0.0,0.0,0.0,0.0,0.0,0.0,0.0,0.0,0.0,0.0,0.0,0.0,0.0,0.0,0.0,0.0,0.0,0.0,0.0,0.0,0.0,0.0,0.0,0.0,0.0,0.0,0.0,0.0,0.0,0.0,0.0,0.0,0.0,0.0,0.0,0.0,0.0,0.0,0.0,0.0,0.1538,0.1468,0.1359,0.1251,0.1123,0.0,0.0,0.0,0.0,0.0,0.0,0.0,0.0,0.0,0.0,0.0,0.0,0.0,0.0,0.0,0.0,0.0,0.0,0.0,0.0,0.0,0.0,0.0,0.0,0.0,0.0,0.0,0.0,0.0,0.0,0.0,0.0,0.0,0.0,0.0,0.0,0.0,0.0,0.0,0.0,0.0,0.0,0.0,0.0,0.0,0.0,0.0,0.0,0.0,0.0,0.0,0.0,0.0,0.0,0.0,0.0,0.0,0.0,0.0,0.0,0.0,0.0,0.0,0.0,0.0,0.0,0.0,0.0,0.0,0.0,0.0,0.0,0.0,0.0,0.0,0.0,0.0,0.0,0.0,0.0,0.0,0.0,0.0,0.0,0.0,0.0,0.0,0.0,0.0,0.0,0.0,0.0,0.0,0.0,0.0,0.0,0.0,0.0,0.0,0.0,0.0,0.0,0.0,0.0,0.0,0.0,0.0,0.0,0.0,0.0,0.0,0.0,0.155,0.1428,0.1228,0.0,0.0,0.0,0.0,0.0,0.0,0.0,0.0,0.0,0.0,0.0,0.0,0.0,0.0,0.0,0.0,0.0,0.0,0.0,0.0,0.0,0.0,0.0,0.0,0.0,0.0,0.0,0.0,0.0,0.0,0.0,0.0,0.0,0.0,0.0,0.0,0.0,0.0,0.0,0.0,0.0,0.0,0.0,0.0,0.0,0.0,0.0,0.0,0.0,0.0,0.0,0.0,0.0,0.0,0.0,0.0,0.0,0.0,0.0,0.0,0.0,0.0,0.0,0.0,0.0,0.0,0.0,0.0,0.0,0.0,0.0,0.0,0.0,0.0,0.0,0.0,0.0,0.0,0.0,0.0,0.0,0.0,0.0,0.0,0.0,0.0,0.0,0.0,0.0,0.0,0.0,0.0,0.0,0.0,0.0,0.0,0.0,0.0,0.0,0.0,0.0,0.0,0.0,0.0,0.0,0.0,0.0,0.0,0.0,0.0,0.1886,0.1702,0.1614,0.0,0.1298,0.0,0.0,0.0,0.0,0.0,0.0,0.0,0.0,0.0,0.0,0.0,0.0,0.0,0.0,0.0,0.0,0.0,0.0,0.0,0.0,0.0,0.0,0.0,0.0,0.0,0.0,0.0,0.0,0.0,0.0,0.0,0.0,0.0,0.0,0.0,0.0,0.0,0.0,0.0,0.0,0.0,0.0,0.0,0.0,0.0,0.0,0.0,0.0,0.0,0.0,0.0,0.0,0.0,0.0,0.0,0.0,0.0,0.0,0.0,0.0,0.0,0.0,0.0,0.0,0.0,0.0,0.0,0.0,0.0,0.0,0.0,0.0,0.0,0.0,0.0,0.0,0.0,0.0,0.0,0.0,0.0,0.0,0.0,0.0,0.0,0.0,0.0,0.0,0.0,0.0,0.0,0.0,0.0,0.0,0.0,0.0,0.0,0.0,0.0,0.0,0.0,0.0,0.0,0.0,0.0,0.0,0.0,0.0,0.0,0.0,0.2012,0.1811,0.1641,0.1498,0.0,0.0,0.0,0.0,0.0,0.0,0.0,0.0,0.0,0.0,0.0,0.0,0.0,0.0,0.0,0.0,0.0,0.0,0.0,0.0,0.0,0.0,0.0,0.0,0.0,0.0,0.0,0.0,0.0,0.0,0.0,0.0,0.0,0.0,0.0,0.0,0.0,0.0,0.0,0.0,0.0,0.0,0.0,0.0,0.0,0.0,0.0,0.0,0.0,0.0,0.0,0.0,0.0,0.0,0.0,0.0,0.0,0.0,0.0,0.0,0.0,0.0,0.0,0.0,0.0,0.0,0.0,0.0,0.0,0.0,0.0,0.0,0.0,0.0,0.0,0.0,0.0,0.0,0.0,0.0,0.0,0.0,0.0,0.0,0.0,0.0,0.0,0.0,0.0,0.0,0.0,0.0,0.0,0.0,0.0,0.0,0.0,0.0,0.0,0.0,0.0,0.0,0.0,0.0,0.0,0.0,0.0,0.0,0.0,0.0,0.219,0.2076,0.184,0.163,0.1531,0.1531,0.0,0.0,0.0,0.0,0.0,0.0,0.0,0.0,0.0,0.0,0.0,0.0,0.0,0.0,0.0,0.0,0.0,0.0,0.0,0.0,0.0,0.0,0.0,0.0,0.0,0.0,0.0,0.0,0.0,0.0,0.0,0.0,0.0,0.0,0.0,0.0,0.0,0.0,0.0,0.0,0.0,0.0,0.0,0.0,0.0,0.0,0.0,0.0,0.0,0.0,0.0,0.0,0.0,0.0,0.0,0.0,0.0,0.0,0.0,0.0,0.0,0.0,0.0,0.0,0.0,0.0,0.0,0.0,0.0,0.0,0.0,0.0,0.0,0.0,0.0,0.0,0.0,0.0,0.0,0.0,0.0,0.0,0.0,0.0,0.0,0.0,0.0,0.0,0.0,0.0,0.0,0.0,0.0,0.0,0.0,0.0,0.0,0.0,0.0,0.0,0.0,0.0,0.0,0.0,0.0,0.0,0.0,0.0,0.2206,0.2133,0.1976,0.173,0.1642,0.1592,0.0,0.0,0.0,0.0,0.0,0.0,0.0,0.0,0.0,0.0,0.0,0.0,0.0,0.0,0.0,0.0,0.0,0.0,0.0,0.0,0.0,0.0,0.0,0.0,0.0,0.0,0.0,0.0,0.0,0.0,0.0,0.0,0.0,0.0,0.0,0.0,0.0,0.0,0.0,0.0,0.0,0.0,0.0,0.0,0.0,0.0,0.0,0.0,0.0,0.0,0.0,0.0,0.0,0.0,0.0,0.0,0.0,0.0,0.0,0.0,0.0,0.0,0.0,0.0,0.0,0.0,0.0,0.0,0.0,0.0,0.0,0.0,0.0,0.0,0.0,0.0,0.0,0.0,0.0,0.0,0.0,0.0,0.0,0.0,0.0,0.0,0.0,0.0,0.0,0.0,0.0,0.0,0.0,0.0,0.0,0.0,0.0,0.0,0.0,0.0,0.0,0.0,0.0,0.0,0.0,0.0,0.0,0.0,0.0,0.2139,0.2031,0.1958,0.1891,0.1819,0.1756,0.0,0.0,0.0,0.0,0.0,0.0,0.0,0.0,0.0,0.0,0.0,0.0,0.0,0.0,0.0,0.0,0.0,0.0,0.0,0.0,0.0,0.0,0.0,0.0,0.0,0.0,0.0,0.0,0.0,0.0,0.0,0.0,0.0,0.0,0.0,0.0,0.0,0.0,0.0,0.0,0.0,0.0,0.0,0.0,0.0,0.0,0.0,0.0,0.0,0.0,0.0,0.0,0.0,0.0,0.0,0.0,0.0,0.0,0.0,0.0,0.0,0.0,0.0,0.0,0.0,0.0,0.0,0.0,0.0,0.0,0.0,0.0,0.0,0.0,0.0,0.0,0.0,0.0,0.0,0.0,0.0,0.0,0.0,0.0,0.0,0.0,0.0,0.0,0.0,0.0,0.0,0.0,0.0,0.0,0.0,0.0,0.0,0.0,0.0,0.0,0.0,0.0,0.0,0.0,0.0,0.0,0.0,0.0,0.0,0.202,0.0,0.1838,0.1839,0.1843,0.1794,0.0,0.0,0.0,0.0,0.0,0.0,0.0,0.0,0.0,0.0,0.0,0.0,0.0,0.0,0.0,0.0,0.0,0.0,0.0,0.0,0.0,0.0,0.0,0.0,0.0,0.0,0.0,0.0,0.0,0.0,0.0,0.0,0.0,0.0,0.0,0.0,0.0,0.0,0.0,0.0,0.0,0.0,0.0,0.0,0.0,0.0,0.0,0.0,0.0,0.0,0.0,0.0,0.0,0.0,0.0,0.0,0.0,0.0,0.0,0.0,0.0,0.0,0.0,0.0,0.0,0.0,0.0,0.0,0.0,0.0,0.0,0.0,0.0,0.0,0.0,0.0,0.0,0.0,0.0,0.0,0.0,0.0,0.0,0.0,0.0,0.0,0.0,0.0,0.0,0.0,0.0,0.0,0.0,0.0,0.0,0.0,0.0,0.0,0.0,0.0,0.0,0.0,0.0,0.0,0.0,0.0,0.0,0.0,0.2132,0.1816,0.1742,0.165,0.1511,0.1655,0.1708,0.0,0.0,0.0,0.0,0.0,0.0,0.0,0.0,0.0,0.0,0.0,0.0,0.0,0.0,0.0,0.0,0.0,0.0,0.0,0.0,0.0,0.0,0.0,0.0,0.0,0.0,0.0,0.0,0.0,0.0,0.0,0.0,0.0,0.0,0.0,0.0,0.0,0.0,0.0,0.0,0.0,0.0,0.0,0.0,0.0,0.0,0.0,0.0,0.0,0.0,0.0,0.0,0.0,0.0,0.0,0.0,0.0,0.0,0.0,0.0,0.0,0.0,0.0,0.0,0.0,0.0,0.0,0.0,0.0,0.0,0.0,0.0,0.0,0.0,0.0,0.0,0.0,0.0,0.0,0.0,0.0,0.0,0.0,0.0,0.0,0.0,0.0,0.0,0.0,0.0,0.0,0.0,0.0,0.0,0.0,0.0,0.0,0.0,0.0,0.0,0.0,0.0,0.0,0.0,0.0,0.0,0.0,0.0,0.0,0.181,0.1747,0.1713,0.1719,0.1744,0.1762,0.0,0.0,0.0,0.0,0.0,0.0,0.0,0.0,0.0,0.0,0.0,0.0,0.0,0.0,0.0,0.0,0.0,0.0,0.0,0.0,0.0,0.0,0.0,0.0,0.0,0.0,0.0,0.0,0.0,0.0,0.0,0.0,0.0,0.0,0.0,0.0,0.0,0.0,0.0,0.0,0.0,0.0,0.0,0.0,0.0,0.0,0.0,0.0,0.0,0.0,0.0,0.0,0.0,0.0,0.0,0.0,0.0,0.0,0.0,0.0,0.0,0.0,0.0,0.0,0.0,0.0,0.0,0.0,0.0,0.0,0.0,0.0,0.0,0.0,0.0,0.0,0.0,0.0,0.0,0.0,0.0,0.0,0.0,0.0,0.0,0.0,0.0,0.0,0.0,0.0,0.0,0.0,0.0,0.0,0.0,0.0,0.0,0.0,0.0,0.0,0.0,0.0,0.0,0.0,0.0,0.0,0.0,0.0,0.0,0.1387,0.1432,0.1484,0.1523,0.1614,0.166,0.1723,0.0,0.0,0.0,0.0,0.0,0.0,0.0,0.0,0.0,0.0,0.0,0.0,0.0,0.0,0.0,0.0,0.0,0.0,0.0,0.0,0.0,0.0,0.0,0.0,0.0,0.0,0.0,0.0,0.0,0.0,0.0,0.0,0.0,0.0,0.0,0.0,0.0,0.0,0.0,0.0,0.0,0.0,0.0,0.0,0.0,0.0,0.0,0.0,0.0,0.0,0.0,0.0,0.0,0.0,0.0,0.0,0.0,0.0,0.0,0.0,0.0,0.0,0.0,0.0,0.0,0.0,0.0,0.0,0.0,0.0,0.0,0.0,0.0,0.0,0.0,0.0,0.0,0.0,0.0,0.0,0.0,0.0,0.0,0.0,0.0,0.0,0.0,0.0,0.0,0.0,0.0,0.0,0.0,0.0,0.0,0.0,0.0,0.0,0.0,0.0,0.0,0.0,0.0,0.0,0.0,0.0,0.0,0.0,0.0644,0.0897,0.106,0.1106,0.1284,0.1461,0.0,0.0,0.0,0.0,0.0,0.0,0.0,0.0,0.0,0.0,0.0,0.0,0.0,0.0,0.0,0.0,0.0,0.0,0.0,0.0,0.0,0.0,0.0,0.0,0.0,0.0,0.0,0.0,0.0,0.0,0.0,0.0,0.0,0.0,0.0,0.0,0.0,0.0,0.0,0.0,0.0,0.0,0.0,0.0,0.0,0.0,0.0,0.0,0.0,0.0,0.0,0.0,0.0,0.0,0.0,0.0,0.0,0.0,0.0,0.0,0.0,0.0,0.0,0.0,0.0,0.0,0.0,0.0,0.0,0.0,0.0,0.0,0.0,0.0,0.0,0.0,0.0,0.0,0.0,0.0,0.0,0.0,0.0,0.0,0.0,0.0,0.0,0.0,0.0,0.0,0.0,0.0,0.0,0.0,0.0,0.0,0.0,0.0,0.0,0.0,0.0,0.0,0.0,0.0,0.0,0.0,0.0,0.0,0.0,0.0124,0.027,0.0538,0.0929,0.1094,0.1336,0.0,0.0,0.0,0.0,0.0,0.0,0.0,0.0,0.0,0.0,0.0,0.0,0.0,0.0,0.0,0.0,0.0,0.0,0.0,0.0,0.0,0.0,0.0,0.0,0.0,0.0,0.0,0.0,0.0,0.0,0.0,0.0,0.0,0.0,0.0,0.0,0.0,0.0,0.0,0.0,0.0,0.0,0.0,0.0,0.0,0.0,0.0,0.0,0.0,0.0,0.0,0.0,0.0,0.0,0.0,0.0,0.0,0.0,0.0,0.0,0.0,0.0,0.0,0.0,0.0,0.0,0.0,0.0,0.0,0.0,0.0,0.0,0.0,0.0,0.0,0.0,0.0,0.0,0.0,0.0,0.0,0.0,0.0,0.0,0.0,0.0,0.0,0.0,0.0,0.0,0.0,0.0,0.0,0.0,0.0,0.0,0.0,0.0,0.0,0.0,0.0,0.0,0.0,0.0,0.0,0.0,0.0,0.0,-0.0328,-0.0361,-0.0288,0.0,0.0528,0.0828,0.1138,0.0,0.0,0.0,0.0,0.0,0.0,0.0,0.0,0.0,0.0,0.0,0.0,0.0,0.0,0.0,0.0,0.0,0.0,0.0,0.0,0.0,0.0,0.0,0.0,0.0,0.0,0.0,0.0,0.0,0.0,0.0,0.0,0.0,0.0,0.0,0.0,0.0,0.0,0.0,0.0,0.0,0.0,0.0,0.0,0.0,0.0,0.0,0.0,0.0,0.0,0.0,0.0,0.0,0.0,0.0,0.0,0.0,0.0,0.0,0.0,0.0,0.0,0.0,0.0,0.0,0.0,0.0,0.0,0.0,0.0,0.0,0.0,0.0,0.0,0.0,0.0,0.0,0.0,0.0,0.0,0.0,0.0,0.0,0.0,0.0,0.0,0.0,0.0,0.0,0.0,0.0,0.0,0.0,0.0,0.0,0.0,0.0,0.0,0.0,0.0,0.0,0.0,0.0,0.0,0.0,0.0,0.0,0.0,-0.0907,-0.0803,-0.0745,-0.0505,-0.0056,0.0473,0.0924,0.0,0.0,0.0,0.0,0.0,0.0,0.0,0.0,0.0,0.0,0.0,0.0,0.0,0.0,0.0,0.0,0.0,0.0,0.0,0.0,0.0,0.0,0.0,0.0,0.0,0.0,0.0,0.0,0.0,0.0,0.0,0.0,0.0,0.0,0.0,0.0,0.0,0.0,0.0,0.0,0.0,0.0,0.0,0.0,0.0,0.0,0.0,0.0,0.0,0.0,0.0,0.0,0.0,0.0,0.0,0.0,0.0,0.0,0.0,0.0,0.0,0.0,0.0,0.0,0.0,0.0,0.0,0.0,0.0,0.0,0.0,0.0,0.0,0.0,0.0,0.0,0.0,0.0,0.0,0.0,0.0,0.0,0.0,0.0,0.0,0.0,0.0,0.0,0.0,0.0,0.0,0.0,0.0,0.0,0.0,0.0,0.0,0.0,0.0,0.0,0.0,0.0,0.0,0.0,0.0,0.0,0.0,0.0,-0.1378,-0.1415,-0.1034,-0.0673,-0.0336,0.0215,0.0734,0.0,0.0,0.0,0.0,0.0,0.0,0.0,0.0,0.0,0.0,0.0,0.0,0.0,0.0,0.0,0.0,0.0,0.0,0.0,0.0,0.0,0.0,0.0,0.0,0.0,0.0,0.0,0.0,0.0,0.0,0.0,0.0,0.0,0.0,0.0,0.0,0.0,0.0,0.0,0.0,0.0,0.0,0.0,0.0,0.0,0.0,0.0,0.0,0.582,0.0,0.0,0.0,0.0,0.0,0.0,0.0,0.0,0.0,0.0,0.0,0.0,0.0,0.0,0.0,0.0,0.0,0.0,0.0,0.0,0.0,0.0,0.0,0.0,0.0,0.0,0.0,0.0,0.0,0.0,0.0,0.0,0.0,0.0,0.0,0.0,0.0,0.0,0.0,0.0,0.0,0.0,0.0,0.0,0.0,0.0,0.0,0.0,0.0,0.0,0.0,0.0,0.0,0.0,0.0,0.0,0.0,0.0,0.0,-0.1899,-0.1793,-0.1486,-0.1122,-0.0644,-0.0193,0.0379,0.0,0.0,0.0,0.0,0.0,0.0,0.0,0.0,0.0,0.0,0.0,0.0,0.0,0.0,0.0,0.0,0.0,0.0,0.0,0.0,0.0,0.0,0.0,0.0,0.0,0.0,0.0,0.0,0.0,0.0,0.0,0.0,0.0,0.0,0.0,0.0,0.0,0.0,0.0,0.0,0.0,0.0,0.0,0.0,0.0,0.0,0.0,0.0,0.0,0.0,0.0,0.0,0.0,0.0,0.0,0.0,0.0,0.0,0.0,0.0,0.0,0.0,0.0,0.0,0.0,0.0,0.0,0.0,0.0,0.0,0.0,0.0,0.0,0.0,0.0,0.0,0.0,0.0,0.0,0.0,0.0,0.0,0.0,0.0,0.0,0.0,0.0,0.0,0.0,0.0,0.0,0.0,0.0,0.0,0.0,0.0,0.0,0.0,0.0,0.0,0.0,0.0,0.0,0.0,0.0,0.0,0.0,-0.265,-0.2434,-0.2099,-0.1934,-0.1543,-0.0982,-0.0589,0.0,0.086,0.0,0.0,0.0,0.0,0.0,0.0,0.0,0.0,0.0,0.0,0.0,0.0,0.0,0.0,0.0,0.0,0.0,0.0,0.0,0.0,0.0,0.0,0.0,0.0,0.0,0.0,0.0,0.0,0.0,0.0,0.0,0.0,0.0,0.0,0.0,0.0,0.0,0.0,0.4448,0.436,0.0,0.0,0.0,0.0,0.0,0.0,0.0,0.0,0.5157,0.0,0.0,0.0,0.0,0.0,0.0,0.0,0.0,0.0,0.0,0.0,0.0,0.0,0.0,0.0,0.0,0.0,0.0,0.0,0.0,0.0,0.0,0.0,0.0,0.0,0.0,0.0,0.0,0.0,0.0,0.0,0.0,0.0,0.0,0.0,0.0,0.0,0.0,0.0,0.0,0.0,0.0,0.0,0.0,0.0,0.0,0.0,0.0,0.0,0.0,0.0,0.0,0.0,0.0,0.0,0.0,-0.3272,-0.3095,-0.2854,-0.2607,-0.2184,-0.1737,-0.1234,-0.0701,-0.0112,0.0472,0.0,0.0,0.0,0.0,0.0,0.0,0.0,0.0,0.0,0.0,0.0,0.0,0.0,0.0,0.0,0.0,0.0,0.0,0.0,0.0,0.0,0.0,0.0,0.0,0.0,0.0,0.0,0.0,0.0,0.0,0.0,0.0,0.0,0.0,0.0,0.0,0.0,0.0,0.0,0.3792,0.3861,0.0,0.0,0.0,0.0,0.0,0.0,0.0,0.0,0.4937,0.0,0.0,0.0,0.0,0.0,0.0,0.0,0.0,0.0,0.0,0.0,0.0,0.0,0.0,0.0,0.0,0.0,0.0,0.0,0.0,0.0,0.0,0.0,0.0,0.0,0.0,0.0,0.0,0.0,0.0,0.0,0.0,0.0,0.0,0.0,0.0,0.0,0.0,0.0,0.0,0.0,0.0,0.0,0.0,0.0,0.0,0.0,0.0,0.0,0.0,0.0,0.0,0.0,0.0,0.0,-0.3799,-0.3633,-0.3411,-0.3054,-0.2685,-0.2211,-0.168,-0.1149,-0.0589,0.0,0.0,0.0,0.0,0.0,0.0,0.0,0.0,0.0,0.0,0.0,0.0,0.0,0.0,0.0,0.0,0.0,0.0,0.0,0.0,0.0,0.0,0.0,0.0,0.0,0.0,0.0,0.0,0.0,0.0,0.0,0.0,0.0,0.0,0.0,0.0,0.0,0.0,0.0,0.0,0.3092,0.3205,0.3453,0.0,0.0,0.0,0.0,0.0,0.0,0.4418,0.4514,0.0,0.0,0.0,0.0,0.0,0.0,0.0,0.0,0.0,0.0,0.0,0.0,0.0,0.0,0.0,0.0,0.0,0.0,0.0,0.0,0.0,0.0,0.0,0.0,0.0,0.0,0.0,0.0,0.0,0.0,0.0,0.0,0.0,0.0,0.0,0.0,0.0,0.0,0.0,0.0,0.0,0.0,0.0,0.0,0.0,0.0,0.0,0.0,0.0,0.0,0.0,0.0,0.0,0.0,0.0,-0.4328,-0.4218,-0.3965,-0.3524,-0.3213,-0.2766,-0.2156,-0.1654,-0.1121,0.0,0.0,0.0,0.0,0.0,0.0,0.0,0.0,0.0,0.0,0.0,0.0,0.0,0.0,0.0,0.0,0.0,0.0,0.0,0.0,0.0,0.0,0.0,0.0,0.0,0.0,0.0,0.0,0.0,0.0,0.0,0.0,0.0,0.0,0.0,0.0,0.0,0.0,0.0,0.0,0.0,0.2487,0.278,0.2872,0.0,0.0,0.0,0.0,0.3672,0.3831,0.0,0.0,0.0,0.0,0.0,0.0,0.0,0.0,0.0,0.0,0.0,0.0,0.0,0.0,0.0,0.0,0.0,0.0,0.0,0.0,0.0,0.0,0.0,0.0,0.0,0.0,0.0,0.0,0.0,0.0,0.0,0.0,0.0,0.0,0.0,0.0,0.0,0.0,0.0,0.0,0.0,0.0,0.0,0.0,0.0,0.0,0.0,0.0,0.0,0.0,0.0,0.0,0.0,0.0,0.0,0.0,-0.4846,-0.4814,-0.4487,-0.3941,-0.3658,-0.3241,-0.2633,-0.2043,-0.1456,0.0,0.0,0.0,0.0,0.0,0.0,0.0,0.0,0.0,0.0,0.0,0.0,0.0,0.0,0.0,0.0,0.0,0.0,0.0,0.0,0.0,0.0,0.0,0.0,0.0,0.0,0.0,0.0,0.0,0.0,0.0,0.0,0.0,0.0,0.0,0.0,0.0,0.0,0.0,0.0,0.0,0.1645,0.1917,0.2111,0.2325,0.0,0.0,0.3007,0.301,0.3233,0.0,0.0,0.0,0.0,0.0,0.0,0.0,0.0,0.0,0.0,0.0,0.0,0.0,0.0,0.0,0.0,0.0,0.0,0.0,0.0,0.0,0.0,0.0,0.0,0.0,0.0,0.0,0.0,0.0,0.0,0.0,0.0,0.0,0.0,0.0,0.0,0.0,0.0,0.0,0.0,0.0,0.0,0.0,0.0,0.0,0.0,0.0,0.0,0.0,0.0,0.0,0.0,0.0,0.0,0.0,-0.5687,-0.5418,-0.5391,-0.5117,-0.4515,-0.4239,-0.3824,-0.3213,-0.2629,-0.2043,0.0,0.0,0.0,0.0,0.0,0.0,0.0,0.0,0.0,0.0,0.0,0.0,0.0,0.0,0.0,0.0,0.0,0.0,0.0,0.0,0.0,0.0,0.0,0.0,0.0,0.0,0.0,0.0,0.0,0.0,0.0,0.0,0.0,0.0,0.0,0.0,0.0,0.0,0.0,0.0,0.0,0.0,0.0981,0.1096,0.0,0.0,0.0,0.2038,0.2237,0.0,0.0,0.0,0.0,0.0,0.0,0.0,0.0,0.0,0.0,0.0,0.0,0.0,0.0,0.0,0.0,0.0,0.0,0.0,0.0,0.0,0.0,0.0,0.0,0.0,0.0,0.0,0.0,0.0,0.0,0.0,0.0,0.0,0.0,0.0,0.0,0.0,0.0,0.0,0.0,0.0,0.0,0.0,0.0,0.0,0.0,0.0,0.0,0.0,0.0,0.0,0.0,0.0,0.0,0.0,0.0,0.0,-0.6127,-0.6046,-0.5746,-0.5203,-0.4873,-0.4405,-0.3849,-0.3241,0.0,0.0,0.0,0.0,0.0,0.0,0.0,0.0,0.0,0.0,0.0,0.0,0.0,0.0,0.0,0.0,0.0,0.0,0.0,0.0,0.0,0.0,0.0,0.0,0.0,0.0,0.0,0.1563,0.0,0.0,0.0,0.0,0.0,0.0,0.0,0.0,0.0,0.0,0.0,0.0,0.0,0.0,-0.0435,-0.014,-0.0056,0.0112,0.0,0.0,0.0979,0.1231,0.1483,0.1734,0.0,0.0,0.0,0.0,0.0,0.0,0.0,0.0,0.0,0.0,0.0,0.0,0.0,0.0,0.0,0.0,0.0,0.0,0.0,0.0,0.0,0.0,0.0,0.0,0.0,0.0,0.0,0.0,0.0,0.0,0.0,0.0,0.0,0.0,0.0,0.0,0.0,0.0,0.0,0.0,0.0,0.0,0.0,0.0,0.0,0.0,0.0,0.0,0.0,0.0,0.0,0.0,0.0,0.0,-0.7155,-0.7004,-0.6761,-0.6404,-0.5918,-0.55,-0.4979,-0.446,-0.3852,-0.3267,0.0,0.0,0.0,0.0,0.0,0.0,0.0,0.0,0.0,0.0,0.0,0.0,0.0,0.0,0.0,0.0,0.0,0.0,0.0,0.0,0.0,0.0,0.0,0.0,0.0,0.0,0.0,0.0,0.0,0.0,0.0,0.0,0.0,0.0,0.0,0.0,0.0,0.0,0.0,0.0,0.0,-0.1646,-0.1482,-0.1314,-0.1146,0.0,-0.0588,-0.0252,-0.0084,0.0252,0.0617,0.0981,0.0,0.0,0.0,0.0,0.0,0.0,0.0,0.0,0.0,0.0,0.0,0.0,0.0,0.0,0.0,0.0,0.0,0.0,0.0,0.0,0.0,0.0,0.0,0.0,0.0,0.0,0.0,0.0,0.0,0.0,0.0,0.0,0.0,0.0,0.0,0.0,0.0,0.0,0.0,0.0,0.0,0.0,0.0,0.0,0.0,0.0,0.0,0.0,0.0,0.0,0.0,0.0,0.0,-0.7851,-0.761,-0.7396,-0.7058,-0.6549,-0.6105,-0.5582,-0.5011,-0.4429,-0.3879,0.0,0.0,0.0,0.0,0.0,0.0,0.0,0.0,0.0,0.0,0.0,0.0,0.0,0.0,0.0,0.0,0.0,0.0,0.0,0.0,0.0,0.0,0.0,0.0,0.0,0.0,0.0,0.0,-0.1848,-0.2265,-0.2786,0.0,0.0,0.0,0.0,0.0,0.0,0.0,0.0,0.0,0.0,-0.3161,-0.2987,-0.2807,0.0,0.0,-0.2046,-0.1632,-0.1305,-0.0993,-0.0576,-0.0115,0.0113,0.0,0.0,0.0,0.0,0.0,0.0,0.0,0.0,0.0,0.0,0.0,0.0,0.0,0.0,0.0,0.0,0.0,0.0,0.0,0.0,0.0,0.0,0.0,0.0,0.0,0.0,0.0,0.0,0.0,0.0,0.0,0.0,0.0,0.0,0.0,0.0,0.0,0.0,0.0,0.0,0.0,0.0,0.0,0.0,0.0,0.0,0.0,0.0,0.0,0.0,0.0,0.0,-0.8963,-0.8685,-0.8365,-0.7943,-0.752,-0.689,-0.6285,-0.5687,-0.5171,-0.4594,0.0,0.0,0.0,0.0,0.0,0.0,0.0,0.0,0.0,0.0,0.0,0.0,0.0,0.0,0.0,0.0,0.0,0.0,0.0,0.0,0.0,0.0,0.0,0.0,0.0,0.0,0.0,0.0,-0.3605,-0.4085,-0.454,0.0,0.0,0.0,0.0,0.0,0.0,0.0,0.0,0.0,0.0,-0.4709,-0.4559,-0.4351,-0.4141,-0.3953,-0.3496,-0.3068,-0.2699,-0.2352,-0.1934,-0.1397,0.0,0.0,0.0,0.0,0.0,0.0,0.0,0.0,0.0,0.0,0.0,0.0,0.0,0.0,0.0,0.0,0.0,0.0,0.0,0.0,0.0,0.0,0.0,0.0,0.0,0.0,0.0,-0.6938,0.0,0.0,-0.7621,0.0,0.0,0.0,0.0,0.0,0.0,0.0,0.0,0.0,0.0,0.0,0.0,0.0,0.0,0.0,0.0,0.0,0.0,0.0,0.0,0.0,0.0,-1.0572,-1.0437,-0.9667,-0.9122,-0.886,-0.7976,-0.7208,-0.6593,-0.6077,-0.55,-0.4901,0.0,0.0,0.0,0.0,0.0,0.0,0.0,0.0,0.0,0.0,0.0,0.0,0.0,0.0,0.0,0.0,0.0,0.0,0.0,0.0,0.0,0.0,0.0,0.0,0.0,0.0,-0.4648,-0.5322,-0.5843,0.0,0.0,0.0,0.0,0.0,0.0,0.0,0.0,0.0,-0.6164,-0.6217,-0.6284,-0.6254,-0.5872,-0.5559,-0.5551,-0.4995,-0.4537,-0.4394,-0.39,-0.3407,0.0,0.0,0.0,0.0,0.0,0.0,0.0,0.0,0.0,0.0,0.0,0.0,0.0,0.0,0.0,0.0,0.0,0.0,0.0,0.0,0.0,0.0,0.0,0.0,0.0,0.0,0.0,-0.8111,-0.8287,0.0,0.0,0.0,0.0,0.0,0.0,0.0,0.0,0.0,0.0,0.0,-1.2901,-1.2932,0.0,0.0,0.0,0.0,0.0,0.0,0.0,0.0,0.0,0.0,0.0,0.0,-1.1495,-1.1249,-1.078,-1.0376,-0.9981,-0.9264,-0.8546,-0.7843,-0.7239,-0.6447,-0.5399,0.0,0.0,0.0,0.0,0.0,0.0,0.0,0.0,0.0,0.0,0.0,0.0,0.0,0.0,0.0,0.0,0.0,0.0,0.0,0.0,0.0,0.0,0.0,0.0,0.0,-0.6139,0.0,0.0,0.0,0.0,0.0,0.0,0.0,0.0,0.0,0.0,0.0,-0.7705,-0.7784,-0.786,-0.7858,-0.7705,-0.7425,-0.7202,0.0,0.0,0.0,0.0,0.0,0.0,0.0,0.0,0.0,0.0,0.0,0.0,0.0,0.0,-0.0923,0.0268,0.0596,0.0686,0.0715,0.0,0.0,0.0,0.0,0.0,0.0,0.0,0.0,0.0,0.0,0.0,0.0,0.0,0.0,-1.021,0.0,-1.0615,0.0,0.0,0.0,0.0,0.0,0.0,0.0,0.0,-1.4191,-1.4684,-1.5118,-1.5118,-1.5396,0.0,-1.574,-1.488,0.0,0.0,0.0,0.0,0.0,0.0,0.0,0.0,-1.2677,-1.2352,-1.2012,-1.1597,-1.1138,-1.0487,-0.9852,-0.9147,-0.8393,-0.7486,-0.6387,-0.5902,-0.5393,0.0,0.0,0.0,0.0,0.0,0.0,0.0,0.0,0.0,0.0,0.0,0.0,0.0,0.0,0.0,0.0,0.0,0.0,0.0,0.0,0.0,0.0,0.0,-0.7939,0.0,0.0,0.0,0.0,0.0,0.0,0.0,0.0,0.0,-0.9039,-0.9097,-0.9298,-0.9368,-0.9424,-0.9352,-0.9165,0.0,0.0,0.0,0.0,0.0,0.0,0.0,-0.6345,-0.5837,-0.5561,-0.5175,-0.4521,-0.4113,-0.377,-0.3421,0.0,0.0,-0.1172,-0.0707,-0.0584,-0.0554,-0.0369,-0.0216,-0.0185,-0.0092,-0.0062,0.0,0.0,0.0,0.0,0.0,0.0,0.0,0.0,-1.2721,-1.2975,0.0,-1.3286,0.0,0.0,0.0,0.0,-1.5348,-1.5407,0.0,0.0,-1.5965,-1.623,-1.6793,-1.6821,-1.7164,-1.7731,-1.7364,-1.7195,-1.7222,-1.6058,0.0,0.0,0.0,0.0,0.0,0.0,-1.4165,-1.3877,-1.3353,-1.2855,-1.2409,-1.1665,-1.103,-1.053,-0.9508,-0.8623,-0.7903,-0.7412,-0.6829,-0.6123,-0.5782,0.0,0.0,0.0,0.0,0.0,0.0,0.0,0.0,0.0,0.0,0.0,0.0,0.0,0.0,0.0,0.0,0.0,0.0,0.0,0.0,-0.9159,0.0,0.0,0.0,0.0,0.0,0.0,0.0,0.0,0.0,0.0,-1.0526,-1.071,-1.0929,-1.0943,0.0,0.0,0.0,0.0,-1.0021,-0.9869,-0.9378,-0.8982,-0.8796,-0.8377,-0.7887,-0.734,0.0,0.0,-0.6067,-0.5635,-0.5266,-0.4942,-0.4833,-0.4303,-0.2584,-0.2105,-0.192,-0.1765,-0.158,-0.1421,-0.1267,-0.1118,-0.0961,-1.6715,0.0,0.0,0.0,0.0,-1.4763,-1.4831,-1.4823,-1.504,-1.5247,-1.5411,-1.5575,0.0,0.0,0.0,0.0,0.0,0.0,-1.8149,-1.8393,-1.8676,-1.8944,-1.9184,-1.9358,-1.9604,-1.9902,-1.9941,-1.9879,-1.9741,-1.94,-1.8235,-1.627,0.0,0.0,0.0,0.0,-1.5925,-1.571,-1.5059,-1.4575,-1.4305,-1.3335,-1.2403,-1.1532,-1.0538,-0.9836,-0.9455,-0.8969,-0.853,-0.8103,-0.776,0.0,0.0,0.0,0.0,0.0,0.0,0.0,0.0,0.0,0.0,0.0,0.0,0.0,0.0,0.0,0.0,0.0,0.0,0.0,-1.0997,-1.1216,-1.145,0.0,0.0,0.0,0.0,0.0,0.0,0.0,0.0,0.0,-1.2891,-1.239,-1.2061,0.0,0.0,-1.1895,-1.1608,-1.1389,-1.1226,-1.1045,-1.0679,0.0,-1.0028,-0.9671,-0.925,-0.8775,-0.8129,-0.7637,-0.7437,-0.699,-0.6568,-0.633,-0.6239,-0.5876,-0.5107,-0.3988,-0.3272,-0.3013,-0.275,-0.2558,-0.2492,-0.2327,-0.2161,-2.0318,-1.8399,-1.7531,-1.7214,-1.7302,-1.7446,-1.7541,-1.7523,-1.747,-1.7578,-1.7794,-1.7724,-1.7931,-1.8327,-1.8596,0.0,0.0,0.0,-2.0101,-2.0296,-2.0544,-2.0774,-2.1039,-2.1157,-2.1396,-2.1675,-2.1589,-2.1503,-2.1386,-2.1203,-2.031,-1.872,0.0,0.0,-1.719,-1.7211,-1.7108,-1.689,-1.6414,-1.603,-1.5754,-1.4726,-1.3726,-1.2754,-1.2003,-1.1451,-1.1103,-1.0574,-1.011,-0.9748,-0.9437,-0.914,0.0,0.0,0.0,0.0,0.0,0.0,0.0,0.0,0.0,0.0,0.0,-0.9241,-1.0043,0.0,0.0,0.0,-1.1875,-1.2208,-1.2667,-1.2749,0.0,0.0,0.0,0.0,0.0,0.0,0.0,-1.4035,-1.4327,-1.4487,-1.4487,-1.3958,-1.3452,-1.3122,-1.3064,-1.2911,-1.2566,0.0,-1.229,-1.205,-1.1787,-1.1469,-1.1139,-1.0818,-1.0408,-0.9843,-0.9256,-0.8737,-0.8608,-0.8296,-0.7944,-0.7609,-0.7484,-0.7256,-0.6826,-0.5906,-0.5017,-0.4389,-0.4023,-0.3789,-0.3658,-0.3456,-0.3286,-2.3517,-2.2719,-2.0831,-2.0031,-2.0027,-2.0302,-2.038,-2.0391,-1.9995,-1.9983,-2.0303,-1.9945,-2.0058,-2.0555,-2.0976,0.0,-2.1694,-2.1729,-2.1846,-2.1943,-2.1919,-2.2149,-2.2578,-2.26,-2.282,-2.3211,-2.2798,-2.2567,-2.2512,-2.213,-2.1844,-2.1721,-2.0224,-1.8992,-1.8155,-1.8093,-1.7968,-1.7781,-1.7553,-1.7242,-1.6858,-1.5866,-1.4949,-1.4178,-1.3726,-1.3224,-1.2772,-1.2124,-1.1592,-1.1212,-1.0911,-1.0667,-1.0537,0.0,0.0,0.0,0.0,0.0,0.0,0.0,0.0,0.0,0.0,0.0,0.0,0.0,0.0,-1.2966,-1.3469,0.0,-1.3795,-1.3903,0.0,0.0,0.0,-1.4375,-1.4851,-1.4918,-1.5075,-1.5429,0.0,0.0,-1.5439,-1.5342,-1.5,-1.4249,-1.398,-1.3761,-1.342,-1.3381,-1.3277,-1.2928,-1.2728,-1.2513,-1.2135,-1.1794,-1.1358,-1.0762,-1.0345,-0.999,-0.9678,-0.9492,-0.9204,-0.8748,-0.8613,-0.8458,-0.7934,-0.7679,-0.7195,-0.5914,-0.5388,-0.5087,-0.4758,-0.4522,-0.4323,-2.5591,-2.5378,-2.4872,-2.3513,-2.1715,-2.1949,-2.21,-2.2251,-2.231,-2.2368,-2.2487,-2.271,-2.3048,-2.3474,-2.3875,-2.4142,-2.4218,-2.4593,-2.4755,-2.4831,-2.4819,-2.4888,-2.4964,-2.5127,-2.526,-2.5375,-2.5362,-2.5096,-2.459,-2.4464,-2.3969,-2.3084,-2.2648,-2.1876,-2.0747,-2.0356,-2.0149,-2.0105,-1.9116,-1.8187,-1.7347,-1.6832,-1.6257,-1.5607,-1.5142,-1.4623,-1.4084,-1.3625,-1.3314,-1.3067,-1.2753,-1.2565,-1.2489,-1.2416,0.0,0.0,0.0,0.0,0.0,0.0,0.0,0.0,0.0,-1.2721,-1.3421,0.0,-1.436,0.0,-1.5126,-1.541,-1.5495,-1.5552,0.0,0.0,-1.5769,-1.581,-1.595,-1.5932,-1.5973,-1.6075,-1.6085,-1.6056,-1.5941,-1.5912,-1.5739,-1.5342,-1.4813,-1.441,-1.4261,-1.4231,-1.4082,-1.3791,-1.3649,-1.3489,-1.3056,-1.2566,-1.2135,-1.1778,-1.1397,-1.1045,-1.0769,-1.0446,-1.0136,-0.9913,-0.9652,-0.939,-0.9128,-0.8844,-0.8463,-0.7842,-0.6887,-0.5976,-0.5653,-0.5455,-0.5186,-2.7215,-2.6732,-2.6732,-2.5836,-2.4374,-2.4427,-2.4345,-2.4221,-2.4261,-2.4184,-2.4083,-2.444,-2.4736,-2.506,-2.541,-2.5565,-2.5658,-2.5912,-2.6,-2.6039,-2.6142,-2.6191,-2.623,-2.6394,-2.6508,-2.6508,-2.6496,-2.6304,-2.5932,-2.5808,-2.5392,-2.4759,-2.4549,-2.4067,-2.3353,-2.2274,-2.17,-2.17,-2.0632,-1.9651,-1.8723,-1.8249,-1.7678,-1.7104,-1.6676,-1.6282,-1.5896,-1.5573,-1.5268,-1.5075,-1.4838,-1.4674,-1.4613,-1.4511,-1.4511,0.0,0.0,0.0,0.0,0.0,0.0,0.0,0.0,0.0,0.0,0.0,-1.6347,-1.6755,-1.7032,-1.7219,-1.7278,-1.7288,-1.7336,-1.7405,-1.7405,-1.7405,-1.7416,-1.7405,-1.7376,-1.7267,-1.7267,-1.7208,-1.7061,-1.6983,-1.6864,-1.6637,-1.6237,-1.57,-1.5047,-1.4854,-1.4725,-1.4497,-1.4359,-1.4151,-1.37,-1.3368,-1.3003,-1.2582,-1.2328,-1.2019,-1.163,-1.1365,-1.1122,-1.08,-1.0548,-1.032,-1.0098,-0.9722,-0.9332,-0.8941,-0.8226,-0.7354,-0.6642,-0.6346,-0.6079,-2.8563,-2.7593,-2.7494,-2.742,-2.7233,-2.7087,-2.6686,-2.6107,-2.6011,-2.5766,-2.5573,-2.5678,-2.5844,-2.5981,-2.6236,-2.6441,-2.6571,-2.6609,-2.6659,-2.6647,-2.6888,-2.7002,-2.7002,-2.7191,-2.7267,-2.7279,-2.7078,-2.6966,-2.6882,-2.6667,-2.6529,-2.6434,-2.6046,-2.5845,-2.5774,-2.4085,-2.3073,-2.2741,-2.1991,-2.1229,-2.0423,-1.9801,-1.9186,-1.8554,-1.8172,-1.7894,-1.774,-1.7461,-1.7191,-1.7015,-1.6878,-1.6721,-1.6512,-1.6512,-1.6522,0.0,-1.6522,0.0,0.0,0.0,0.0,0.0,0.0,0.0,0.0,-1.7863,-1.8158,-1.8616,-1.8819,-1.889,-1.889,-1.892,-1.892,-1.889,-1.892,-1.8901,-1.8901,-1.8901,-1.8819,-1.8616,-1.8585,-1.8525,-1.825,-1.817,-1.8058,-1.7811,-1.7606,-1.7063,-1.6009,-1.5644,-1.5496,-1.528,-1.5035,-1.4738,-1.4237,-1.4061,-1.383,-1.3285,-1.3133,-1.292,-1.2313,-1.222,-1.2027,-1.1553,-1.1303,-1.1153,-1.0933,-1.0485,-1.0047,-0.9716,-0.93,-0.8657,-0.7587,-0.7171,-0.6876,-2.9463,-2.9077,-2.8686,-2.8606,-2.8714,-2.8679,-2.8139,-2.7371,-2.7533,-2.7566,-2.7482,-2.7504,-2.7527,-2.7519,-2.7683,-2.7921,-2.8091,-2.8264,-2.8421,-2.8538,-2.8629,-2.8629,-2.8617,-2.8668,-2.8707,-2.8707,-2.8668,-2.8435,-2.7982,-2.7931,-2.77,-2.7298,-2.7188,-2.7152,-2.7115,0.0,0.0,0.0,-2.2796,-2.2316,-2.1603,-2.1194,-2.0572,-1.9694,-1.9286,0.0,-1.8364,-1.8271,-1.8179,-1.8016,-1.7985,0.0,0.0,0.0,0.0,0.0,0.0,0.0,0.0,0.0,0.0,0.0,-1.977,-1.9411,-1.8448,-1.8695,-1.9086,-1.9436,-1.9495,-1.9536,-1.9536,-1.9536,-1.9536,-1.9524,-1.9536,-1.9506,-1.9369,-1.938,-1.928,-1.91,-1.907,-1.8939,-1.869,-1.8566,-1.8466,-1.8254,-1.8098,-1.7923,-1.7563,-1.7124,-1.6827,-1.661,-1.6041,-1.5411,-1.4664,-1.4577,-1.4389,-1.395,-1.3799,-1.3558,-1.2989,-1.2836,-1.2683,-1.2174,-1.1996,-1.1809,-1.1498,-1.1153,-1.0776,-1.0466,-1.0079,-0.9408,-0.8144,-0.7819,-0.7624,-3.03,-2.9858,-2.952,-2.9314,0.0,-2.9416,-2.9239,-2.8802,-2.8633,-2.8555,-2.8568,-2.878,-2.885,-2.8852,-2.8772,-2.8843,-2.9032,-2.8885,-2.8922,-2.9091,-2.9197,-2.9236,-2.9236,-2.9378,-2.9417,-2.9417,-2.9339,-2.91,-2.8841,-2.8751,-2.8577,-2.8282,-2.8024,-2.7889,-2.7877,-2.7361,-2.6129,-2.4152,-2.3915,-2.3507,-2.2944,-2.2555,-2.1927,-2.1117,-2.0901,0.0,0.0,0.0,0.0,0.0,0.0,0.0,0.0,-1.9187,0.0,-1.8945,-1.8997,-1.9232,-1.9597,-1.9821,-2.0133,-2.0687,-2.0999,-2.0782,-2.0,-2.0224,-2.0492,-2.0687,-2.0687,-2.0687,-2.0687,-2.0687,-2.0687,-2.0687,-2.0687,-2.0668,-2.0607,-2.0576,-2.0515,-2.0308,-2.0216,-2.0093,-1.9834,-1.9721,-1.9522,-1.9187,-1.9124,-1.905,-1.8754,-1.8061,-1.7471,-1.7201,-1.6656,-1.6047,-1.5503,-1.5174,-1.4893,-1.4478,-1.43,-1.4031,-1.3588,-1.3346,-1.3155,-1.285,-1.2544,-1.2274,-1.2127,-1.1685,-1.1279,-1.0965,-1.0586,-1.0047,-0.9145,-0.8727,-0.8306,-3.1098,-3.0505,-3.0111,-2.9883,-2.9701,-2.9828,-2.9977,-2.9988,0.0,0.0,0.0,-2.9744,-2.991,-2.9833,-2.9587,-2.9629,-2.9797,-2.941,-2.9233,-2.9369,-2.9541,-2.9557,-2.947,-2.9689,-2.9779,-2.9792,-2.956,-2.947,-2.9457,-2.9287,-2.9221,-2.9172,-2.8778,-2.8494,-2.8383,-2.7977,-2.7103,-2.5791,-2.5235,-2.4735,-2.4221,-2.3783,-2.3209,-2.2503,-2.2458,-2.2162,-2.1617,-2.1562,-2.1498,-2.1325,-2.1337,-2.1196,-2.0882,-2.086,-2.0784,-2.0577,-2.0588,-2.073,-2.1002,-2.1067,-2.1293,-2.1794,-2.1977,-2.1906,-2.158,-2.1686,-2.1824,-2.1855,-2.1886,-2.1874,-2.1886,-2.1886,-2.1886,-2.1855,-2.1824,-2.1812,-2.1718,-2.173,-2.1596,-2.1506,-2.1302,-2.119,-2.0933,-2.0794,-2.0658,-2.0291,-2.0095,-2.0042,-1.9607,-1.8743,-1.7977,-1.7561,-1.7113,-1.6628,-1.6227,-1.5753,-1.5323,-1.4922,-1.4706,-1.4508,-1.4151,-1.3881,-1.3601,-1.3329,-1.3003,-1.2736,-1.259,-1.2151,-1.1685,-1.1404,-1.1052,-1.0656,-1.0174,-0.9664,-0.9087,-3.1773,-3.1446,-3.0617,-3.0355,-3.0418,-3.0067,-3.0091,-3.0476,-3.0406,-3.0295,-3.0059,-3.0296,-3.0262,-3.0086,-3.0198,-3.0382,-3.0655,-3.0733,-3.0639,-3.0388,-3.0415,-3.0192,-2.9753,-2.9792,-2.9779,-2.9779,-2.9753,-2.974,-2.974,-2.9702,-2.9702,-2.9702,-2.9626,-2.93,-2.885,-2.8725,-2.83,-2.7458,-2.6746,-2.5928,-2.4954,-2.4767,-2.4307,-2.3622,-2.3409,-2.3219,-2.2993,-2.3003,-2.2993,-2.2948,-2.2948,-2.2848,-2.2635,-2.2612,-2.2556,-2.2353,-2.2477,-2.2601,-2.2669,-2.2814,-2.3081,-2.3412,-2.3478,-2.3107,-2.2188,-2.2104,-2.2247,-2.2537,-2.2561,-2.2567,-2.2555,-2.2537,-2.2432,-2.2328,-2.2309,-2.2173,-2.1925,-2.1874,-2.1843,-2.1718,-2.1635,-2.1498,-2.1221,-2.1126,-2.0978,-2.069,-2.0421,-2.0237,-1.9835,-1.9444,-1.8831,-1.82,-1.7675,-1.7185,-1.6648,-1.6038,-1.5576,-1.5362,-1.5157,-1.4941,-1.4508,-1.435,-1.4103,-1.3593,-1.339,-1.3155,-1.2775,-1.2529,-1.2189,-1.1709,-1.1498,-1.1216,-1.0649,-1.0403,-1.0009,-3.2358,-3.2063,-3.1513,-3.1122,-3.0822,-3.0457,-3.051,-3.0826,-3.0949,-3.092,-3.0841,-3.1037,-3.1069,-3.0958,-3.087,-3.0961,-3.1196,-3.1096,-3.1069,-3.1047,-3.1035,-3.0896,-3.0658,-3.0369,-3.0231,-3.0218,-2.993,-2.9779,-2.9779,-2.9779,-2.9779,-2.9779,-2.9779,-2.9654,-2.9415,-2.939,-2.9076,-2.8388,-2.7382,-2.657,-2.5984,-2.5632,-2.5113,-2.4509,-2.4396,-2.4183,-2.3839,-2.3839,-2.3839,-2.3839,-2.3827,-2.3773,-2.3616,-2.3582,-2.3449,-2.3157,-2.3337,-2.3449,-2.3439,-2.3694,-2.3905,-2.407,-2.407,-2.3941,-2.3548,-2.3404,-2.3404,-2.355,-2.3348,-2.3132,-2.3108,-2.2893,-2.2647,-2.2586,-2.2555,-2.2506,-2.2371,-2.2247,-2.213,-2.208,-2.1906,-2.1749,-2.16,-2.1411,-2.1253,-2.0978,-2.0669,-2.027,-1.9976,-1.9736,-1.941,-1.8863,-1.8153,-1.7544,-1.7124,-1.6415,-1.5867,-1.5604,-1.54,-1.5196,-1.4893,-1.4715,-1.4389,-1.4112,-1.3782,-1.3428,-1.3094,-1.2797,-1.2498,-1.2251,-1.1809,-1.1466,-1.1192,-1.0877,-1.0301,-3.2853,-3.2661,-3.2339,-3.1839,-3.1239,-3.1018,-3.1035,-3.1272,-3.1321,-3.1395,-3.1439,-3.1617,-3.1705,-3.1669,-3.152,-3.1565,-3.1675,-3.1613,-3.1547,-3.1587,-3.1574,-3.1512,-3.1361,-3.0959,-3.0783,-3.0721,-3.0231,-2.998,-2.9967,-2.9867,-2.9779,-2.9779,-2.9779,-2.9779,-2.9779,-2.9779,-2.9566,-2.9051,-2.8,-2.7282,-2.699,-2.6519,-2.599,-2.5561,-2.5413,-2.512,-2.4681,-2.4657,-2.4657,-2.4657,-2.4669,-2.4611,-2.4511,-2.4499,-2.4366,-2.4109,-2.4198,-2.4265,-2.4289,-2.4523,-2.4657,-2.4735,-2.4735,-2.4789,-2.4967,-2.4888,-2.4678,-2.4431,-2.4023,-2.3801,-2.3763,-2.3455,-2.3121,-2.2979,-2.2924,-2.2844,-2.2702,-2.2543,-2.2451,-2.2451,-2.2204,-2.1987,-2.1925,-2.1694,-2.1431,-2.1169,-2.0786,-2.0378,-2.0074,-1.9966,-1.9736,-1.9358,-1.8563,-1.7885,-1.7595,-1.6848,-1.6191,-1.5857,-1.5633,-1.543,-1.5196,-1.4863,-1.4597,-1.444,-1.3992,-1.3631,-1.348,-1.3103,-1.2752,-1.256,-1.2182,-1.1817,-1.1567,-1.1059,-1.0428,-3.3247,-3.3132,-3.2695,-3.2264,-3.2007,-3.1958,-3.1974,-3.196,-3.1744,-3.1661,-3.1697,-3.1705,-3.1717,-3.1749,-3.2096,-3.2277,-3.2333,-3.2728,-3.2629,-3.2177,-3.2139,-3.1876,-3.1474,-3.1348,-3.1323,-3.126,-3.0796,-3.0545,-3.0507,-3.0055,-2.9792,-2.9779,-2.9779,-2.9779,-2.9779,-2.9779,-2.9767,-2.9704,-2.9051,-2.8499,-2.7961,-2.7458,-2.7062,-2.6834,-2.6328,-2.5998,-2.5761,-2.5763,-2.575,-2.5763,-2.5738,-2.5738,-2.5738,-2.5738,-2.5703,-2.5656,-2.5656,-2.5728,-2.5703,-2.5763,-2.5795,-2.6017,-2.5968,-2.6058,-2.6217,-2.6276,-2.5828,-2.5043,-2.4743,-2.4648,-2.468,-2.458,-2.4241,-2.3704,-2.3623,-2.3374,-2.2924,-2.269,-2.2678,-2.269,-2.2524,-2.2328,-2.2154,-2.1956,-2.1675,-2.1265,-2.0914,-2.0604,-2.0335,-2.0107,-1.9933,-1.9738,-1.9136,-1.8396,-1.7802,-1.7174,-1.6592,-1.6119,-1.5836,-1.5604,-1.5391,-1.5167,-1.4882,-1.4597,-1.4231,-1.3881,-1.361,-1.3346,-1.308,-1.2721,-1.2498,-1.2282,-1.1747,-1.1216,-1.0618,-3.3281,-3.3258,-3.3051,-3.2906,-3.278,-3.2628,-3.2647,-3.2773,-3.2673,-3.2454,-3.2211,-3.2276,-3.2196,-3.1906,-3.2257,-3.2475,-3.2605,-3.2939,-3.2955,-3.2729,-3.2729,-3.2591,-3.2378,-3.2026,-3.1876,-3.1838,-3.1336,-3.1072,-3.0984,-3.0532,-3.0105,-2.9817,-2.9779,-2.9779,-2.9779,-2.9779,-2.9779,-2.9779,-2.9553,-2.9327,-2.9038,-2.8222,-2.7734,-2.7599,-2.7124,-2.6814,-2.6694,-2.6432,-2.6245,-2.6258,-2.6258,-2.6245,-2.6258,-2.6258,-2.6188,-2.6084,-2.6062,-2.6131,-2.6258,-2.6245,-2.6292,-2.6361,-2.6374,-2.643,-2.6499,-2.6487,-2.6285,-2.5862,-2.5485,-2.5272,-2.5259,-2.5021,-2.4655,-2.4391,-2.4354,-2.4222,-2.3991,-2.3859,-2.374,-2.3343,-2.3051,-2.2729,-2.2382,-2.2049,-2.1706,-2.1296,-2.1042,-2.085,-2.0475,-2.0281,-2.0107,-1.9911,-1.9598,-1.8988,-1.8103,-1.7427,-1.6851,-1.6306,-1.6038,-1.5855,-1.5604,-1.5391,-1.5128,-1.4843,-1.4478,-1.4151,-1.3851,-1.358,-1.3277,-1.2928,-1.2529,-1.2251,-1.1809,-1.1498,-1.109,-3.3281,-3.3331,-3.3419,-3.352,-3.3524,-3.3315,-3.3336,-3.3464,-3.3437,-3.3148,-3.2856,-3.2913,-3.2755,-3.2445,-3.2462,-3.255,-3.2711,-3.2982,-3.3124,-3.3124,-3.3124,-3.3124,-3.3061,-3.2654,-3.2453,-3.2365,-3.1888,-3.1537,-3.1373,-3.1035,-3.0557,-3.0093,-3.0018,-2.9942,-2.9792,-2.9779,-2.9779,-2.9779,-2.9779,-2.9779,-2.9666,-2.8988,-2.8499,-2.8298,-2.7795,-2.7507,-2.7494,-2.7153,-2.6864,-2.6738,-2.6725,-2.6637,-2.6512,-2.6487,-2.643,-2.6305,-2.627,-2.6327,-2.6487,-2.6487,-2.6487,-2.6487,-2.6487,-2.6487,-2.6487,-2.6487,-2.6487,-2.6424,-2.6122,-2.5837,-2.5787,-2.5485,-2.5234,-2.5084,-2.5001,-2.4963,-2.4788,-2.4703,-2.4452,-2.4059,-2.3762,-2.333,-2.2742,-2.2351,-2.195,-2.1469,-2.1265,-2.1063,-2.0669,-2.0508,-2.0378,-2.0107,-2.0031,-1.9533,-1.8479,-1.7839,-1.7216,-1.6634,-1.6343,-1.5999,-1.5778,-1.5565,-1.5303,-1.4931,-1.4686,-1.4389,-1.4001,-1.37,-1.3428,-1.3042,-1.2674,-1.2305,-1.2019,-1.184,-1.1622,-3.3281,-3.3381,-3.3817,-3.4052,-3.4042,-3.3995,-3.3958,-3.3982,-3.3758,-3.3596,-3.3487,-3.3334,-3.3276,-3.338,-3.2965,-3.268,-3.2723,-3.2982,-3.3124,-3.3124,-3.3124,-3.3124,-3.3124,-3.3043,-3.3061,-3.2918,-3.2441,-3.1926,-3.1449,-3.1373,-3.1097,-3.0608,-3.0583,-3.0306,-2.9905,-2.9842,-2.9804,-2.9804,-2.9779,-2.9779,-2.9779,-2.9716,-2.939,-2.8863,-2.836,-2.8072,-2.8059,-2.8034,-2.7783,-2.7256,-2.7278,-2.7052,-2.66,-2.6524,-2.6537,-2.6524,-2.6512,-2.6487,-2.6487,-2.6487,-2.6487,-2.6487,-2.6487,-2.6487,-2.6487,-2.6487,-2.6487,-2.6487,-2.6436,-2.6399,-2.6386,-2.6273,-2.6038,-2.5624,-2.5561,-2.536,-2.4901,-2.4963,-2.4813,-2.4718,-2.4539,-2.4045,-2.3279,-2.2867,-2.2416,-2.1855,-2.1458,-2.1149,-2.0914,-2.0754,-2.0604,-2.0443,-2.028,-2.0029,-1.9072,-1.8426,-1.7868,-1.7184,-1.6564,-1.6116,-1.5865,-1.5604,-1.5342,-1.5049,-1.4775,-1.4478,-1.413,-1.3799,-1.3498,-1.3164,-1.2828,-1.249,-1.2274,-1.2151,-1.1941,-3.3392,-3.358,-3.3927,-3.4162,-3.4274,-3.4425,-3.451,-3.4523,-3.4594,-3.441,-3.42,-3.4351,-3.4322,-3.404,-3.3626,-3.3277,-3.2995,-3.3081,-3.3124,-3.3124,-3.3124,-3.3124,-3.3124,-3.3124,-3.3124,-3.3086,-3.291,-3.2478,-3.1964,-3.1913,-3.165,-3.1198,-3.111,-3.0834,-3.0407,-3.0319,-3.0156,-2.9829,-2.9779,-2.9779,-2.9779,-2.9779,-2.9679,-2.9465,-2.8925,-2.8587,-2.8637,-2.8298,-2.8009,-2.7821,-2.7808,-2.772,-2.7519,-2.7203,-2.7027,-2.6977,-2.6688,-2.6487,-2.6487,-2.6487,-2.6487,-2.6487,-2.6487,-2.6512,-2.6487,-2.6487,-2.6487,-2.6487,-2.6487,-2.6487,-2.6487,-2.6487,-2.6424,-2.6235,-2.6172,-2.6084,-2.5959,-2.5862,-2.5749,-2.5352,-2.4941,-2.4344,-2.3916,-2.3603,-2.3191,-2.2491,-2.2148,-2.1771,-2.1238,-2.0946,-2.082,-2.0604,-2.0475,-2.0291,-2.0018,-1.9252,-1.8518,-1.7647,-1.6967,-1.6554,-1.6248,-1.5905,-1.5624,-1.5254,-1.4951,-1.4636,-1.4279,-1.383,-1.3558,-1.3263,-1.2936,-1.2683,-1.2498,-1.2375,-1.2189,-3.353,-3.3729,-3.4064,-3.4298,-3.4421,-3.4677,-3.4823,-3.4932,-3.5223,-3.5172,-3.4997,-3.5177,-3.5064,-3.4724,-3.4335,-3.3985,-3.3571,-3.3312,-3.3124,-3.3124,-3.3124,-3.3124,-3.3124,-3.3124,-3.3124,-3.3124,-3.3124,-3.2855,-3.2541,-3.2478,-3.219,-3.1687,-3.165,-3.1386,-3.0934,-3.0708,-3.0407,-3.0093,-2.9892,-2.9779,-2.9779,-2.9779,-2.9779,-2.9729,-2.9402,-2.9202,-2.9189,-2.885,-2.8536,-2.8411,-2.8373,-2.8298,-2.8097,-2.7745,-2.7544,-2.7507,-2.7241,-2.7027,-2.7027,-2.7027,-2.7027,-2.7014,-2.6851,-2.6763,-2.6751,-2.66,-2.6499,-2.6487,-2.6487,-2.6487,-2.6487,-2.6487,-2.6487,-2.6487,-2.6487,-2.6487,-2.6487,-2.6474,-2.6298,-2.5937,-2.5503,-2.4983,-2.4537,-2.4347,-2.3881,-2.3149,-2.2906,-2.2497,-2.173,-2.141,-2.1158,-2.082,-2.0669,-2.0529,-2.0301,-1.9822,-1.9262,-1.8431,-1.7419,-1.6999,-1.6555,-1.6219,-1.5837,-1.5488,-1.5128,-1.4813,-1.4389,-1.3911,-1.3588,-1.3363,-1.3089,-1.2836,-1.2652,-1.2498,-1.2344,-3.3729,-3.3828,-3.4188,-3.4384,-3.4482,-3.4677,-3.4932,-3.5175,-3.5476,-3.5631,-3.5699,-3.5631,-3.5571,-3.5395,-3.4931,-3.4713,-3.45,-3.3684,-3.3269,-3.33,-3.3219,-3.3262,-3.3232,-3.3237,-3.3162,-3.3124,-3.3124,-3.3111,-3.3048,-3.3023,-3.2717,-3.229,-3.2215,-3.1938,-3.1399,-3.0997,-3.0696,-3.052,-3.0143,-2.9854,-2.9792,-2.9817,-2.9779,-2.9779,-2.9741,-2.9716,-2.9741,-2.9716,-2.9428,-2.9001,-2.8888,-2.8637,-2.8323,-2.8147,-2.8097,-2.8097,-2.8059,-2.8059,-2.8034,-2.7984,-2.7934,-2.7883,-2.7557,-2.7329,-2.7231,-2.6927,-2.6663,-2.67,-2.6663,-2.6587,-2.6575,-2.6575,-2.6549,-2.6487,-2.6487,-2.6487,-2.6487,-2.6487,-2.6487,-2.6389,-2.6164,-2.5949,-2.5484,-2.5041,-2.4563,-2.395,-2.3594,-2.3205,-2.2425,-2.2099,-2.1772,-2.1225,-2.0873,-2.0711,-2.0561,-2.0334,-1.9876,-1.9261,-1.8179,-1.739,-1.6941,-1.655,-1.6035,-1.5644,-1.5196,-1.4843,-1.4309,-1.3851,-1.367,-1.3445,-1.3172,-1.2958,-1.2805,-1.2652,-1.2529,-3.4064,-3.42,-3.4335,-3.4482,-3.4677,-3.4787,-3.4884,-3.4981,-3.5368,-3.5656,-3.5775,-3.6006,-3.6107,-3.5981,-3.5542,-3.5245,-3.5169,-3.4492,-3.4211,-3.4211,-3.4198,-3.4173,-3.411,-3.3809,-3.3445,-3.3174,-3.3124,-3.3124,-3.3124,-3.3124,-3.2968,-3.2842,-3.2792,-3.2503,-3.1976,-3.1788,-3.1562,-3.1122,-3.0633,-3.0357,-3.0319,-2.998,-2.9792,-2.9779,-2.9779,-2.9779,-2.9779,-2.9779,-2.9704,-2.9503,-2.9528,-2.944,-2.9239,-2.8888,-2.8687,-2.8624,-2.8298,-2.8109,-2.8109,-2.8134,-2.816,-2.8097,-2.7934,-2.7871,-2.7846,-2.767,-2.7544,-2.757,-2.7582,-2.7469,-2.7153,-2.7065,-2.6914,-2.6549,-2.6487,-2.6487,-2.6487,-2.6487,-2.6487,-2.6487,-2.6418,-2.6261,-2.599,-2.5662,-2.521,-2.4614,-2.4268,-2.3793,-2.323,-2.2634,-2.219,-2.1807,-2.1403,-2.0937,-2.0722,-2.0529,-2.0191,-1.9736,-1.8846,-1.8003,-1.7476,-1.6842,-1.6313,-1.5732,-1.5293,-1.4813,-1.4249,-1.3911,-1.3739,-1.3528,-1.3316,-1.3141,-1.2958,-1.2805,-1.2644,-3.4298,-3.4433,-3.4543,-3.4628,-3.4775,-3.4775,-3.4835,-3.4981,-3.5271,-3.5512,-3.5668,-3.5943,-3.6121,-3.6011,-3.5712,-3.5528,-3.5478,-3.526,-3.5215,-3.5103,-3.4793,-3.4693,-3.4655,-3.4387,-3.3922,-3.3483,-3.3382,-3.3312,-3.3124,-3.3124,-3.3124,-3.3124,-3.3124,-3.2905,-3.2528,-3.2315,-3.2014,-3.165,-3.1173,-3.0809,-3.0595,-3.0269,-3.0005,-2.9829,-2.9779,-2.9779,-2.9779,-2.9779,-2.9779,-2.9779,-2.9779,-2.9779,-2.9754,-2.944,-2.9252,-2.9151,-2.8963,-2.8762,-2.8737,-2.88,-2.8737,-2.8712,-2.8536,-2.8411,-2.8373,-2.8273,-2.8109,-2.8109,-2.8084,-2.7971,-2.7657,-2.7595,-2.7406,-2.7165,-2.6725,-2.6524,-2.6487,-2.6487,-2.6487,-2.6487,-2.6487,-2.643,-2.6292,-2.6037,-2.574,-2.5249,-2.49,-2.4431,-2.3887,-2.3283,-2.2856,-2.2364,-2.1753,-2.1327,-2.0948,-2.0722,-2.0496,-2.005,-1.9488,-1.8752,-1.8163,-1.7312,-1.6633,-1.5811,-1.5235,-1.4793,-1.4279,-1.4061,-1.3851,-1.3649,-1.3437,-1.3263,-1.308,-1.2897,-1.2736,-3.4433,-3.4433,-3.4677,-3.4775,-3.4775,-3.4775,-3.4932,-3.5114,-3.5223,-3.5368,-3.5512,-3.5656,-3.5668,-3.5633,-3.5595,-3.5582,-3.5644,-3.5761,-3.5782,-3.5618,-3.5185,-3.4815,-3.4806,-3.4801,-3.4474,-3.4022,-3.3872,-3.3608,-3.3275,-3.3162,-3.3124,-3.3124,-3.3124,-3.3068,-3.2918,-3.2516,-3.2315,-3.2215,-3.1725,-3.1223,-3.0821,-3.0608,-3.0369,-2.9892,-2.9817,-2.9779,-2.9779,-2.9779,-2.9779,-2.9779,-2.9779,-2.9779,-2.9779,-2.9779,-2.9729,-2.9716,-2.9767,-2.9679,-2.9729,-2.9603,-2.9628,-2.9566,-2.9214,-2.8938,-2.8888,-2.8649,-2.8423,-2.8411,-2.836,-2.8273,-2.8161,-2.8147,-2.8097,-2.7959,-2.719,-2.6688,-2.6549,-2.6537,-2.6487,-2.6487,-2.6487,-2.6487,-2.6418,-2.6119,-2.5921,-2.5709,-2.5415,-2.4905,-2.4456,-2.3882,-2.3416,-2.2816,-2.2166,-2.1623,-2.1242,-2.0777,-2.0583,-2.0257,-1.9802,-1.9264,-1.8585,-1.7697,-1.6857,-1.6019,-1.5321,-1.4838,-1.4398,-1.4189,-1.3941,-1.367,-1.3498,-1.3363,-1.3211,-1.2989,-1.2828,-3.4677,-3.4677,-3.4775,-3.4775,-3.4775,-3.4775,-3.4823,-3.492,-3.5126,-3.5223,-3.532,-3.5524,-3.5572,-3.5633,-3.5585,-3.5633,-3.562,-3.5668,-3.5716,-3.5692,-3.5517,-3.532,-3.5311,-3.527,-3.4994,-3.4537,-3.4161,-3.3822,-3.3658,-3.3307,-3.3162,-3.3124,-3.3136,-3.3124,-3.3074,-3.2905,-3.2855,-3.278,-3.2277,-3.1938,-3.1675,-3.0997,-3.0557,-3.0394,-3.003,-2.9817,-2.9792,-2.9779,-2.9779,-2.9779,-2.9779,-2.9779,-2.9779,-2.9779,-2.9779,-2.9779,-2.9779,-2.9779,-2.9779,-2.9779,-2.9779,-2.9779,-2.9628,-2.9578,-2.9566,-2.9428,-2.934,-2.9352,-2.934,-2.905,-2.8662,-2.8587,-2.8512,-2.8109,-2.7532,-2.7105,-2.7052,-2.6738,-2.6487,-2.6487,-2.6512,-2.6468,-2.6258,-2.605,-2.584,-2.5676,-2.5441,-2.5205,-2.4778,-2.4295,-2.371,-2.3258,-2.266,-2.2033,-2.148,-2.0989,-2.0659,-2.041,-2.003,-1.9598,-1.8786,-1.7895,-1.7073,-1.6247,-1.5755,-1.5292,-1.4662,-1.4228,-1.398,-1.3744,-1.3549,-1.3407,-1.3294,-1.3111,-1.2958,-3.4775,-3.4775,-3.4775,-3.4775,-3.4775,-3.4775,-3.4775,-3.4823,-3.4981,-3.503,-3.5078,-3.5175,-3.5271,-3.5284,-3.5284,-3.5271,-3.5271,-3.5368,-3.5416,-3.5464,-3.5644,-3.5697,-3.5709,-3.5787,-3.5604,-3.5044,-3.4693,-3.4474,-3.4198,-3.3684,-3.3488,-3.3382,-3.3237,-3.3136,-3.3124,-3.3124,-3.3124,-3.3061,-3.2729,-3.2478,-3.2164,-3.1625,-3.1198,-3.0922,-3.0432,-3.0068,-2.9842,-2.9779,-2.9779,-2.9779,-2.9779,-2.9779,-2.9779,-2.9779,-2.9779,-2.9779,-2.9779,-2.9779,-2.9779,-2.9779,-2.9779,-2.9779,-2.9779,-2.9779,-2.9767,-2.9779,-2.9779,-2.9613,-2.9663,-2.9359,-2.8981,-2.8921,-2.886,-2.8662,-2.8175,-2.7811,-2.7657,-2.7369,-2.7055,-2.6822,-2.6686,-2.6517,-2.6146,-2.591,-2.5758,-2.5571,-2.5394,-2.5218,-2.5004,-2.4508,-2.4038,-2.3537,-2.3075,-2.2446,-2.1857,-2.1341,-2.0918,-2.0643,-2.0053,-1.9663,-1.9051,-1.8143,-1.7468,-1.6784,-1.622,-1.5675,-1.509,-1.4538,-1.4152,-1.3939,-1.3692,-1.3515,-1.3427,-1.34,-1.3182,-3.4787,-3.4775,-3.4787,-3.4775,-3.4775,-3.4775,-3.4775,-3.4775,-3.4823,-3.4775,-3.4787,-3.4775,-3.4775,-3.4738,-3.475,-3.475,-3.4738,-3.4981,-3.5126,-3.5271,-3.556,-3.581,-3.5881,-3.6175,-3.6031,-3.5596,-3.5545,-3.5169,-3.4763,-3.4248,-3.401,-3.3872,-3.347,-3.3219,-3.3262,-3.3187,-3.3124,-3.3124,-3.3074,-3.2792,-3.2441,-3.2139,-3.1825,-3.1449,-3.0821,-3.0357,-3.003,-2.9854,-2.9779,-2.9779,-2.9779,-2.9779,-2.9779,-2.9779,-2.9779,-2.9779,-2.9779,-2.9779,-2.9779,-2.9779,-2.9779,-2.9779,-2.9779,-2.9779,-2.9779,-2.9779,-2.9702,-2.947,-2.938,-2.9316,-2.9108,-2.9094,-2.911,-2.9054,-2.8834,-2.8512,-2.8275,-2.8111,-2.7799,-2.7193,-2.7071,-2.6703,-2.6181,-2.5761,-2.562,-2.5394,-2.5218,-2.5016,-2.4885,-2.4506,-2.4106,-2.3756,-2.3302,-2.2874,-2.2284,-2.1699,-2.1296,-2.0908,-2.0106,-1.9542,-1.9242,-1.8518,-1.7929,-1.7334,-1.6836,-1.6236,-1.5601,-1.5096,-1.4586,-1.4272,-1.4152,-1.3881,-1.3686,-1.3695,-1.3605,-3.4482,-3.4482,-3.4677,-3.4775,-3.4775,-3.4775,-3.4775,-3.4775,-3.4775,-3.4677,-3.4531,-3.4494,-3.4396,-3.4261,-3.431,-3.4261,-3.431,-3.4543,-3.4689,-3.492,-3.5175,-3.5464,-3.5764,-3.6133,-3.6295,-3.6081,-3.5683,-3.5445,-3.5207,-3.4864,-3.455,-3.4474,-3.4022,-3.3709,-3.3658,-3.335,-3.3124,-3.3124,-3.3124,-3.3061,-3.2817,-3.2453,-3.2177,-3.1926,-3.116,-3.0633,-3.0382,-3.0018,-2.9804,-2.9779,-2.9779,-2.9779,-2.9779,-2.9779,-2.9779,-2.9779,-2.9779,-2.9779,-2.9779,-2.9779,-2.9779,-2.9779,-2.9779,-2.9779,-2.9779,-2.9779,-2.965,-2.947,-2.938,-2.9275,-2.9091,-2.8922,-2.9,-2.9081,-2.9034,-2.8938,-2.8779,-2.8313,-2.789,-2.7631,-2.7446,-2.7139,-2.6395,-2.613,-2.5829,-2.5349,-2.504,-2.4825,-2.461,-2.4418,-2.4135,-2.3773,-2.3374,-2.2943,-2.2659,-2.2073,-2.157,-2.1092,-2.0276,-1.9687,-1.9377,-1.8916,-1.8351,-1.7863,-1.7464,-1.6825,-1.6154,-1.5638,-1.5173,-1.4882,-1.4606,-1.4392,-1.4204,-1.4138,-1.4017,-3.4249,-3.4298,-3.4543,-3.464,-3.4628,-3.4726,-3.4775,-3.4787,-3.4677,-3.4531,-3.4384,-3.4298,-3.4223,-3.4125,-3.4075,-3.4113,-3.4113,-3.4286,-3.4482,-3.4677,-3.4969,-3.5271,-3.5464,-3.5943,-3.6275,-3.6307,-3.6081,-3.5931,-3.578,-3.5416,-3.5069,-3.5019,-3.4517,-3.4123,-3.3935,-3.3608,-3.3375,-3.3162,-3.3124,-3.3124,-3.3048,-3.2805,-3.2428,-3.224,-3.1596,-3.1185,-3.0608,-3.0357,-3.0068,-2.9867,-2.9792,-2.9779,-2.9779,-2.9779,-2.9779,-2.9779,-2.9779,-2.9779,-2.9779,-2.9779,-2.9779,-2.9779,-2.9779,-2.9779,-2.9779,-2.9779,-2.9611,-2.9365,-2.9236,-2.917,-2.8867,-2.8736,-2.8776,-2.8922,-2.8961,-2.9,-2.8993,-2.8691,-2.8235,-2.8,-2.7764,-2.7296,-2.6818,-2.6452,-2.6005,-2.5501,-2.5166,-2.4923,-2.4418,-2.42,-2.4007,-2.3677,-2.3346,-2.3042,-2.2881,-2.243,-2.1826,-2.1248,-2.0554,-2.0069,-1.9742,-1.9266,-1.8762,-1.8291,-1.7823,-1.7346,-1.6712,-1.6201,-1.5676,-1.5186,-1.4889,-1.4813,-1.4699,-1.4524,-1.4351,-3.4026,-3.4075,-3.4249,-3.4335,-3.4384,-3.4592,-3.4677,-3.4628,-3.4433,-3.4298,-3.4249,-3.4113,-3.3977,-3.3977,-3.3915,-3.3977,-3.4064,-3.415,-3.4298,-3.4482,-3.4835,-3.5078,-3.532,-3.5668,-3.5955,-3.6263,-3.6295,-3.6342,-3.6182,-3.5931,-3.5667,-3.552,-3.5069,-3.4668,-3.4299,-3.4035,-3.3784,-3.337,-3.3294,-3.3224,-3.3149,-3.3061,-3.278,-3.2491,-3.2152,-3.175,-3.1097,-3.0708,-3.0394,-2.9955,-2.9842,-2.9792,-2.9779,-2.9779,-2.9779,-2.9779,-2.9779,-2.9779,-2.9779,-2.9779,-2.9779,-2.9779,-2.9779,-2.9779,-2.9779,-2.974,-2.9573,-2.9287,-2.9131,-2.8882,-2.855,-2.855,-2.8618,-2.8685,-2.8764,-2.8843,-2.8973,-2.9013,-2.8617,-2.8322,-2.8021,-2.7611,-2.7081,-2.669,-2.6158,-2.5714,-2.5338,-2.4932,-2.4439,-2.3982,-2.3762,-2.3593,-2.3261,-2.2985,-2.2834,-2.2491,-2.1922,-2.1485,-2.0802,-2.0437,-2.0117,-1.9664,-1.9134,-1.8593,-1.8121,-1.7662,-1.7231,-1.6734,-1.6187,-1.5534,-1.5287,-1.5288,-1.5127,-1.4905,-1.4781,-3.3592,-3.3779,-3.4014,-3.4174,-3.4162,-3.4211,-3.4261,-3.4223,-3.4162,-3.4026,-3.3828,-3.3779,-3.363,-3.3481,-3.3431,-3.353,-3.3729,-3.3866,-3.4052,-3.4286,-3.458,-3.4775,-3.5126,-3.5332,-3.5512,-3.58,-3.6073,-3.631,-3.6358,-3.6317,-3.6132,-3.6069,-3.568,-3.5257,-3.5031,-3.4826,-3.4311,-3.3859,-3.3759,-3.3583,-3.3287,-3.3136,-3.3031,-3.2792,-3.2503,-3.2139,-3.1788,-3.1085,-3.057,-3.0444,-3.0043,-2.9842,-2.9779,-2.9779,-2.9779,-2.9779,-2.9779,-2.9779,-2.9779,-2.9779,-2.9779,-2.9779,-2.9779,-2.9779,-2.9779,-2.9779,-2.9624,-2.9353,-2.9,-2.8764,-2.855,-2.851,-2.851,-2.855,-2.859,-2.859,-2.863,-2.8605,-2.8661,-2.8467,-2.8234,-2.7937,-2.7396,-2.6855,-2.6403,-2.5885,-2.544,-2.4915,-2.4352,-2.3862,-2.3512,-2.3331,-2.3176,-2.2931,-2.2761,-2.2366,-2.1937,-2.1681,-2.1172,-2.0801,-2.0425,-2.0007,-1.9507,-1.9089,-1.8554,-1.8045,-1.7649,-1.7213,-1.6729,-1.6127,-1.5953,-1.5791,-1.5601,-1.5377,-1.5351,-3.3181,-3.3342,-3.3729,-3.3878,-3.3927,-3.4075,-3.4075,-3.4075,-3.3977,-3.3828,-3.3668,-3.353,-3.3331,-3.3181,-3.3231,-3.3381,-3.3481,-3.3679,-3.3817,-3.4052,-3.4286,-3.4482,-3.4835,-3.503,-3.5223,-3.5464,-3.5787,-3.6086,-3.6193,-3.631,-3.637,-3.6355,-3.6069,-3.5843,-3.552,-3.5219,-3.4793,-3.4462,-3.4299,-3.4048,-3.3495,-3.3269,-3.3149,-3.3023,-3.2805,-3.2528,-3.2139,-3.1838,-3.116,-3.0696,-3.0369,-3.008,-2.9892,-2.9779,-2.9779,-2.9779,-2.9779,-2.9779,-2.9779,-2.9779,-2.9779,-2.9779,-2.9779,-2.9779,-2.9779,-2.974,-2.9624,-2.9287,-2.9028,-2.8724,-2.851,-2.851,-2.851,-2.851,-2.851,-2.851,-2.8471,-2.8379,-2.8407,-2.8486,-2.8255,-2.7933,-2.7542,-2.7046,-2.6622,-2.6125,-2.5537,-2.497,-2.4347,-2.3955,-2.3614,-2.3222,-2.3067,-2.2777,-2.2628,-2.2339,-2.2008,-2.1739,-2.1502,-2.113,-2.0792,-2.0404,-2.0046,-1.9671,-1.9123,-1.8546,-1.7964,-1.7487,-1.7123,-1.67,-1.6384,-1.6105,-1.5956,-1.5859,-1.5753,-3.2779,-3.293,-3.3381,-3.358,-3.3679,-3.3828,-3.3927,-3.3878,-3.3729,-3.363,-3.358,-3.3381,-3.3181,-3.298,-3.3081,-3.3231,-3.3231,-3.3481,-3.363,-3.3767,-3.4052,-3.4249,-3.4494,-3.4738,-3.503,-3.503,-3.5368,-3.5668,-3.592,-3.6146,-3.6275,-3.6298,-3.6298,-3.6169,-3.5793,-3.573,-3.5307,-3.5006,-3.4831,-3.4587,-3.3947,-3.3495,-3.3212,-3.3136,-3.3124,-3.2842,-3.2491,-3.219,-3.175,-3.1173,-3.0733,-3.0407,-3.003,-2.9854,-2.9792,-2.9779,-2.9779,-2.9779,-2.9779,-2.9779,-2.9779,-2.9779,-2.9779,-2.9779,-2.9779,-2.974,-2.9624,-2.9182,-2.8973,-2.8764,-2.855,-2.851,-2.851,-2.851,-2.851,-2.8471,-2.8391,-2.8299,-2.8127,-2.8127,-2.8099,-2.7851,-2.7406,-2.714,-2.6691,-2.6237,-2.5648,-2.5289,-2.4686,-2.4327,-2.3892,-2.3302,-2.2907,-2.2622,-2.244,-2.2365,-2.2093,-2.1853,-2.1701,-2.1438,-2.1156,-2.0866,-2.0524,-2.0247,-1.9631,-1.9058,-1.8429,-1.7773,-1.7298,-1.6874,-1.6595,-1.6316,-1.6105,-1.5964,-1.5894,-3.2392,-3.288,-3.298,-3.3142,-3.3331,-3.3442,-3.3381,-3.3431,-3.3381,-3.3331,-3.3392,-3.3281,-3.3131,-3.293,-3.288,-3.293,-3.3031,-3.3231,-3.3431,-3.363,-3.3779,-3.3977,-3.4113,-3.4335,-3.4543,-3.464,-3.503,-3.5368,-3.5572,-3.586,-3.6051,-3.6098,-3.6263,-3.6342,-3.6182,-3.6132,-3.5968,-3.5495,-3.5382,-3.4906,-3.4135,-3.3847,-3.352,-3.3287,-3.3124,-3.3074,-3.283,-3.2528,-3.2114,-3.1913,-3.1085,-3.0658,-3.0444,-3.003,-2.9842,-2.9779,-2.9779,-2.9779,-2.9779,-2.9779,-2.9779,-2.9779,-2.9779,-2.9779,-2.9779,-2.9753,-2.9585,-2.9182,-2.9052,-2.8895,-2.863,-2.851,-2.851,-2.8471,-2.8471,-2.8379,-2.8259,-2.8099,-2.7926,-2.7805,-2.7725,-2.7522,-2.7191,-2.6981,-2.6712,-2.6255,-2.5809,-2.5429,-2.5018,-2.4605,-2.4163,-2.3545,-2.2993,-2.2702,-2.2368,-2.2233,-2.2084,-2.1932,-2.18,-2.1648,-2.1455,-2.1259,-2.1118,-2.0766,-2.0191,-1.9662,-1.9092,-1.8405,-1.7562,-1.7176,-1.7096,-1.6669,-1.614,-1.6087,-1.6156,-3.2139,-3.2667,-3.2841,-3.3042,-3.3281,-3.3281,-3.3281,-3.3281,-3.3281,-3.3281,-3.3281,-3.3281,-3.3142,-3.2891,-3.2566,-3.2505,-3.2667,-3.293,-3.3142,-3.3331,-3.353,-3.3729,-3.3878,-3.4113,-3.4211,-3.431,-3.4543,-3.4726,-3.5078,-3.5476,-3.5824,-3.6003,-3.6098,-3.6275,-3.637,-3.6417,-3.6279,-3.5968,-3.5692,-3.527,-3.4756,-3.4261,-3.3796,-3.3533,-3.3244,-3.3119,-3.3048,-3.2893,-3.2503,-3.2265,-3.1662,-3.121,-3.0758,-3.0369,-3.0156,-2.9779,-2.9779,-2.9779,-2.9779,-2.9779,-2.9779,-2.9779,-2.9779,-2.9779,-2.9779,-2.9792,-2.9663,-2.9314,-2.917,-2.8973,-2.8736,-2.859,-2.851,-2.8471,-2.8419,-2.8299,-2.8139,-2.7886,-2.7684,-2.7563,-2.74,-2.7196,-2.7033,-2.6839,-2.6644,-2.6276,-2.5915,-2.5593,-2.5168,-2.4701,-2.4234,-2.3741,-2.3239,-2.2832,-2.2436,-2.2161,-2.2032,-2.1877,-2.1845,-2.1773,-2.1735,-2.1621,-2.1476,-2.1267,-2.0858,-2.0315,-1.9766,-1.9098,-1.8366,-1.7981,-1.7686,-1.7261,-1.6893,-1.6708,-1.6711,-3.2037,-3.2505,-3.2718,-3.2969,-3.3281,-3.3281,-3.3281,-3.3281,-3.3281,-3.3281,-3.3231,-3.3119,-3.2969,-3.2718,-3.2291,-3.219,-3.2392,-3.2667,-3.2779,-3.298,-3.3181,-3.3381,-3.353,-3.3729,-3.3927,-3.4026,-3.4249,-3.4396,-3.464,-3.4981,-3.5428,-3.5812,-3.5968,-3.6098,-3.6275,-3.6358,-3.6367,-3.6317,-3.5968,-3.5646,-3.532,-3.4705,-3.4248,-3.3859,-3.3533,-3.3219,-3.3149,-3.3099,-3.278,-3.2554,-3.2215,-3.1738,-3.1235,-3.0758,-3.0432,-3.008,-2.9942,-2.9779,-2.9779,-2.9779,-2.9779,-2.9779,-2.9779,-2.9779,-2.9779,-2.9779,-2.9689,-2.938,-2.9275,-2.9079,-2.8843,-2.8645,-2.859,-2.8498,-2.8379,-2.8259,-2.8111,-2.7857,-2.7615,-2.7412,-2.7249,-2.7003,-2.6839,-2.6685,-2.6479,-2.6188,-2.5944,-2.5699,-2.5371,-2.4945,-2.4621,-2.4178,-2.3665,-2.3228,-2.2867,-2.2455,-2.2216,-2.1911,-2.189,-2.1818,-2.1797,-2.1787,-2.1704,-2.1515,-2.1316,-2.1073,-2.0606,-1.9895,-1.9168,-1.8649,-1.8227,-1.8036,-1.774,-1.753,-1.7299,-3.219,-3.2493,-3.2493,-3.2869,-3.3281,-3.3281,-3.3281,-3.3281,-3.3281,-3.3281,-3.3231,-3.2807,-3.2594,-3.2443,-3.219,-3.1975,-3.2066,-3.2381,-3.2493,-3.2544,-3.2594,-3.2818,-3.3031,-3.3281,-3.3481,-3.3679,-3.3965,-3.42,-3.4335,-3.4482,-3.4884,-3.5235,-3.5668,-3.5908,-3.6098,-3.6241,-3.6358,-3.6358,-3.6267,-3.5994,-3.5683,-3.5257,-3.4856,-3.4148,-3.3859,-3.3621,-3.3174,-3.3136,-3.3086,-3.288,-3.2554,-3.2227,-3.1775,-3.1223,-3.0821,-3.0545,-3.0231,-3.0093,-3.0055,-2.988,-2.9779,-2.9779,-2.9779,-2.9779,-2.9779,-2.9779,-2.965,-2.947,-2.9392,-2.9184,-2.8949,-2.8752,-2.8657,-2.8498,-2.8379,-2.8231,-2.807,-2.7909,-2.7626,-2.7342,-2.7138,-2.6974,-2.685,-2.6727,-2.6396,-2.6104,-2.6021,-2.5786,-2.571,-2.5382,-2.5107,-2.4708,-2.4162,-2.3767,-2.3452,-2.3052,-2.2619,-2.2271,-2.2108,-2.1952,-2.1807,-2.1818,-2.1807,-2.1738,-2.1576,-2.1514,-2.1359,-2.0547,-1.9807,-1.9137,-1.8758,-1.8667,-1.8336,-1.7946,-1.7784,-3.2291,-3.2718,-3.2718,-3.298,-3.3281,-3.3281,-3.3281,-3.3281,-3.3281,-3.3281,-3.3281,-3.2768,-3.2493,-3.2392,-3.1975,-3.1772,-3.1772,-3.2066,-3.2179,-3.2291,-3.2392,-3.2555,-3.2768,-3.288,-3.3142,-3.3281,-3.363,-3.3878,-3.3953,-3.4188,-3.4433,-3.4823,-3.5284,-3.5572,-3.5764,-3.6015,-3.6181,-3.637,-3.637,-3.6207,-3.6081,-3.5633,-3.5295,-3.4944,-3.4073,-3.3872,-3.3571,-3.3244,-3.3131,-3.3061,-3.2817,-3.2566,-3.229,-3.175,-3.1411,-3.1135,-3.0796,-3.0696,-3.0532,-3.0206,-2.9792,-2.9779,-2.9779,-2.9804,-2.9842,-2.9804,-2.9792,-2.965,-2.947,-2.9275,-2.9079,-2.8882,-2.8724,-2.8538,-2.8351,-2.8191,-2.803,-2.7869,-2.7667,-2.7342,-2.719,-2.7067,-2.6933,-2.6809,-2.6396,-2.6021,-2.5979,-2.5884,-2.5797,-2.5753,-2.5496,-2.5272,-2.4753,-2.4347,-2.4069,-2.3549,-2.3002,-2.2704,-2.2436,-2.218,-2.2004,-2.1818,-2.1818,-2.1807,-2.1769,-2.1672,-2.1418,-2.1007,-2.0494,-1.9922,-1.9621,-1.9448,-1.8996,-1.8383,-1.8231,-3.2505,-3.2891,-3.2992,-3.3131,-3.3281,-3.3281,-3.3281,-3.3281,-3.3281,-3.3231,-3.3131,-3.2706,-3.2443,-3.224,-3.1874,-3.1618,-3.168,-3.1823,-3.1863,-3.1975,-3.2088,-3.2291,-3.2392,-3.2505,-3.2667,-3.2818,-3.3181,-3.3481,-3.3618,-3.4003,-3.4249,-3.4482,-3.4775,-3.5126,-3.5476,-3.5777,-3.6003,-3.6133,-3.6181,-3.6168,-3.6046,-3.5843,-3.5515,-3.5353,-3.4743,-3.4236,-3.3922,-3.3533,-3.3282,-3.3199,-3.3036,-3.2842,-3.2566,-3.2277,-3.2014,-3.1738,-3.1486,-3.1411,-3.1173,-3.0809,-3.0269,-3.0407,-3.0143,-3.0105,-3.0018,-2.9917,-2.9792,-2.9779,-2.9611,-2.9443,-2.9221,-2.904,-2.8843,-2.8657,-2.8471,-2.8271,-2.807,-2.7909,-2.7626,-2.7383,-2.726,-2.7108,-2.6933,-2.6809,-2.652,-2.6146,-2.5979,-2.5895,-2.5874,-2.5841,-2.5788,-2.5574,-2.5308,-2.5004,-2.4669,-2.4072,-2.3562,-2.3356,-2.3045,-2.255,-2.2283,-2.2097,-2.188,-2.1807,-2.1769,-2.1731,-2.1555,-2.1301,-2.1036,-2.0701,-2.0333,-1.9907,-1.9478,-1.8906,-1.8664,-3.2891,-3.293,-3.3192,-3.3281,-3.3342,-3.3281,-3.3281,-3.3281,-3.3281,-3.3131,-3.293,-3.2606,-3.2291,-3.2026,-3.1721,-3.1618,-3.1567,-3.1629,-3.1618,-3.1669,-3.1772,-3.1823,-3.1975,-3.2128,-3.2291,-3.2505,-3.2818,-3.3131,-3.3331,-3.363,-3.3965,-3.4249,-3.4445,-3.4726,-3.5175,-3.5464,-3.562,-3.5608,-3.5656,-3.5716,-3.574,-3.5808,-3.5655,-3.545,-3.5207,-3.4748,-3.4361,-3.3872,-3.3583,-3.3307,-3.3119,-3.3018,-3.293,-3.2516,-3.229,-3.2215,-3.1763,-3.1537,-3.1424,-3.1373,-3.1311,-3.111,-3.0733,-3.0608,-3.0495,-3.0231,-2.993,-3.0043,-2.9878,-2.9661,-2.9468,-2.9236,-2.9,-2.8776,-2.8578,-2.8391,-2.8151,-2.799,-2.7788,-2.7586,-2.7353,-2.7149,-2.6933,-2.6757,-2.6561,-2.6271,-2.6021,-2.5937,-2.5979,-2.5948,-2.5937,-2.5852,-2.567,-2.544,-2.506,-2.4555,-2.4147,-2.3949,-2.3606,-2.3058,-2.2697,-2.2532,-2.2283,-2.1983,-2.2007,-2.2224,-2.195,-2.1647,-2.1343,-2.1043,-2.0586,-2.0187,-1.9784,-1.9359,-1.9042,-3.3131,-3.3431,-3.353,-3.358,-3.353,-3.3392,-3.3281,-3.3292,-3.3131,-3.298,-3.283,-3.2392,-3.2128,-3.1924,-3.1721,-3.1567,-3.1567,-3.1567,-3.1567,-3.1567,-3.1567,-3.1629,-3.1772,-3.1924,-3.2066,-3.2229,-3.2505,-3.2779,-3.3031,-3.3331,-3.358,-3.3866,-3.4211,-3.4592,-3.503,-3.532,-3.5416,-3.5572,-3.562,-3.562,-3.562,-3.5656,-3.5726,-3.5633,-3.5441,-3.5169,-3.4818,-3.4317,-3.3834,-3.352,-3.3332,-3.3124,-3.3124,-3.2754,-3.2754,-3.2767,-3.2546,-3.2516,-3.2516,-3.2453,-3.2102,-3.1675,-3.1286,-3.1135,-3.1072,-3.0984,-3.0708,-3.0432,-3.0344,-3.0063,-2.953,-2.9378,-2.917,-2.8882,-2.8645,-2.8459,-2.8299,-2.8179,-2.803,-2.7881,-2.765,-2.7505,-2.729,-2.7097,-2.6891,-2.6768,-2.6561,-2.6396,-2.6354,-2.6199,-2.6115,-2.6063,-2.5893,-2.5748,-2.5462,-2.5018,-2.4576,-2.4283,-2.395,-2.3535,-2.3225,-2.2998,-2.2842,-2.2625,-2.2677,-2.2718,-2.2503,-2.2189,-2.169,-2.1288,-2.0987,-2.0439,-1.9872,-1.9478,-1.9121,-3.2715,-3.3059,-3.3047,-3.3047,-3.3068,-3.333,-3.3381,-3.3292,-3.298,-3.2841,-3.2667,-3.2229,-3.1924,-3.1823,-3.1669,-3.1567,-3.1567,-3.1567,-3.1567,-3.1567,-3.1567,-3.1629,-3.1669,-3.1772,-3.1812,-3.1975,-3.2179,-3.2454,-3.2617,-3.298,-3.3381,-3.3729,-3.3988,-3.431,-3.4701,-3.4799,-3.4896,-3.5042,-3.5078,-3.5175,-3.5271,-3.5428,-3.5524,-3.5593,-3.5538,-3.5463,-3.5169,-3.4685,-3.4085,-3.3834,-3.3458,-3.3149,-3.3124,-3.3124,-3.3124,-3.3124,-3.3124,-3.3086,-3.3048,-3.3048,-3.2591,-3.2206,-3.1838,-3.1687,-3.1599,-3.1411,-3.1185,-3.0972,-3.0909,-3.0603,-3.0159,-2.9995,-2.9599,-2.9334,-2.8952,-2.8766,-2.8574,-2.8455,-2.8219,-2.8082,-2.7933,-2.7788,-2.7655,-2.7505,-2.7313,-2.7231,-2.7149,-2.6933,-2.6727,-2.652,-2.6365,-2.6271,-2.6146,-2.5979,-2.577,-2.5505,-2.5061,-2.4619,-2.4284,-2.3992,-2.366,-2.3422,-2.335,-2.3246,-2.3111,-2.3029,-2.3039,-2.2764,-2.2308,-2.1928,-2.164,-2.0996,-2.0106,-1.9732,-1.943,-3.1825,-3.1813,-3.1825,-3.1907,-3.2045,-3.301,-3.3388,-3.3269,-3.2992,-3.2718,-3.2443,-3.2128,-3.1874,-3.1618,-3.1567,-3.1567,-3.1567,-3.1567,-3.1567,-3.1567,-3.1567,-3.1567,-3.1567,-3.1618,-3.1669,-3.1721,-3.1874,-3.2088,-3.2139,-3.2718,-3.3231,-3.358,-3.379,-3.4026,-3.4125,-3.4162,-3.431,-3.4494,-3.4592,-3.4677,-3.4835,-3.5017,-3.5175,-3.5319,-3.5485,-3.5526,-3.5329,-3.4919,-3.448,-3.4022,-3.3483,-3.3219,-3.3093,-3.3124,-3.3124,-3.3124,-3.3124,-3.3124,-3.3124,-3.3124,-3.3099,-3.2759,-3.2478,-3.2315,-3.2152,-3.1938,-3.1712,-3.1524,-3.1424,-3.1361,-3.1195,-3.076,-3.0328,-2.9918,-2.9423,-2.9166,-2.8897,-2.869,-2.8391,-2.8231,-2.8042,-2.7921,-2.7881,-2.78,-2.7679,-2.7598,-2.7516,-2.7353,-2.7097,-2.6798,-2.6633,-2.652,-2.6396,-2.6188,-2.5979,-2.5728,-2.5379,-2.4882,-2.4756,-2.4493,-2.4158,-2.3867,-2.3805,-2.367,-2.3401,-2.3308,-2.336,-2.3237,-2.2971,-2.2605,-2.213,-2.1477,-2.0604,-2.0311,-1.9978,-3.1897,-3.198,-3.2028,-3.2028,-3.2027,-3.2027,-3.2408,-3.2935,-3.2718,-3.2443,-3.2128,-3.1874,-3.168,-3.1629,-3.1567,-3.1567,-3.1567,-3.1567,-3.1567,-3.1567,-3.1567,-3.1567,-3.1567,-3.1567,-3.1567,-3.1618,-3.1721,-3.1823,-3.2077,-3.2617,-3.2891,-3.3131,-3.3442,-3.353,-3.358,-3.353,-3.3817,-3.4064,-3.415,-3.4347,-3.4482,-3.4628,-3.4872,-3.5175,-3.5368,-3.5448,-3.5583,-3.5217,-3.4807,-3.4417,-3.3935,-3.3571,-3.3124,-3.3124,-3.3124,-3.3124,-3.3124,-3.3124,-3.3124,-3.3124,-3.3124,-3.3124,-3.2923,-3.2893,-3.278,-3.2579,-3.2344,-3.2114,-3.1964,-3.1913,-3.1712,-3.1329,-3.1048,-3.0686,-3.0202,-2.9822,-2.9579,-2.9285,-2.9012,-2.8671,-2.8511,-2.8231,-2.8191,-2.8082,-2.8002,-2.7921,-2.7841,-2.7719,-2.7464,-2.7167,-2.6951,-2.6839,-2.6561,-2.6365,-2.6115,-2.5853,-2.5559,-2.5232,-2.5062,-2.484,-2.4459,-2.4197,-2.4197,-2.4084,-2.3877,-2.3784,-2.3712,-2.3588,-2.3474,-2.2859,-2.2361,-2.1752,-2.1226,-2.0847,-2.0441,-3.1157,-3.1321,-3.1367,-3.1425,-3.1468,-3.1219,-3.1456,-3.1937,-3.2012,-3.1901,-3.1721,-3.1633,-3.1567,-3.1578,-3.1567,-3.1567,-3.1567,-3.1567,-3.1567,-3.1567,-3.1567,-3.1567,-3.1567,-3.1567,-3.1567,-3.1567,-3.1618,-3.1721,-3.1975,-3.2291,-3.2566,-3.2942,-3.3092,-3.3192,-3.3292,-3.3381,-3.3481,-3.3729,-3.3927,-3.4113,-3.4298,-3.4384,-3.4677,-3.4981,-3.5126,-3.5464,-3.575,-3.5375,-3.5039,-3.466,-3.4198,-3.3658,-3.3237,-3.3124,-3.3124,-3.3124,-3.3124,-3.3124,-3.3124,-3.3124,-3.3124,-3.3124,-3.3124,-3.3099,-3.3099,-3.296,-3.281,-3.2616,-3.2554,-3.2441,-3.2152,-3.1888,-3.1718,-3.1506,-3.105,-3.0595,-3.0288,-3.0007,-2.9665,-2.93,-2.8982,-2.8706,-2.8538,-2.8403,-2.8351,-2.8339,-2.8299,-2.8179,-2.7857,-2.7522,-2.7319,-2.7208,-2.685,-2.6531,-2.6282,-2.5979,-2.5675,-2.538,-2.5158,-2.4946,-2.4668,-2.4476,-2.4373,-2.4394,-2.4425,-2.4291,-2.4074,-2.4084,-2.3948,-2.3295,-2.281,-2.2441,-2.1884,-2.1294,-2.081,-2.9977,-3.0171,-3.017,-3.0354,-3.051,-3.045,-3.0485,-3.0559,-3.0953,-3.118,-3.123,-3.1447,-3.1458,-3.1425,-3.1502,-3.1567,-3.1567,-3.1567,-3.1567,-3.1567,-3.1567,-3.1567,-3.1567,-3.1567,-3.1567,-3.1567,-3.1618,-3.1618,-3.1669,-3.1975,-3.2403,-3.2841,-3.2942,-3.3042,-3.3292,-3.3281,-3.3381,-3.3431,-3.3679,-3.3915,-3.4249,-3.4384,-3.4531,-3.4823,-3.503,-3.5259,-3.545,-3.533,-3.5043,-3.469,-3.4242,-3.374,-3.3282,-3.3124,-3.3124,-3.3124,-3.3124,-3.3124,-3.3124,-3.3124,-3.3124,-3.3124,-3.3124,-3.3124,-3.3124,-3.3124,-3.2998,-3.296,-3.283,-3.2817,-3.2591,-3.2428,-3.2286,-3.2081,-3.1697,-3.1381,-3.1112,-3.0766,-3.0359,-3.0016,-2.9763,-2.9471,-2.9175,-2.908,-2.8878,-2.8861,-2.8685,-2.8526,-2.8287,-2.7874,-2.7603,-2.7452,-2.7126,-2.6727,-2.6479,-2.6188,-2.5801,-2.5496,-2.5285,-2.4956,-2.4583,-2.4497,-2.4507,-2.4507,-2.4507,-2.4507,-2.4404,-2.4373,-2.4214,-2.3811,-2.3355,-2.3201,-2.2616,-2.1817,-2.1188,-2.9623,-2.9658,-2.9669,-2.9702,-2.9746,-2.9526,-2.9464,-2.9479,-2.9811,-3.0143,-3.0466,-3.0821,-3.1072,-3.1094,-3.1433,-3.1502,-3.1524,-3.1545,-3.1567,-3.1567,-3.1567,-3.1567,-3.1567,-3.1567,-3.1567,-3.1567,-3.1567,-3.1567,-3.1669,-3.1874,-3.2179,-3.2606,-3.2768,-3.3042,-3.3292,-3.3281,-3.3281,-3.3381,-3.358,-3.3878,-3.415,-3.4249,-3.4359,-3.4689,-3.492,-3.5066,-3.521,-3.5246,-3.5174,-3.4963,-3.4508,-3.3883,-3.3156,-3.3106,-3.3124,-3.3124,-3.3081,-3.3124,-3.3124,-3.3124,-3.3124,-3.3124,-3.3124,-3.3124,-3.3124,-3.3124,-3.3124,-3.3124,-3.3124,-3.3124,-3.3086,-3.2948,-3.278,-3.2536,-3.2348,-3.2118,-3.1943,-3.1518,-3.1042,-3.0786,-3.0532,-3.022,-2.9936,-2.9711,-2.9472,-2.9233,-2.8904,-2.8685,-2.8566,-2.8247,-2.7805,-2.7615,-2.7319,-2.6992,-2.6715,-2.6385,-2.5968,-2.5549,-2.5242,-2.4914,-2.454,-2.4497,-2.4507,-2.4507,-2.4507,-2.4507,-2.4497,-2.4476,-2.4251,-2.3927,-2.3624,-2.3319,-2.2794,-2.2042,-2.1519,-2.9393,-2.9485,-2.9531,-2.9439,-2.9312,-2.9174,-2.8989,-2.8811,-2.8958,-2.9171,-2.9519,-3.0182,-3.0592,-3.0657,-3.1083,-3.1313,-3.1367,-3.1542,-3.1545,-3.1567,-3.1567,-3.1567,-3.1567,-3.1465,-3.1424,-3.1424,-3.1424,-3.1465,-3.1567,-3.1863,-3.2179,-3.2493,-3.2768,-3.3042,-3.3231,-3.3281,-3.3369,-3.3481,-3.363,-3.3866,-3.4162,-3.4249,-3.4408,-3.4677,-3.4823,-3.4969,-3.5078,-3.5199,-3.5098,-3.4804,-3.4218,-3.3719,-3.3146,-3.3015,-3.2921,-3.2952,-3.3038,-3.3124,-3.3124,-3.3124,-3.3124,-3.3124,-3.3124,-3.3124,-3.3124,-3.3124,-3.3124,-3.3124,-3.3124,-3.3124,-3.3124,-3.3023,-3.3011,-3.2842,-3.278,-3.2667,-3.2411,-3.2093,-3.1785,-3.1581,-3.129,-3.0929,-3.0717,-3.0692,-3.04,-2.9841,-2.9472,-2.9041,-2.8846,-2.865,-2.8186,-2.7777,-2.7493,-2.7126,-2.6685,-2.6437,-2.6135,-2.5759,-2.5285,-2.4914,-2.4625,-2.454,-2.4507,-2.4507,-2.4507,-2.4507,-2.4497,-2.4454,-2.4229,-2.3884,-2.3624,-2.3363,-2.2794,-2.2176,-2.165,-2.8986,-2.9293,-2.9247,-2.9165,-2.9035,-2.8943,-2.871,-2.8395,-2.8358,-2.8369,-2.8556,-2.9482,-2.9905,-3.0264,-3.0592,-3.0766,-3.0985,-3.1269,-3.1393,-3.1556,-3.1567,-3.1516,-3.1424,-3.1333,-3.123,-3.123,-3.123,-3.1384,-3.1527,-3.1823,-3.2179,-3.2493,-3.2768,-3.3031,-3.3231,-3.3331,-3.3481,-3.363,-3.3828,-3.4052,-3.4237,-3.4433,-3.458,-3.4677,-3.4823,-3.4932,-3.5078,-3.5102,-3.4967,-3.4717,-3.417,-3.3625,-3.3227,-3.3001,-3.2773,-3.2798,-3.2909,-3.2952,-3.3038,-3.3068,-3.3081,-3.3124,-3.3124,-3.3124,-3.3124,-3.3124,-3.3124,-3.3124,-3.3124,-3.3124,-3.3124,-3.3124,-3.3124,-3.3124,-3.3099,-3.3074,-3.2805,-3.2604,-3.2466,-3.2261,-3.1985,-3.1621,-3.1471,-3.1499,-3.1126,-3.0589,-3.0131,-2.9619,-2.9236,-2.8947,-2.8578,-2.8084,-2.7708,-2.726,-2.6727,-2.6479,-2.6302,-2.5759,-2.5295,-2.4956,-2.4668,-2.4583,-2.4507,-2.4507,-2.4507,-2.4497,-2.4421,-2.4335,-2.4067,-2.3797,-2.3493,-2.3188,-2.2662,-2.2087,-2.1633,-2.7728,-2.8258,-2.8122,-2.8202,-2.8491,-2.8315,-2.8139,-2.8081,-2.8092,-2.8092,-2.8156,-2.8278,-2.8778,-2.9652,-3.0122,-3.0428,-3.0701,-3.0996,-3.1334,-3.1564,-3.1505,-3.1414,-3.1322,-3.1127,-3.1086,-3.1034,-3.1034,-3.123,-3.1424,-3.1772,-3.2167,-3.2493,-3.2779,-3.3031,-3.3281,-3.3431,-3.363,-3.3828,-3.4064,-3.4298,-3.4335,-3.4482,-3.458,-3.4677,-3.4823,-3.4823,-3.4884,-3.4872,-3.4969,-3.4907,-3.4597,-3.3968,-3.351,-3.3174,-3.2961,-3.2852,-3.2897,-3.3003,-3.3084,-3.3114,-3.3158,-3.3151,-3.3181,-3.3124,-3.3124,-3.3124,-3.3124,-3.3124,-3.3124,-3.3124,-3.3124,-3.3124,-3.3124,-3.3124,-3.3111,-3.3111,-3.2955,-3.2918,-3.2855,-3.2805,-3.2717,-3.2378,-3.2077,-3.1989,-3.1813,-3.1322,-3.0975,-3.0486,-2.9824,-2.9436,-2.9008,-2.8452,-2.7911,-2.7301,-2.6757,-2.6644,-2.6385,-2.5843,-2.5338,-2.4999,-2.4711,-2.454,-2.4507,-2.4507,-2.4454,-2.4454,-2.4325,-2.4206,-2.398,-2.3667,-2.3363,-2.2969,-2.2485,-2.1998,-2.1553]},{"header":{"parameterUnit":"m.s-1","parameterCategory":1,"la1":31.0,"la2":29.5877,"lo1":-88.7671,"lo2":-86.6584,"dy":0.0162,"dx":0.0185,"nx":115,"ny":88,"refTime":"2023-09-03T18:00:00:Z","depth":0,"parameterNumber":3,"parameterNumberName":"V-component_of_WINDS"},"data":[0.0,0.0,0.0,0.0,0.0,0.0,0.0,0.0,0.0,0.0,0.0,0.0,0.0,0.0,0.0,0.0,0.0,0.0,0.0,0.0,0.0,0.0,0.0,0.0,0.0,0.0,0.0,0.0,0.0,0.0,0.0,0.0,0.0,0.0,0.0,0.0,0.0,0.0,0.0,0.0,0.0,0.0,0.0,0.0,0.0,0.0,0.0,0.0,0.0,0.0,0.0,0.0,0.0,0.0,0.0,0.0,0.0,0.0,0.0,0.0,0.0,0.0,0.0,0.0,0.0,0.0,0.0,0.0,0.0,0.0,0.0,0.0,0.0,0.0,0.0,0.0,0.0,0.0,0.0,0.0,0.0,0.0,0.0,0.0,0.0,0.0,0.0,0.0,0.0,0.0,0.0,0.0,0.0,0.0,0.0,0.0,0.0,0.0,0.0,0.0,0.0,0.0,0.0,0.0,0.0,0.0,0.0,0.0,0.0,0.0,0.0,0.0,0.0,0.0,0.0,0.0,0.0,0.0,0.0,0.0,0.0,0.0,0.0,0.0,0.0,0.0,0.0,0.0,0.0,0.0,0.0,0.0,0.0,0.0,0.0,0.0,0.0,0.0,0.0,0.0,0.0,0.0,0.0,0.0,0.0,0.0,0.0,0.0,0.0,0.0,0.0,0.0,0.0,0.0,0.0,0.0,0.0,0.0,0.0,0.0,0.0,0.0,0.0,0.0,0.0,0.0,0.0,0.0,0.0,0.0,0.0,0.0,0.0,0.0,0.0,0.0,0.0,0.0,0.0,0.0,0.0,0.0,0.0,0.0,0.0,0.0,0.0,0.0,0.0,0.0,0.0,0.0,0.0,0.0,0.0,0.0,0.0,0.0,0.0,0.0,0.0,0.0,0.0,0.0,0.0,0.0,0.0,0.0,0.0,0.0,0.0,0.0,0.0,0.0,0.0,0.0,0.0,0.0,0.0,0.0,0.0,0.0,0.0,0.0,0.0,0.0,0.0,0.0,0.0,0.0,0.0,0.0,0.0,0.0,0.0,0.0,0.0,0.0,0.0,0.0,0.0,0.0,0.0,0.0,0.0,0.0,0.0,0.0,0.0,0.0,0.0,0.0,0.0,0.0,0.0,0.0,0.0,0.0,0.0,0.0,0.0,0.0,0.0,0.0,0.0,0.0,0.0,0.0,0.0,0.0,0.0,0.0,0.0,0.0,0.0,0.0,0.0,0.0,0.0,0.0,0.0,0.0,0.0,0.0,0.0,0.0,0.0,0.0,0.0,0.0,0.0,0.0,0.0,0.0,0.0,0.0,0.0,0.0,0.0,0.0,0.0,0.0,0.0,0.0,0.0,0.0,0.0,0.0,0.0,0.0,0.0,0.0,0.0,0.0,0.0,0.0,0.0,0.0,0.0,0.0,0.0,0.0,0.0,0.0,0.0,0.0,0.0,0.0,0.0,0.0,0.0,0.0,0.0,0.0,0.0,0.0,0.0,0.0,0.0,0.0,0.0,0.0,0.0,0.0,0.0,0.0,0.0,0.0,0.0,0.0,0.0,0.0,0.0,0.0,0.0,0.0,0.0,0.0,0.0,0.0,0.0,0.0,0.0,0.0,0.0,0.0,0.0,0.0,0.0,0.0,0.0,0.0,0.0,0.0,0.0,0.0,0.0,0.0,0.0,0.0,0.0,0.0,0.0,0.0,0.0,0.0,0.0,0.0,0.0,0.0,0.0,0.0,0.0,0.0,0.0,0.0,0.0,0.0,0.0,0.0,0.0,0.0,0.0,0.0,0.0,0.0,0.0,0.0,0.0,0.0,0.0,0.0,0.0,0.0,0.0,0.0,0.0,0.0,0.0,0.0,0.0,0.0,0.0,0.0,0.0,0.0,0.0,0.0,0.0,0.0,0.0,0.0,0.0,0.0,0.0,0.0,0.0,0.0,0.0,0.0,0.0,0.0,0.0,0.0,0.0,0.0,0.0,0.0,0.0,0.0,0.0,0.0,0.0,0.0,0.0,0.0,0.0,0.0,0.0,0.0,0.0,0.0,0.0,0.0,0.0,0.0,0.0,0.0,0.0,0.0,0.0,0.0,0.0,0.0,0.0,0.0,0.0,0.0,0.0,0.0,0.0,0.0,0.0,0.0,0.0,0.0,0.0,0.0,0.0,0.0,0.0,0.0,0.0,0.0,0.0,0.0,0.0,0.0,0.0,0.0,0.0,0.0,0.0,0.0,0.0,0.0,0.0,0.0,0.0,0.0,0.0,0.0,0.0,0.0,0.0,0.0,0.0,0.0,0.0,0.0,0.0,0.0,0.0,0.0,0.0,0.0,0.0,0.0,0.0,0.0,0.0,0.0,0.0,0.0,0.0,0.0,0.0,0.0,0.0,0.0,0.0,0.0,0.0,0.0,0.0,0.0,0.0,0.0,0.0,0.0,0.0,0.0,0.0,0.0,0.0,0.0,0.0,0.0,0.0,0.0,0.0,0.0,0.0,0.0,0.0,0.0,0.0,0.0,0.0,0.0,0.0,0.0,0.0,0.0,0.0,0.0,0.0,0.0,0.0,0.0,0.0,0.0,0.0,0.0,0.0,0.0,0.0,0.0,0.0,0.0,0.0,0.0,0.0,0.0,0.0,0.0,0.0,0.0,0.0,0.0,0.0,0.0,0.0,0.0,0.0,0.0,0.0,0.0,0.0,0.0,0.0,0.0,0.0,0.0,0.0,0.0,0.0,0.0,0.0,0.0,0.0,0.0,0.0,0.0,0.0,0.0,0.0,0.0,0.0,0.0,0.0,0.0,0.0,0.0,0.0,0.0,0.0,0.0,0.0,0.0,0.0,0.0,0.0,0.0,0.0,0.0,0.0,0.0,0.0,0.0,0.0,0.0,0.0,0.0,0.0,0.0,0.0,0.0,0.0,0.0,0.0,0.0,0.0,0.0,0.0,0.0,0.0,0.0,0.0,0.0,0.0,0.0,0.0,0.0,0.0,0.0,0.0,0.0,0.0,0.0,0.0,0.0,0.0,0.0,0.0,0.0,0.0,0.0,0.0,0.0,0.0,0.0,0.0,0.0,0.0,0.0,0.0,0.0,0.0,0.0,0.0,0.0,0.0,0.0,0.0,0.0,0.0,0.0,0.0,0.0,0.0,0.0,0.0,0.0,0.0,0.0,0.0,0.0,0.0,0.0,0.0,0.0,0.0,0.0,0.0,0.0,0.0,0.0,0.0,0.0,0.0,0.0,0.0,0.0,0.0,0.0,0.0,0.0,0.0,0.0,0.0,0.0,0.0,0.0,0.0,0.0,0.0,0.0,0.0,0.0,0.0,0.0,0.0,0.0,0.0,0.0,0.0,0.0,0.0,0.0,0.0,0.0,0.0,0.0,0.0,0.0,0.0,0.0,0.0,0.0,0.0,0.0,0.0,0.0,0.0,0.0,0.0,0.0,0.0,0.0,0.0,0.0,0.0,0.0,0.0,0.0,0.0,0.0,0.0,0.0,0.0,0.0,0.0,0.0,0.0,0.0,0.0,0.0,0.0,0.0,0.0,0.0,0.0,0.0,0.0,0.0,0.0,0.0,0.0,0.0,0.0,0.0,0.0,0.0,0.0,0.0,0.0,0.0,0.0,0.0,0.0,0.0,0.0,0.0,0.0,0.0,0.0,0.0,0.0,0.0,0.0,0.0,0.0,0.0,0.0,0.0,0.0,0.0,0.0,0.0,0.0,0.0,0.0,0.0,0.0,0.0,0.0,0.0,0.0,0.0,0.0,0.0,0.0,0.0,0.0,0.0,0.0,0.0,0.0,0.0,0.0,0.0,0.0,0.0,0.0,0.0,0.0,0.0,0.0,0.0,0.0,0.0,0.0,0.0,0.0,0.0,0.0,0.0,0.0,0.0,0.0,0.0,0.0,0.0,0.0,0.0,0.0,0.0,0.0,0.0,0.0,0.0,0.0,0.0,0.0,0.0,0.0,0.0,0.0,0.0,0.0,0.0,0.0,0.0,0.0,0.0,0.0,0.0,0.0,0.0,0.0,0.0,0.0,0.0,0.0,0.0,0.0,0.0,0.0,0.0,0.0,0.0,0.0,0.0,0.0,0.0,0.0,0.0,0.0,0.0,0.0,0.0,0.0,0.0,0.0,0.0,0.0,0.0,0.0,0.0,0.0,0.0,0.0,0.0,0.0,0.0,0.0,0.0,0.0,0.0,0.0,0.0,0.0,0.0,0.0,0.0,0.0,0.0,0.0,0.0,0.0,0.0,0.0,0.0,0.0,0.0,1.3832,0.0,0.0,0.0,0.0,0.0,0.0,0.0,0.0,0.0,0.0,0.0,0.0,0.0,0.0,0.0,0.0,0.0,0.0,0.0,0.0,0.0,0.0,0.0,0.0,0.0,0.0,0.0,0.0,0.0,0.0,0.0,0.0,0.0,0.0,0.0,0.0,0.0,0.0,0.0,0.0,0.0,0.0,0.0,0.0,0.0,0.0,0.0,0.0,0.0,0.0,0.0,0.0,0.0,0.0,0.0,0.0,0.0,0.0,0.0,0.0,0.0,0.0,0.0,0.0,0.0,0.0,0.0,0.0,0.0,0.0,0.0,0.0,0.0,0.0,0.0,0.0,0.0,0.0,0.0,0.0,0.0,0.0,0.0,0.0,0.0,0.0,0.0,0.0,0.0,0.0,0.0,0.0,0.0,0.0,0.0,0.0,0.0,0.0,0.0,0.0,0.0,0.0,0.0,0.0,0.0,0.0,0.0,0.0,0.0,0.0,1.1302,1.2177,1.2662,1.3301,1.4076,0.0,0.0,0.0,0.0,0.0,0.0,0.0,0.0,0.0,0.0,0.0,0.0,0.0,0.0,0.0,0.0,0.0,0.0,0.0,0.0,0.0,0.0,0.0,0.0,0.0,0.0,0.0,0.0,0.0,0.0,0.0,0.0,0.0,0.0,0.0,0.0,0.0,0.0,0.0,0.0,0.0,0.0,0.0,0.0,0.0,0.0,0.0,0.0,0.0,0.0,0.0,0.0,0.0,0.0,0.0,0.0,0.0,0.0,0.0,0.0,0.0,0.0,0.0,0.0,0.0,0.0,0.0,0.0,0.0,0.0,0.0,0.0,0.0,0.0,0.0,0.0,0.0,0.0,0.0,0.0,0.0,0.0,0.0,0.0,0.0,0.0,0.0,0.0,0.0,0.0,0.0,0.0,0.0,0.0,0.0,0.0,0.0,0.0,0.0,0.0,0.0,0.0,0.0,0.0,0.0,0.0,0.0,0.0,0.0,0.0,0.0,0.0,1.3741,1.4186,1.4401,0.0,0.0,0.0,0.0,0.0,0.0,0.0,0.0,0.0,0.0,0.0,0.0,0.0,0.0,0.0,0.0,0.0,0.0,0.0,0.0,0.0,0.0,0.0,0.0,0.0,0.0,0.0,0.0,0.0,0.0,0.0,0.0,0.0,0.0,0.0,0.0,0.0,0.0,0.0,0.0,0.0,0.0,0.0,0.0,0.0,0.0,0.0,0.0,0.0,0.0,0.0,0.0,0.0,0.0,0.0,0.0,0.0,0.0,0.0,0.0,0.0,0.0,0.0,0.0,0.0,0.0,0.0,0.0,0.0,0.0,0.0,0.0,0.0,0.0,0.0,0.0,0.0,0.0,0.0,0.0,0.0,0.0,0.0,0.0,0.0,0.0,0.0,0.0,0.0,0.0,0.0,0.0,0.0,0.0,0.0,0.0,0.0,0.0,0.0,0.0,0.0,0.0,0.0,0.0,0.0,0.0,0.0,0.0,0.0,0.0,1.3008,1.3861,1.4029,0.0,1.5218,0.0,0.0,0.0,0.0,0.0,0.0,0.0,0.0,0.0,0.0,0.0,0.0,0.0,0.0,0.0,0.0,0.0,0.0,0.0,0.0,0.0,0.0,0.0,0.0,0.0,0.0,0.0,0.0,0.0,0.0,0.0,0.0,0.0,0.0,0.0,0.0,0.0,0.0,0.0,0.0,0.0,0.0,0.0,0.0,0.0,0.0,0.0,0.0,0.0,0.0,0.0,0.0,0.0,0.0,0.0,0.0,0.0,0.0,0.0,0.0,0.0,0.0,0.0,0.0,0.0,0.0,0.0,0.0,0.0,0.0,0.0,0.0,0.0,0.0,0.0,0.0,0.0,0.0,0.0,0.0,0.0,0.0,0.0,0.0,0.0,0.0,0.0,0.0,0.0,0.0,0.0,0.0,0.0,0.0,0.0,0.0,0.0,0.0,0.0,0.0,0.0,0.0,0.0,0.0,0.0,0.0,0.0,0.0,0.0,0.0,1.3878,1.4752,1.4831,1.5043,0.0,0.0,0.0,0.0,0.0,0.0,0.0,0.0,0.0,0.0,0.0,0.0,0.0,0.0,0.0,0.0,0.0,0.0,0.0,0.0,0.0,0.0,0.0,0.0,0.0,0.0,0.0,0.0,0.0,0.0,0.0,0.0,0.0,0.0,0.0,0.0,0.0,0.0,0.0,0.0,0.0,0.0,0.0,0.0,0.0,0.0,0.0,0.0,0.0,0.0,0.0,0.0,0.0,0.0,0.0,0.0,0.0,0.0,0.0,0.0,0.0,0.0,0.0,0.0,0.0,0.0,0.0,0.0,0.0,0.0,0.0,0.0,0.0,0.0,0.0,0.0,0.0,0.0,0.0,0.0,0.0,0.0,0.0,0.0,0.0,0.0,0.0,0.0,0.0,0.0,0.0,0.0,0.0,0.0,0.0,0.0,0.0,0.0,0.0,0.0,0.0,0.0,0.0,0.0,0.0,0.0,0.0,0.0,0.0,0.0,1.4227,1.4658,1.5261,1.5343,1.5373,1.5373,0.0,0.0,0.0,0.0,0.0,0.0,0.0,0.0,0.0,0.0,0.0,0.0,0.0,0.0,0.0,0.0,0.0,0.0,0.0,0.0,0.0,0.0,0.0,0.0,0.0,0.0,0.0,0.0,0.0,0.0,0.0,0.0,0.0,0.0,0.0,0.0,0.0,0.0,0.0,0.0,0.0,0.0,0.0,0.0,0.0,0.0,0.0,0.0,0.0,0.0,0.0,0.0,0.0,0.0,0.0,0.0,0.0,0.0,0.0,0.0,0.0,0.0,0.0,0.0,0.0,0.0,0.0,0.0,0.0,0.0,0.0,0.0,0.0,0.0,0.0,0.0,0.0,0.0,0.0,0.0,0.0,0.0,0.0,0.0,0.0,0.0,0.0,0.0,0.0,0.0,0.0,0.0,0.0,0.0,0.0,0.0,0.0,0.0,0.0,0.0,0.0,0.0,0.0,0.0,0.0,0.0,0.0,0.0,1.4027,1.4828,1.5263,1.5332,1.5303,1.5308,0.0,0.0,0.0,0.0,0.0,0.0,0.0,0.0,0.0,0.0,0.0,0.0,0.0,0.0,0.0,0.0,0.0,0.0,0.0,0.0,0.0,0.0,0.0,0.0,0.0,0.0,0.0,0.0,0.0,0.0,0.0,0.0,0.0,0.0,0.0,0.0,0.0,0.0,0.0,0.0,0.0,0.0,0.0,0.0,0.0,0.0,0.0,0.0,0.0,0.0,0.0,0.0,0.0,0.0,0.0,0.0,0.0,0.0,0.0,0.0,0.0,0.0,0.0,0.0,0.0,0.0,0.0,0.0,0.0,0.0,0.0,0.0,0.0,0.0,0.0,0.0,0.0,0.0,0.0,0.0,0.0,0.0,0.0,0.0,0.0,0.0,0.0,0.0,0.0,0.0,0.0,0.0,0.0,0.0,0.0,0.0,0.0,0.0,0.0,0.0,0.0,0.0,0.0,0.0,0.0,0.0,0.0,0.0,0.0,1.4866,1.5689,1.6387,1.6926,1.6953,1.6705,0.0,0.0,0.0,0.0,0.0,0.0,0.0,0.0,0.0,0.0,0.0,0.0,0.0,0.0,0.0,0.0,0.0,0.0,0.0,0.0,0.0,0.0,0.0,0.0,0.0,0.0,0.0,0.0,0.0,0.0,0.0,0.0,0.0,0.0,0.0,0.0,0.0,0.0,0.0,0.0,0.0,0.0,0.0,0.0,0.0,0.0,0.0,0.0,0.0,0.0,0.0,0.0,0.0,0.0,0.0,0.0,0.0,0.0,0.0,0.0,0.0,0.0,0.0,0.0,0.0,0.0,0.0,0.0,0.0,0.0,0.0,0.0,0.0,0.0,0.0,0.0,0.0,0.0,0.0,0.0,0.0,0.0,0.0,0.0,0.0,0.0,0.0,0.0,0.0,0.0,0.0,0.0,0.0,0.0,0.0,0.0,0.0,0.0,0.0,0.0,0.0,0.0,0.0,0.0,0.0,0.0,0.0,0.0,0.0,1.6163,0.0,1.7305,1.7874,1.7913,1.7624,0.0,0.0,0.0,0.0,0.0,0.0,0.0,0.0,0.0,0.0,0.0,0.0,0.0,0.0,0.0,0.0,0.0,0.0,0.0,0.0,0.0,0.0,0.0,0.0,0.0,0.0,0.0,0.0,0.0,0.0,0.0,0.0,0.0,0.0,0.0,0.0,0.0,0.0,0.0,0.0,0.0,0.0,0.0,0.0,0.0,0.0,0.0,0.0,0.0,0.0,0.0,0.0,0.0,0.0,0.0,0.0,0.0,0.0,0.0,0.0,0.0,0.0,0.0,0.0,0.0,0.0,0.0,0.0,0.0,0.0,0.0,0.0,0.0,0.0,0.0,0.0,0.0,0.0,0.0,0.0,0.0,0.0,0.0,0.0,0.0,0.0,0.0,0.0,0.0,0.0,0.0,0.0,0.0,0.0,0.0,0.0,0.0,0.0,0.0,0.0,0.0,0.0,0.0,0.0,0.0,0.0,0.0,0.0,1.7055,1.7837,1.7884,1.7952,1.7944,1.801,1.7946,0.0,0.0,0.0,0.0,0.0,0.0,0.0,0.0,0.0,0.0,0.0,0.0,0.0,0.0,0.0,0.0,0.0,0.0,0.0,0.0,0.0,0.0,0.0,0.0,0.0,0.0,0.0,0.0,0.0,0.0,0.0,0.0,0.0,0.0,0.0,0.0,0.0,0.0,0.0,0.0,0.0,0.0,0.0,0.0,0.0,0.0,0.0,0.0,0.0,0.0,0.0,0.0,0.0,0.0,0.0,0.0,0.0,0.0,0.0,0.0,0.0,0.0,0.0,0.0,0.0,0.0,0.0,0.0,0.0,0.0,0.0,0.0,0.0,0.0,0.0,0.0,0.0,0.0,0.0,0.0,0.0,0.0,0.0,0.0,0.0,0.0,0.0,0.0,0.0,0.0,0.0,0.0,0.0,0.0,0.0,0.0,0.0,0.0,0.0,0.0,0.0,0.0,0.0,0.0,0.0,0.0,0.0,0.0,0.0,1.88,1.8786,1.9103,1.9651,1.9688,1.9412,0.0,0.0,0.0,0.0,0.0,0.0,0.0,0.0,0.0,0.0,0.0,0.0,0.0,0.0,0.0,0.0,0.0,0.0,0.0,0.0,0.0,0.0,0.0,0.0,0.0,0.0,0.0,0.0,0.0,0.0,0.0,0.0,0.0,0.0,0.0,0.0,0.0,0.0,0.0,0.0,0.0,0.0,0.0,0.0,0.0,0.0,0.0,0.0,0.0,0.0,0.0,0.0,0.0,0.0,0.0,0.0,0.0,0.0,0.0,0.0,0.0,0.0,0.0,0.0,0.0,0.0,0.0,0.0,0.0,0.0,0.0,0.0,0.0,0.0,0.0,0.0,0.0,0.0,0.0,0.0,0.0,0.0,0.0,0.0,0.0,0.0,0.0,0.0,0.0,0.0,0.0,0.0,0.0,0.0,0.0,0.0,0.0,0.0,0.0,0.0,0.0,0.0,0.0,0.0,0.0,0.0,0.0,0.0,0.0,2.0148,1.9851,1.9964,2.049,2.0503,2.0245,1.969,0.0,0.0,0.0,0.0,0.0,0.0,0.0,0.0,0.0,0.0,0.0,0.0,0.0,0.0,0.0,0.0,0.0,0.0,0.0,0.0,0.0,0.0,0.0,0.0,0.0,0.0,0.0,0.0,0.0,0.0,0.0,0.0,0.0,0.0,0.0,0.0,0.0,0.0,0.0,0.0,0.0,0.0,0.0,0.0,0.0,0.0,0.0,0.0,0.0,0.0,0.0,0.0,0.0,0.0,0.0,0.0,0.0,0.0,0.0,0.0,0.0,0.0,0.0,0.0,0.0,0.0,0.0,0.0,0.0,0.0,0.0,0.0,0.0,0.0,0.0,0.0,0.0,0.0,0.0,0.0,0.0,0.0,0.0,0.0,0.0,0.0,0.0,0.0,0.0,0.0,0.0,0.0,0.0,0.0,0.0,0.0,0.0,0.0,0.0,0.0,0.0,0.0,0.0,0.0,0.0,0.0,0.0,0.0,2.1865,2.1075,2.0656,2.0674,2.0624,2.0573,0.0,0.0,0.0,0.0,0.0,0.0,0.0,0.0,0.0,0.0,0.0,0.0,0.0,0.0,0.0,0.0,0.0,0.0,0.0,0.0,0.0,0.0,0.0,0.0,0.0,0.0,0.0,0.0,0.0,0.0,0.0,0.0,0.0,0.0,0.0,0.0,0.0,0.0,0.0,0.0,0.0,0.0,0.0,0.0,0.0,0.0,0.0,0.0,0.0,0.0,0.0,0.0,0.0,0.0,0.0,0.0,0.0,0.0,0.0,0.0,0.0,0.0,0.0,0.0,0.0,0.0,0.0,0.0,0.0,0.0,0.0,0.0,0.0,0.0,0.0,0.0,0.0,0.0,0.0,0.0,0.0,0.0,0.0,0.0,0.0,0.0,0.0,0.0,0.0,0.0,0.0,0.0,0.0,0.0,0.0,0.0,0.0,0.0,0.0,0.0,0.0,0.0,0.0,0.0,0.0,0.0,0.0,0.0,0.0,2.2714,2.2518,2.2415,2.2403,2.1789,2.1462,0.0,0.0,0.0,0.0,0.0,0.0,0.0,0.0,0.0,0.0,0.0,0.0,0.0,0.0,0.0,0.0,0.0,0.0,0.0,0.0,0.0,0.0,0.0,0.0,0.0,0.0,0.0,0.0,0.0,0.0,0.0,0.0,0.0,0.0,0.0,0.0,0.0,0.0,0.0,0.0,0.0,0.0,0.0,0.0,0.0,0.0,0.0,0.0,0.0,0.0,0.0,0.0,0.0,0.0,0.0,0.0,0.0,0.0,0.0,0.0,0.0,0.0,0.0,0.0,0.0,0.0,0.0,0.0,0.0,0.0,0.0,0.0,0.0,0.0,0.0,0.0,0.0,0.0,0.0,0.0,0.0,0.0,0.0,0.0,0.0,0.0,0.0,0.0,0.0,0.0,0.0,0.0,0.0,0.0,0.0,0.0,0.0,0.0,0.0,0.0,0.0,0.0,0.0,0.0,0.0,0.0,0.0,0.0,2.3142,2.363,2.4002,2.4199,2.4193,2.2993,2.2178,0.0,0.0,0.0,0.0,0.0,0.0,0.0,0.0,0.0,0.0,0.0,0.0,0.0,0.0,0.0,0.0,0.0,0.0,0.0,0.0,0.0,0.0,0.0,0.0,0.0,0.0,0.0,0.0,0.0,0.0,0.0,0.0,0.0,0.0,0.0,0.0,0.0,0.0,0.0,0.0,0.0,0.0,0.0,0.0,0.0,0.0,0.0,0.0,0.0,0.0,0.0,0.0,0.0,0.0,0.0,0.0,0.0,0.0,0.0,0.0,0.0,0.0,0.0,0.0,0.0,0.0,0.0,0.0,0.0,0.0,0.0,0.0,0.0,0.0,0.0,0.0,0.0,0.0,0.0,0.0,0.0,0.0,0.0,0.0,0.0,0.0,0.0,0.0,0.0,0.0,0.0,0.0,0.0,0.0,0.0,0.0,0.0,0.0,0.0,0.0,0.0,0.0,0.0,0.0,0.0,0.0,0.0,0.0,2.4436,2.4538,2.5301,2.5698,2.5644,2.4097,2.2872,0.0,0.0,0.0,0.0,0.0,0.0,0.0,0.0,0.0,0.0,0.0,0.0,0.0,0.0,0.0,0.0,0.0,0.0,0.0,0.0,0.0,0.0,0.0,0.0,0.0,0.0,0.0,0.0,0.0,0.0,0.0,0.0,0.0,0.0,0.0,0.0,0.0,0.0,0.0,0.0,0.0,0.0,0.0,0.0,0.0,0.0,0.0,0.0,0.0,0.0,0.0,0.0,0.0,0.0,0.0,0.0,0.0,0.0,0.0,0.0,0.0,0.0,0.0,0.0,0.0,0.0,0.0,0.0,0.0,0.0,0.0,0.0,0.0,0.0,0.0,0.0,0.0,0.0,0.0,0.0,0.0,0.0,0.0,0.0,0.0,0.0,0.0,0.0,0.0,0.0,0.0,0.0,0.0,0.0,0.0,0.0,0.0,0.0,0.0,0.0,0.0,0.0,0.0,0.0,0.0,0.0,0.0,0.0,2.4747,2.541,2.5604,2.5694,2.5701,2.4687,2.4032,0.0,0.0,0.0,0.0,0.0,0.0,0.0,0.0,0.0,0.0,0.0,0.0,0.0,0.0,0.0,0.0,0.0,0.0,0.0,0.0,0.0,0.0,0.0,0.0,0.0,0.0,0.0,0.0,0.0,0.0,0.0,0.0,0.0,0.0,0.0,0.0,0.0,0.0,0.0,0.0,0.0,0.0,0.0,0.0,0.0,0.0,0.0,0.0,1.9726,0.0,0.0,0.0,0.0,0.0,0.0,0.0,0.0,0.0,0.0,0.0,0.0,0.0,0.0,0.0,0.0,0.0,0.0,0.0,0.0,0.0,0.0,0.0,0.0,0.0,0.0,0.0,0.0,0.0,0.0,0.0,0.0,0.0,0.0,0.0,0.0,0.0,0.0,0.0,0.0,0.0,0.0,0.0,0.0,0.0,0.0,0.0,0.0,0.0,0.0,0.0,0.0,0.0,0.0,0.0,0.0,0.0,0.0,0.0,2.5182,2.564,2.568,2.5698,2.5675,2.5253,2.4821,0.0,0.0,0.0,0.0,0.0,0.0,0.0,0.0,0.0,0.0,0.0,0.0,0.0,0.0,0.0,0.0,0.0,0.0,0.0,0.0,0.0,0.0,0.0,0.0,0.0,0.0,0.0,0.0,0.0,0.0,0.0,0.0,0.0,0.0,0.0,0.0,0.0,0.0,0.0,0.0,0.0,0.0,0.0,0.0,0.0,0.0,0.0,0.0,0.0,0.0,0.0,0.0,0.0,0.0,0.0,0.0,0.0,0.0,0.0,0.0,0.0,0.0,0.0,0.0,0.0,0.0,0.0,0.0,0.0,0.0,0.0,0.0,0.0,0.0,0.0,0.0,0.0,0.0,0.0,0.0,0.0,0.0,0.0,0.0,0.0,0.0,0.0,0.0,0.0,0.0,0.0,0.0,0.0,0.0,0.0,0.0,0.0,0.0,0.0,0.0,0.0,0.0,0.0,0.0,0.0,0.0,0.0,2.5213,2.5568,2.5598,2.565,2.5696,2.5704,2.5696,2.5352,2.4614,0.0,0.0,0.0,0.0,0.0,0.0,0.0,0.0,0.0,0.0,0.0,0.0,0.0,0.0,0.0,0.0,0.0,0.0,0.0,0.0,0.0,0.0,0.0,0.0,0.0,0.0,0.0,0.0,0.0,0.0,0.0,0.0,0.0,0.0,0.0,0.0,0.0,0.0,1.996,2.0079,0.0,0.0,0.0,0.0,0.0,0.0,0.0,0.0,2.0212,0.0,0.0,0.0,0.0,0.0,0.0,0.0,0.0,0.0,0.0,0.0,0.0,0.0,0.0,0.0,0.0,0.0,0.0,0.0,0.0,0.0,0.0,0.0,0.0,0.0,0.0,0.0,0.0,0.0,0.0,0.0,0.0,0.0,0.0,0.0,0.0,0.0,0.0,0.0,0.0,0.0,0.0,0.0,0.0,0.0,0.0,0.0,0.0,0.0,0.0,0.0,0.0,0.0,0.0,0.0,0.0,2.5277,2.5437,2.5544,2.561,2.561,2.5644,2.5693,2.5694,2.5644,2.5464,0.0,0.0,0.0,0.0,0.0,0.0,0.0,0.0,0.0,0.0,0.0,0.0,0.0,0.0,0.0,0.0,0.0,0.0,0.0,0.0,0.0,0.0,0.0,0.0,0.0,0.0,0.0,0.0,0.0,0.0,0.0,0.0,0.0,0.0,0.0,0.0,0.0,0.0,0.0,2.0214,2.0459,0.0,0.0,0.0,0.0,0.0,0.0,0.0,0.0,2.107,0.0,0.0,0.0,0.0,0.0,0.0,0.0,0.0,0.0,0.0,0.0,0.0,0.0,0.0,0.0,0.0,0.0,0.0,0.0,0.0,0.0,0.0,0.0,0.0,0.0,0.0,0.0,0.0,0.0,0.0,0.0,0.0,0.0,0.0,0.0,0.0,0.0,0.0,0.0,0.0,0.0,0.0,0.0,0.0,0.0,0.0,0.0,0.0,0.0,0.0,0.0,0.0,0.0,0.0,0.0,2.5421,2.5445,2.5476,2.556,2.5543,2.5588,2.5629,2.5677,2.5696,0.0,0.0,0.0,0.0,0.0,0.0,0.0,0.0,0.0,0.0,0.0,0.0,0.0,0.0,0.0,0.0,0.0,0.0,0.0,0.0,0.0,0.0,0.0,0.0,0.0,0.0,0.0,0.0,0.0,0.0,0.0,0.0,0.0,0.0,0.0,0.0,0.0,0.0,0.0,0.0,2.1004,2.1283,2.2115,0.0,0.0,0.0,0.0,0.0,0.0,2.2341,2.2062,0.0,0.0,0.0,0.0,0.0,0.0,0.0,0.0,0.0,0.0,0.0,0.0,0.0,0.0,0.0,0.0,0.0,0.0,0.0,0.0,0.0,0.0,0.0,0.0,0.0,0.0,0.0,0.0,0.0,0.0,0.0,0.0,0.0,0.0,0.0,0.0,0.0,0.0,0.0,0.0,0.0,0.0,0.0,0.0,0.0,0.0,0.0,0.0,0.0,0.0,0.0,0.0,0.0,0.0,0.0,2.5356,2.5374,2.5395,2.548,2.5482,2.5514,2.5612,2.5669,2.5679,0.0,0.0,0.0,0.0,0.0,0.0,0.0,0.0,0.0,0.0,0.0,0.0,0.0,0.0,0.0,0.0,0.0,0.0,0.0,0.0,0.0,0.0,0.0,0.0,0.0,0.0,0.0,0.0,0.0,0.0,0.0,0.0,0.0,0.0,0.0,0.0,0.0,0.0,0.0,0.0,0.0,2.2264,2.3056,2.3182,0.0,0.0,0.0,0.0,2.3346,2.3201,0.0,0.0,0.0,0.0,0.0,0.0,0.0,0.0,0.0,0.0,0.0,0.0,0.0,0.0,0.0,0.0,0.0,0.0,0.0,0.0,0.0,0.0,0.0,0.0,0.0,0.0,0.0,0.0,0.0,0.0,0.0,0.0,0.0,0.0,0.0,0.0,0.0,0.0,0.0,0.0,0.0,0.0,0.0,0.0,0.0,0.0,0.0,0.0,0.0,0.0,0.0,0.0,0.0,0.0,0.0,0.0,2.5222,2.5208,2.5288,2.5419,2.5422,2.5478,2.5587,2.5602,2.5642,0.0,0.0,0.0,0.0,0.0,0.0,0.0,0.0,0.0,0.0,0.0,0.0,0.0,0.0,0.0,0.0,0.0,0.0,0.0,0.0,0.0,0.0,0.0,0.0,0.0,0.0,0.0,0.0,0.0,0.0,0.0,0.0,0.0,0.0,0.0,0.0,0.0,0.0,0.0,0.0,0.0,2.3164,2.4025,2.4127,2.4421,0.0,0.0,2.5173,2.5192,2.4554,0.0,0.0,0.0,0.0,0.0,0.0,0.0,0.0,0.0,0.0,0.0,0.0,0.0,0.0,0.0,0.0,0.0,0.0,0.0,0.0,0.0,0.0,0.0,0.0,0.0,0.0,0.0,0.0,0.0,0.0,0.0,0.0,0.0,0.0,0.0,0.0,0.0,0.0,0.0,0.0,0.0,0.0,0.0,0.0,0.0,0.0,0.0,0.0,0.0,0.0,0.0,0.0,0.0,0.0,0.0,2.5006,2.5086,2.5091,2.5149,2.5284,2.5331,2.5397,2.5482,2.5549,2.5602,0.0,0.0,0.0,0.0,0.0,0.0,0.0,0.0,0.0,0.0,0.0,0.0,0.0,0.0,0.0,0.0,0.0,0.0,0.0,0.0,0.0,0.0,0.0,0.0,0.0,0.0,0.0,0.0,0.0,0.0,0.0,0.0,0.0,0.0,0.0,0.0,0.0,0.0,0.0,0.0,0.0,0.0,2.4961,2.5093,0.0,0.0,0.0,2.5544,2.5566,0.0,0.0,0.0,0.0,0.0,0.0,0.0,0.0,0.0,0.0,0.0,0.0,0.0,0.0,0.0,0.0,0.0,0.0,0.0,0.0,0.0,0.0,0.0,0.0,0.0,0.0,0.0,0.0,0.0,0.0,0.0,0.0,0.0,0.0,0.0,0.0,0.0,0.0,0.0,0.0,0.0,0.0,0.0,0.0,0.0,0.0,0.0,0.0,0.0,0.0,0.0,0.0,0.0,0.0,0.0,0.0,0.0,2.4922,2.4942,2.5013,2.5151,2.5217,2.5303,2.5374,2.5478,0.0,0.0,0.0,0.0,0.0,0.0,0.0,0.0,0.0,0.0,0.0,0.0,0.0,0.0,0.0,0.0,0.0,0.0,0.0,0.0,0.0,0.0,0.0,0.0,0.0,0.0,0.0,2.0429,0.0,0.0,0.0,0.0,0.0,0.0,0.0,0.0,0.0,0.0,0.0,0.0,0.0,0.0,2.4938,2.5585,2.5683,2.5664,0.0,0.0,2.5626,2.5634,2.5621,2.5605,0.0,0.0,0.0,0.0,0.0,0.0,0.0,0.0,0.0,0.0,0.0,0.0,0.0,0.0,0.0,0.0,0.0,0.0,0.0,0.0,0.0,0.0,0.0,0.0,0.0,0.0,0.0,0.0,0.0,0.0,0.0,0.0,0.0,0.0,0.0,0.0,0.0,0.0,0.0,0.0,0.0,0.0,0.0,0.0,0.0,0.0,0.0,0.0,0.0,0.0,0.0,0.0,0.0,0.0,2.4647,2.473,2.4798,2.4872,2.5012,2.5068,2.5176,2.5293,2.5393,2.5455,0.0,0.0,0.0,0.0,0.0,0.0,0.0,0.0,0.0,0.0,0.0,0.0,0.0,0.0,0.0,0.0,0.0,0.0,0.0,0.0,0.0,0.0,0.0,0.0,0.0,0.0,0.0,0.0,0.0,0.0,0.0,0.0,0.0,0.0,0.0,0.0,0.0,0.0,0.0,0.0,0.0,2.5533,2.5602,2.5611,2.5599,0.0,2.5657,2.5702,2.5703,2.5702,2.5696,2.5684,0.0,0.0,0.0,0.0,0.0,0.0,0.0,0.0,0.0,0.0,0.0,0.0,0.0,0.0,0.0,0.0,0.0,0.0,0.0,0.0,0.0,0.0,0.0,0.0,0.0,0.0,0.0,0.0,0.0,0.0,0.0,0.0,0.0,0.0,0.0,0.0,0.0,0.0,0.0,0.0,0.0,0.0,0.0,0.0,0.0,0.0,0.0,0.0,0.0,0.0,0.0,0.0,0.0,2.4434,2.451,2.4575,2.4715,2.4875,2.4947,2.505,2.519,2.5279,2.5389,0.0,0.0,0.0,0.0,0.0,0.0,0.0,0.0,0.0,0.0,0.0,0.0,0.0,0.0,0.0,0.0,0.0,0.0,0.0,0.0,0.0,0.0,0.0,0.0,0.0,0.0,0.0,0.0,2.1954,2.2013,2.2287,0.0,0.0,0.0,0.0,0.0,0.0,0.0,0.0,0.0,0.0,2.6216,2.6217,2.6708,0.0,0.0,2.713,2.7178,2.7176,2.6759,2.6419,2.6425,2.5996,0.0,0.0,0.0,0.0,0.0,0.0,0.0,0.0,0.0,0.0,0.0,0.0,0.0,0.0,0.0,0.0,0.0,0.0,0.0,0.0,0.0,0.0,0.0,0.0,0.0,0.0,0.0,0.0,0.0,0.0,0.0,0.0,0.0,0.0,0.0,0.0,0.0,0.0,0.0,0.0,0.0,0.0,0.0,0.0,0.0,0.0,0.0,0.0,0.0,0.0,0.0,0.0,2.488,2.4958,2.482,2.4814,2.4987,2.4844,2.4862,2.5006,2.5138,2.5249,0.0,0.0,0.0,0.0,0.0,0.0,0.0,0.0,0.0,0.0,0.0,0.0,0.0,0.0,0.0,0.0,0.0,0.0,0.0,0.0,0.0,0.0,0.0,0.0,0.0,0.0,0.0,0.0,2.2921,2.3019,2.2954,0.0,0.0,0.0,0.0,0.0,0.0,0.0,0.0,0.0,0.0,2.6876,2.6882,2.747,2.7917,2.7905,2.7966,2.8016,2.8034,2.7576,2.7236,2.723,0.0,0.0,0.0,0.0,0.0,0.0,0.0,0.0,0.0,0.0,0.0,0.0,0.0,0.0,0.0,0.0,0.0,0.0,0.0,0.0,0.0,0.0,0.0,0.0,0.0,0.0,0.0,2.7195,0.0,0.0,2.691,0.0,0.0,0.0,0.0,0.0,0.0,0.0,0.0,0.0,0.0,0.0,0.0,0.0,0.0,0.0,0.0,0.0,0.0,0.0,0.0,0.0,0.0,2.6084,2.6243,2.5599,2.5321,2.5372,2.4824,2.4631,2.4823,2.4954,2.5068,2.5212,0.0,0.0,0.0,0.0,0.0,0.0,0.0,0.0,0.0,0.0,0.0,0.0,0.0,0.0,0.0,0.0,0.0,0.0,0.0,0.0,0.0,0.0,0.0,0.0,0.0,0.0,2.2593,2.3166,2.3544,0.0,0.0,0.0,0.0,0.0,0.0,0.0,0.0,0.0,2.6179,2.6928,2.7494,2.7501,2.7625,2.7789,2.7751,2.7797,2.7856,2.7938,2.7972,2.7997,0.0,0.0,0.0,0.0,0.0,0.0,0.0,0.0,0.0,0.0,0.0,0.0,0.0,0.0,0.0,0.0,0.0,0.0,0.0,0.0,0.0,0.0,0.0,0.0,0.0,0.0,0.0,2.695,2.6897,0.0,0.0,0.0,0.0,0.0,0.0,0.0,0.0,0.0,0.0,0.0,2.8891,2.8877,0.0,0.0,0.0,0.0,0.0,0.0,0.0,0.0,0.0,0.0,0.0,0.0,2.5818,2.5948,2.5787,2.5762,2.5918,2.5892,2.5727,2.5358,2.5455,2.5385,2.513,0.0,0.0,0.0,0.0,0.0,0.0,0.0,0.0,0.0,0.0,0.0,0.0,0.0,0.0,0.0,0.0,0.0,0.0,0.0,0.0,0.0,0.0,0.0,0.0,0.0,2.3952,0.0,0.0,0.0,0.0,0.0,0.0,0.0,0.0,0.0,0.0,0.0,2.6012,2.6599,2.7411,2.798,2.8022,2.8582,2.9022,0.0,0.0,0.0,0.0,0.0,0.0,0.0,0.0,0.0,0.0,0.0,0.0,0.0,0.0,2.7289,2.7323,2.7337,2.7335,2.7315,0.0,0.0,0.0,0.0,0.0,0.0,0.0,0.0,0.0,0.0,0.0,0.0,0.0,0.0,2.8147,0.0,2.8017,0.0,0.0,0.0,0.0,0.0,0.0,0.0,0.0,2.9585,3.0106,3.024,3.024,3.0297,0.0,3.0076,2.9047,0.0,0.0,0.0,0.0,0.0,0.0,0.0,0.0,2.6282,2.6415,2.6206,2.6201,2.6399,2.637,2.6176,2.5831,2.6024,2.5893,2.5381,2.5438,2.5371,0.0,0.0,0.0,0.0,0.0,0.0,0.0,0.0,0.0,0.0,0.0,0.0,0.0,0.0,0.0,0.0,0.0,0.0,0.0,0.0,0.0,0.0,0.0,2.4344,0.0,0.0,0.0,0.0,0.0,0.0,0.0,0.0,0.0,2.5351,2.5869,2.644,2.7015,2.7863,2.8464,2.8525,0.0,0.0,0.0,0.0,0.0,0.0,0.0,2.9221,2.9347,2.8943,2.8618,2.8748,2.8809,2.8876,2.89,0.0,0.0,2.8257,2.8175,2.8197,2.8198,2.822,2.8261,2.8261,2.8262,2.8262,0.0,0.0,0.0,0.0,0.0,0.0,0.0,0.0,3.0902,3.0754,0.0,3.0557,0.0,0.0,0.0,0.0,2.9641,2.9676,0.0,0.0,2.9558,2.9814,3.0374,3.0425,3.0726,3.1259,3.0613,3.0238,3.0133,2.9885,0.0,0.0,0.0,0.0,0.0,0.0,2.7504,2.7607,2.693,2.6651,2.684,2.6277,2.6063,2.6227,2.6573,2.6442,2.585,2.5955,2.571,2.5023,2.5044,0.0,0.0,0.0,0.0,0.0,0.0,0.0,0.0,0.0,0.0,0.0,0.0,0.0,0.0,0.0,0.0,0.0,0.0,0.0,0.0,2.4016,0.0,0.0,0.0,0.0,0.0,0.0,0.0,0.0,0.0,0.0,2.5025,2.6343,2.7393,2.7429,0.0,0.0,0.0,0.0,2.9104,2.9177,2.9297,2.938,2.9457,2.9579,2.9693,2.9853,0.0,0.0,3.0157,3.0221,3.0248,3.0342,3.0301,2.9907,2.8457,2.832,2.8353,2.8343,2.8374,2.8304,2.8311,2.8455,2.8421,3.5241,0.0,0.0,0.0,0.0,3.2207,3.1896,3.1878,3.1798,3.1699,3.1598,3.1496,0.0,0.0,0.0,0.0,0.0,0.0,3.1199,3.1147,3.1705,3.2001,3.2085,3.198,3.1991,3.2082,3.1758,3.1659,3.1745,3.1658,3.065,2.8831,0.0,0.0,0.0,0.0,2.851,2.8562,2.8027,2.7775,2.7849,2.7417,2.7059,2.6762,2.6497,2.6307,2.6156,2.6327,2.6349,2.6197,2.6301,0.0,0.0,0.0,0.0,0.0,0.0,0.0,0.0,0.0,0.0,0.0,0.0,0.0,0.0,0.0,0.0,0.0,0.0,0.0,2.5141,2.5045,2.4981,0.0,0.0,0.0,0.0,0.0,0.0,0.0,0.0,0.0,2.5785,2.6419,2.717,0.0,0.0,2.8453,2.8551,2.8639,2.8682,2.8773,2.8849,0.0,2.9123,2.9222,2.9338,2.9504,2.9688,2.9799,2.9829,2.9977,3.0092,3.0103,3.0162,3.0056,2.9721,2.9793,2.988,2.9927,2.9932,2.9989,2.9994,2.9988,2.9961,3.7617,3.6504,3.5257,3.4716,3.4607,3.3965,3.3696,3.3661,3.3292,3.3059,3.2943,3.2559,3.2266,3.2066,3.1888,0.0,0.0,0.0,3.1935,3.1858,3.2325,3.2688,3.2866,3.2814,3.2868,3.3059,3.2695,3.2564,3.2618,3.2341,3.15,3.0103,0.0,0.0,2.868,2.8645,2.8684,2.8745,2.8502,2.8406,2.8494,2.8137,2.7682,2.7197,2.696,2.6733,2.6477,2.6672,2.6684,2.6423,2.6557,2.664,0.0,0.0,0.0,0.0,0.0,0.0,0.0,0.0,0.0,0.0,0.0,2.6005,2.625,0.0,0.0,0.0,2.5538,2.5381,2.5199,2.5157,0.0,0.0,0.0,0.0,0.0,0.0,0.0,2.5649,2.6046,2.6337,2.6337,2.6599,2.7055,2.7823,2.7936,2.8007,2.8142,0.0,2.8264,2.8388,2.8456,2.8565,2.8737,2.8838,2.8989,2.9206,2.9357,2.9495,2.9533,2.9662,2.9779,2.9826,2.9878,2.9934,3.0015,3.0209,3.0389,3.0506,3.0557,3.0586,3.0622,3.0626,3.0625,3.9529,3.8957,3.7291,3.6417,3.6129,3.5975,3.5931,3.5858,3.5162,3.4786,3.4555,3.3859,3.3383,3.3056,3.2767,0.0,3.2391,3.2367,3.2312,3.2152,3.2192,3.2531,3.316,3.3193,3.3516,3.4171,3.3483,3.3144,3.3064,3.2426,3.2006,3.1901,3.1068,2.9955,2.8636,2.8537,2.8546,2.8594,2.8643,2.8695,2.8763,2.8476,2.8041,2.7454,2.7682,2.7493,2.6778,2.6992,2.6821,2.6176,2.6261,2.6319,2.6329,0.0,0.0,0.0,0.0,0.0,0.0,0.0,0.0,0.0,0.0,0.0,0.0,0.0,0.0,2.5243,2.5001,0.0,2.4823,2.4762,0.0,0.0,0.0,2.4898,2.5593,2.5644,2.5915,2.659,0.0,0.0,2.6674,2.6775,2.6991,2.7373,2.7511,2.76,2.7745,2.7742,2.7836,2.8042,2.8091,2.8187,2.8331,2.8474,2.8651,2.888,2.9012,2.9115,2.9241,2.9322,2.9414,2.9532,2.9551,2.9617,2.9741,2.9828,2.9969,3.0248,3.0365,3.0398,3.0471,3.0487,3.0516,4.0756,4.0613,4.0192,3.894,3.7236,3.7076,3.6963,3.685,3.6586,3.6413,3.6339,3.5993,3.5661,3.5382,3.5065,3.4882,3.4829,3.4638,3.4546,3.4492,3.4476,3.4571,3.4757,3.4663,3.4687,3.4845,3.4589,3.4227,3.3846,3.3672,3.3066,3.2139,3.1899,3.1534,3.105,3.0536,3.0298,3.0304,2.9435,2.8824,2.8517,2.8575,2.83,2.7726,2.796,2.7794,2.7128,2.7253,2.7297,2.7243,2.7348,2.7414,2.7405,2.7482,0.0,0.0,0.0,0.0,0.0,0.0,0.0,0.0,0.0,2.6521,2.6918,0.0,2.6517,0.0,2.6133,2.5967,2.5916,2.5882,0.0,0.0,2.5796,2.5863,2.6029,2.6063,2.6129,2.6296,2.6313,2.633,2.64,2.6418,2.6521,2.6775,2.7071,2.7244,2.7322,2.7338,2.7415,2.7585,2.7677,2.7733,2.7918,2.8142,2.8331,2.8523,2.8657,2.8773,2.8899,2.8996,2.9127,2.9203,2.927,2.9334,2.9397,2.9504,2.9636,2.9786,2.9981,3.0215,3.0317,3.0354,3.0381,4.2108,4.1559,4.1559,4.0555,3.9007,3.8997,3.8772,3.8388,3.79,3.7508,3.7085,3.6405,3.5991,3.579,3.5542,3.5431,3.5315,3.5178,3.5137,3.5109,3.5008,3.4995,3.4966,3.4867,3.4781,3.4781,3.4765,3.4592,3.4335,3.4404,3.4081,3.3383,3.3101,3.2898,3.2739,3.1589,3.099,3.099,3.0161,2.948,2.9038,2.8854,2.8497,2.7911,2.81,2.806,2.7741,2.7879,2.8047,2.8129,2.8277,2.834,2.8372,2.8402,2.8402,0.0,0.0,0.0,0.0,0.0,0.0,0.0,0.0,0.0,0.0,0.0,2.7409,2.7208,2.7059,2.6963,2.6925,2.6942,2.6888,2.6866,2.6866,2.6866,2.6883,2.6866,2.6885,2.6909,2.6909,2.6947,2.704,2.7112,2.7186,2.7349,2.7565,2.7538,2.7076,2.7005,2.712,2.7264,2.7293,2.7402,2.763,2.7792,2.7965,2.8178,2.8268,2.8401,2.8605,2.8669,2.8785,2.8887,2.898,2.9041,2.9119,2.9267,2.9373,2.9474,2.9662,2.991,3.0116,3.018,3.0215,4.3256,4.2187,4.2136,4.1624,4.0951,4.1118,4.0704,3.9915,3.9113,3.829,3.7383,3.6334,3.5735,3.5515,3.5376,3.5248,3.5101,3.5072,3.5058,3.5043,3.4883,3.4795,3.4795,3.4647,3.4588,3.4603,3.4736,3.4749,3.4641,3.4831,3.4887,3.4763,3.4175,3.3911,3.3817,3.218,3.1253,3.1085,3.076,3.0318,2.9855,2.9356,2.8781,2.8099,2.8185,2.8292,2.8321,2.8493,2.8611,2.8671,2.8797,2.8889,2.8964,2.8964,2.8981,0.0,2.8981,0.0,0.0,0.0,0.0,0.0,0.0,0.0,0.0,2.8174,2.7961,2.7729,2.7639,2.7614,2.7614,2.7593,2.7593,2.7614,2.7593,2.763,2.763,2.763,2.7639,2.7729,2.7749,2.779,2.7902,2.8046,2.8142,2.816,2.8243,2.7981,2.7178,2.7097,2.725,2.7215,2.7194,2.7357,2.7423,2.7448,2.7587,2.7853,2.7925,2.8025,2.8318,2.8358,2.8419,2.8594,2.8694,2.8773,2.8858,2.9003,2.9178,2.9249,2.9384,2.958,2.9872,3.0014,3.0083,4.3476,4.3313,4.2729,4.2311,4.2073,4.212,4.1425,4.0199,3.9875,3.9186,3.8263,3.803,3.7457,3.6685,3.6488,3.6306,3.6199,3.6014,3.5891,3.5798,3.575,3.575,3.5735,3.5719,3.5688,3.5688,3.5719,3.543,3.4942,3.4958,3.4668,3.4089,3.3952,3.3906,3.386,0.0,0.0,0.0,3.0948,3.0646,3.0077,3.0128,2.9586,2.8388,2.8526,0.0,2.7943,2.7934,2.7994,2.8076,2.8096,0.0,0.0,0.0,0.0,0.0,0.0,0.0,0.0,0.0,0.0,0.0,2.9448,2.8983,2.8005,2.7652,2.7384,2.7185,2.7142,2.7137,2.7137,2.7137,2.7137,2.7121,2.7137,2.7158,2.728,2.7296,2.7343,2.7469,2.749,2.7557,2.7774,2.7786,2.7899,2.8109,2.807,2.8066,2.797,2.8081,2.8283,2.8411,2.7995,2.7589,2.7219,2.72,2.7277,2.7526,2.7602,2.7721,2.8014,2.8085,2.8154,2.8335,2.8432,2.851,2.8637,2.8773,2.8917,2.9051,2.9167,2.939,2.9745,2.9832,2.9883,4.4087,4.3444,4.3154,4.2751,0.0,4.2206,4.1757,4.1038,4.0608,3.9848,3.8873,3.8717,3.8372,3.7856,3.7327,3.7,3.6827,3.6395,3.6116,3.6005,3.5894,3.5863,3.5863,3.5797,3.5765,3.5765,3.5829,3.5696,3.5378,3.5426,3.529,3.4926,3.4607,3.444,3.4425,3.3788,3.2848,3.1689,3.1379,3.1124,3.0936,3.0761,3.018,2.9199,2.9234,0.0,0.0,0.0,0.0,0.0,0.0,0.0,0.0,2.8851,0.0,2.9034,2.8976,2.9056,2.9329,2.9248,2.9225,2.9339,2.9236,2.8935,2.8365,2.8158,2.8012,2.7893,2.7893,2.7893,2.7893,2.7893,2.7893,2.7893,2.7893,2.7931,2.7976,2.7998,2.8043,2.8145,2.8211,2.8299,2.8458,2.856,2.8672,2.8851,2.8893,2.8918,2.9087,2.8764,2.851,2.8628,2.8135,2.7654,2.747,2.7095,2.7006,2.723,2.7324,2.7463,2.7707,2.7824,2.7893,2.8035,2.8174,2.8313,2.8398,2.8562,2.8724,2.8846,2.8987,2.9178,2.9453,2.9579,2.97,4.4723,4.3565,4.3506,4.2975,4.2221,4.2011,4.1833,4.1753,0.0,0.0,0.0,3.9116,3.8891,3.8704,3.7955,3.75,3.7292,3.6726,3.6342,3.6107,3.5916,3.5776,3.5671,3.5539,3.5489,3.5504,3.5621,3.5671,3.5655,3.5846,3.5925,3.5864,3.5379,3.5031,3.4894,3.4319,3.3544,3.2642,3.2011,3.1659,3.1637,3.1135,3.059,2.9998,3.0007,2.9814,2.9415,2.9407,2.9454,2.9555,2.9571,2.9648,2.9822,2.9861,2.989,3.001,3.0026,2.9952,2.9786,2.974,2.9578,2.9186,2.9098,2.9005,2.8834,2.8779,2.87,2.8676,2.8652,2.8636,2.8652,2.8652,2.8652,2.8676,2.87,2.8684,2.8755,2.8771,2.8724,2.8865,2.8919,2.9098,2.9212,2.9287,2.9502,2.9661,2.9653,2.9853,2.9977,2.935,2.884,2.8798,2.8271,2.7742,2.7617,2.7147,2.6809,2.6989,2.7085,2.7214,2.7402,2.7539,2.7657,2.7789,2.7965,2.8109,2.8196,2.8367,2.8562,2.8675,2.8791,2.8982,2.9134,2.9307,2.9491,4.5062,4.4909,4.3725,4.305,4.2742,4.2153,4.1703,4.1374,4.128,4.0755,3.998,3.9751,3.9261,3.8508,3.8221,3.8025,3.7855,3.7615,3.7086,3.6457,3.6409,3.6061,3.5537,3.5504,3.5489,3.5489,3.5537,3.5522,3.5522,3.5554,3.5554,3.5554,3.5464,3.5151,3.4611,3.4461,3.4103,3.3532,3.3029,3.2233,3.1162,3.1136,3.0902,3.0371,3.0438,3.0534,3.0582,3.0526,3.0582,3.0592,3.0592,3.0667,3.08,3.0768,3.0833,3.0908,3.0867,3.0824,3.0775,3.0691,3.0491,3.0238,3.0186,2.9709,2.8592,2.8484,2.8348,2.8143,2.8174,2.8118,2.8103,2.8143,2.8201,2.8259,2.8299,2.8381,2.8573,2.8636,2.866,2.8755,2.8842,2.892,2.9075,2.9144,2.9275,2.948,2.9643,2.9792,2.9968,3.0084,2.9918,2.9483,2.8843,2.8181,2.7707,2.7025,2.6708,2.6742,2.6858,2.7024,2.7214,2.7276,2.7382,2.7639,2.776,2.7893,2.8112,2.8223,2.8371,2.8531,2.8637,2.8749,2.8964,2.9074,2.9171,4.5365,4.4951,4.4384,4.3631,4.2717,4.192,4.1421,4.1187,4.107,4.0847,4.0466,4.0266,3.9945,3.9536,3.8984,3.8662,3.8523,3.7975,3.744,3.7,3.6985,3.6821,3.6537,3.6193,3.6028,3.6013,3.5669,3.5489,3.5489,3.5489,3.5489,3.5489,3.5489,3.534,3.5055,3.5026,3.4728,3.4132,3.3291,3.2593,3.2088,3.1794,3.136,3.0743,3.0807,3.0676,3.0376,3.0376,3.0376,3.0376,3.036,3.0428,3.05,3.0526,3.0629,3.0801,3.069,3.0629,3.0685,3.0464,3.0324,3.0193,3.0193,2.9896,2.921,2.9225,2.9225,2.9082,2.8768,2.8566,2.8536,2.8207,2.8029,2.8079,2.8103,2.8168,2.825,2.8348,2.8389,2.8453,2.8612,2.8732,2.8795,2.8936,2.9052,2.9275,2.9518,2.977,2.9968,3.0103,3.0175,2.9968,2.9122,2.842,2.8013,2.7118,2.6604,2.6623,2.6742,2.6859,2.7006,2.7103,2.7277,2.74,2.7567,2.7763,2.7922,2.8081,2.8237,2.8345,2.851,2.865,2.8779,2.89,2.9089,4.5635,4.4954,4.4922,4.4126,4.28,4.1823,4.1372,4.1218,4.091,4.073,4.0696,4.0558,4.0489,4.0443,3.9715,3.9329,3.9115,3.8435,3.7931,3.7644,3.7629,3.7554,3.7375,3.6896,3.6686,3.6611,3.6028,3.5729,3.5714,3.5594,3.5489,3.5489,3.5489,3.5489,3.5489,3.5489,3.5235,3.4698,3.3667,3.3095,3.3107,3.2458,3.1881,3.1425,3.1243,3.0952,3.0479,3.0448,3.0448,3.0448,3.0463,3.046,3.054,3.0525,3.0632,3.0859,3.0764,3.0711,3.0742,3.0556,3.0448,3.041,3.041,3.034,3.022,3.0259,3.0204,2.9902,2.9403,2.913,2.9085,2.8707,2.8299,2.8188,2.8182,2.8147,2.8035,2.8088,2.8162,2.8162,2.8356,2.8525,2.8573,2.8724,2.8897,2.9137,2.9412,2.972,2.9902,2.9951,3.0103,3.0023,2.9349,2.8622,2.8434,2.7426,2.6683,2.6587,2.6606,2.6725,2.6859,2.7022,2.7166,2.7228,2.7461,2.7642,2.7716,2.794,2.8144,2.8209,2.8353,2.8528,2.863,2.881,2.9044,4.576,4.5602,4.5001,4.4204,4.3254,4.2217,4.1763,4.1651,4.0905,4.0524,4.057,4.0489,4.0505,4.0455,4.008,3.9859,3.9839,3.9439,3.8886,3.8347,3.8302,3.7988,3.7509,3.736,3.733,3.7255,3.6701,3.6402,3.6357,3.5818,3.5504,3.5489,3.5489,3.5489,3.5489,3.5489,3.5474,3.54,3.4698,3.4039,3.3471,3.2796,3.2466,3.2553,3.2009,3.1749,3.1741,3.1814,3.1799,3.1814,3.1784,3.1784,3.1784,3.1784,3.1812,3.1825,3.1825,3.1842,3.1812,3.1814,3.1713,3.1632,3.1571,3.1471,3.1314,3.1315,3.0849,2.9978,2.9619,2.957,2.9544,2.9424,2.9147,2.8755,2.8721,2.8545,2.8182,2.802,2.8005,2.802,2.8253,2.8259,2.842,2.8549,2.8763,2.9068,2.9321,2.9563,2.9726,2.988,2.9973,2.9962,2.9538,2.9015,2.8489,2.7821,2.701,2.6498,2.6486,2.6623,2.6725,2.6875,2.7056,2.7166,2.7338,2.7539,2.7674,2.7824,2.7971,2.8158,2.8237,2.8331,2.8536,2.8749,2.8975,4.5807,4.5776,4.5491,4.4775,4.3798,4.2812,4.2355,4.2232,4.1914,4.154,4.1135,4.1034,4.0749,4.0381,4.0101,3.9925,3.9818,3.9517,3.9275,3.9005,3.9005,3.8841,3.8586,3.8167,3.7988,3.7943,3.7345,3.703,3.6926,3.6387,3.5878,3.5534,3.5489,3.5489,3.5489,3.5489,3.5489,3.5489,3.522,3.4951,3.4607,3.3634,3.3126,3.3111,3.2541,3.224,3.2238,3.1923,3.1697,3.1712,3.1712,3.1697,3.1712,3.1712,3.1769,3.1855,3.1898,3.1841,3.1712,3.1697,3.1683,3.1626,3.1641,3.1568,3.1511,3.1496,3.1256,3.0821,3.0372,3.0118,3.0103,2.9819,2.9514,2.9327,2.9282,2.9188,2.8974,2.9007,2.8927,2.8571,2.8657,2.8639,2.8391,2.8477,2.874,2.9045,2.9229,2.9366,2.9653,2.9786,2.988,2.9941,2.982,2.9309,2.8484,2.7687,2.7033,2.6544,2.6365,2.6452,2.6623,2.6725,2.6875,2.7055,2.723,2.7402,2.7554,2.7689,2.7836,2.8042,2.8223,2.8345,2.851,2.8637,2.8798,4.5807,4.5771,4.5682,4.5196,4.4387,4.3417,4.2957,4.2833,4.2606,4.2237,4.1771,4.1377,4.0903,4.0426,4.0087,3.9839,3.9681,3.9481,3.9388,3.9388,3.9388,3.9388,3.9313,3.8916,3.8676,3.8571,3.8003,3.7584,3.7389,3.6985,3.6417,3.5863,3.5774,3.5684,3.5504,3.5489,3.5489,3.5489,3.5489,3.5489,3.5355,3.4547,3.3963,3.3724,3.3125,3.2781,3.2766,3.2288,3.1944,3.1795,3.178,3.1675,3.1525,3.1496,3.1568,3.1698,3.1727,3.1655,3.1496,3.1496,3.1496,3.1496,3.1496,3.1496,3.1496,3.1496,3.1496,3.1421,3.1062,3.0791,3.0731,3.0372,3.0073,2.9894,2.9861,2.9816,2.9606,2.9702,2.9531,2.9121,2.9213,2.9134,2.8654,2.8737,2.8996,2.9014,2.9068,2.919,2.9518,2.963,2.972,2.988,2.9908,2.9512,2.8591,2.7934,2.722,2.6685,2.6475,2.6365,2.6521,2.6624,2.6775,2.7006,2.7119,2.7277,2.7478,2.763,2.7763,2.7968,2.8136,2.83,2.8401,2.8497,2.8587,4.5807,4.5735,4.5389,4.5188,4.5073,4.4004,4.3562,4.3494,4.2726,4.2331,4.2193,4.1441,4.091,4.0674,4.0079,3.9732,3.9696,3.9481,3.9388,3.9388,3.9388,3.9388,3.9388,3.9379,3.9313,3.923,3.8661,3.8048,3.7479,3.7389,3.706,3.6477,3.6447,3.6118,3.5639,3.5564,3.5519,3.5519,3.5489,3.5489,3.5489,3.5415,3.5026,3.4474,3.3799,3.3455,3.344,3.341,3.311,3.2482,3.2437,3.2168,3.163,3.154,3.1555,3.154,3.1525,3.1496,3.1496,3.1496,3.1496,3.1496,3.1496,3.1496,3.1496,3.1496,3.1496,3.1496,3.1436,3.1391,3.1376,3.1241,3.1031,3.0537,3.0462,3.0223,2.9741,2.9816,2.9636,2.9589,2.9636,2.9561,2.92,2.94,2.9279,2.9068,2.8998,2.9176,2.9321,2.9434,2.9563,2.9675,2.9716,2.9556,2.909,2.8509,2.7846,2.717,2.6637,2.6363,2.6469,2.6623,2.6775,2.6941,2.707,2.723,2.7434,2.7602,2.7751,2.7911,2.8067,2.8219,2.8313,2.8367,2.8476,4.575,4.5589,4.5331,4.5129,4.4971,4.4461,4.4271,4.4187,4.3783,4.3356,4.2899,4.2326,4.1821,4.1294,4.0521,3.9922,3.9496,3.9424,3.9388,3.9388,3.9388,3.9388,3.9388,3.9388,3.9388,3.9343,3.9134,3.8706,3.8093,3.8033,3.7719,3.718,3.7075,3.6746,3.6237,3.6133,3.5938,3.5549,3.5489,3.5489,3.5489,3.5489,3.537,3.5115,3.4472,3.4144,3.4128,3.3724,3.338,3.3155,3.314,3.3036,3.2796,3.2348,3.2138,3.2079,3.1735,3.1496,3.1496,3.1496,3.1496,3.1496,3.1496,3.1525,3.1496,3.1496,3.1496,3.1496,3.1496,3.1496,3.1496,3.1496,3.1421,3.1197,3.1122,3.1017,3.0868,3.0821,3.0687,3.028,2.9988,2.9796,2.9866,2.994,2.9816,2.9443,2.9458,2.9422,2.9232,2.9298,2.946,2.9563,2.9653,2.9661,2.9539,2.9018,2.8379,2.7501,2.6891,2.662,2.6579,2.6536,2.6657,2.6825,2.6973,2.7168,2.7357,2.7587,2.7721,2.7885,2.806,2.8154,2.8237,2.8291,2.8371,4.5625,4.5478,4.5204,4.5002,4.4858,4.4685,4.4572,4.4511,4.4281,4.3922,4.3411,4.2863,4.2348,4.1844,4.11,4.0502,4.0008,3.9612,3.9388,3.9388,3.9388,3.9388,3.9388,3.9388,3.9388,3.9388,3.9388,3.9155,3.8781,3.8706,3.8362,3.7764,3.7719,3.7404,3.6866,3.6596,3.6237,3.5863,3.5624,3.5489,3.5489,3.5489,3.5489,3.5429,3.504,3.4801,3.4786,3.4382,3.4008,3.3858,3.3814,3.3724,3.3484,3.3066,3.2826,3.2781,3.2392,3.2138,3.2138,3.2138,3.2138,3.2123,3.1929,3.1824,3.1809,3.163,3.1511,3.1496,3.1496,3.1496,3.1496,3.1496,3.1496,3.1496,3.1496,3.1496,3.1496,3.1481,3.1271,3.0911,3.0664,3.051,3.0369,3.0472,3.0293,2.9898,2.9987,2.9855,2.9501,2.9469,2.9458,2.946,2.9518,2.9592,2.9607,2.9318,2.8965,2.8179,2.7276,2.6941,2.6688,2.6597,2.6554,2.6691,2.6875,2.7071,2.7277,2.7524,2.7707,2.7859,2.7989,2.8085,2.8168,2.8237,2.8304,4.5478,4.5405,4.5061,4.4911,4.4836,4.4685,4.4511,4.432,4.4104,4.3903,4.3596,4.2842,4.2485,4.2276,4.1722,4.1369,4.1115,4.0142,3.9649,3.9597,3.9589,3.9553,3.9604,3.9523,3.9433,3.9388,3.9388,3.9373,3.9298,3.9269,3.899,3.8482,3.8392,3.8063,3.7419,3.6941,3.6582,3.6372,3.5923,3.5579,3.5504,3.5534,3.5489,3.5489,3.5444,3.5415,3.5444,3.5415,3.507,3.4562,3.4503,3.4204,3.3754,3.3544,3.3484,3.3484,3.344,3.344,3.341,3.335,3.329,3.323,3.2841,3.2497,3.2452,3.2019,3.1705,3.175,3.1705,3.1615,3.16,3.16,3.157,3.1496,3.1496,3.1496,3.1496,3.1496,3.1496,3.145,3.1459,3.1409,3.0983,3.0992,3.0949,3.0586,3.0541,3.0447,3.0031,2.9933,2.9761,2.9483,2.9398,2.9441,2.957,2.9655,2.9329,2.8895,2.7994,2.7363,2.7046,2.6875,2.6686,2.6758,2.6859,2.7055,2.7341,2.7554,2.7644,2.7798,2.7929,2.8028,2.8099,2.8168,2.8223,4.5204,4.5077,4.4949,4.4836,4.4685,4.4625,4.4549,4.4473,4.4166,4.3934,4.3786,4.3292,4.303,4.288,4.2357,4.2096,4.2006,4.1197,4.0771,4.0771,4.0756,4.0726,4.0651,4.0292,3.9858,3.9448,3.9388,3.9388,3.9388,3.9388,3.929,3.914,3.908,3.8736,3.8108,3.7883,3.7614,3.709,3.6507,3.6178,3.6133,3.5729,3.5504,3.5489,3.5489,3.5489,3.5489,3.5489,3.54,3.516,3.519,3.5085,3.4846,3.4427,3.4188,3.4113,3.3724,3.3499,3.3499,3.3529,3.3559,3.3484,3.329,3.3215,3.3185,3.2976,3.2826,3.2856,3.2871,3.2736,3.2288,3.2183,3.2004,3.157,3.1496,3.1496,3.1496,3.1496,3.1496,3.1496,3.1553,3.1506,3.1528,3.1619,3.1482,3.1083,3.1131,3.1078,3.055,3.0241,2.9988,2.9809,2.9595,2.9353,2.9457,2.9592,2.9516,2.9259,2.8608,2.7922,2.7564,2.7085,2.6883,2.6775,2.6893,2.7071,2.7373,2.7524,2.7632,2.7736,2.7839,2.7943,2.8028,2.8099,2.815,4.5002,4.4874,4.4814,4.4723,4.461,4.461,4.4587,4.4473,4.4243,4.405,4.3949,4.3699,4.3527,4.3491,4.313,4.3003,4.2943,4.249,4.2248,4.2113,4.1557,4.1437,4.1392,4.098,4.0427,3.9903,3.9783,3.9612,3.9388,3.9388,3.9388,3.9388,3.9388,3.9215,3.8766,3.8512,3.8153,3.7719,3.715,3.6716,3.6462,3.6073,3.5759,3.5549,3.5489,3.5489,3.5489,3.5489,3.5489,3.5489,3.5489,3.5489,3.5459,3.5085,3.4861,3.4818,3.4517,3.4277,3.4247,3.4322,3.4247,3.4218,3.4008,3.3858,3.3814,3.3694,3.3499,3.3499,3.3469,3.3335,3.2961,3.2886,3.2662,3.2303,3.178,3.154,3.1496,3.1496,3.1496,3.1496,3.1496,3.1568,3.1683,3.1868,3.1858,3.1601,3.1728,3.1696,3.113,3.0828,3.0538,3.0223,2.9872,2.9626,2.9369,2.9457,2.9614,2.9447,2.9166,2.867,2.8237,2.7505,2.7076,2.6842,2.6859,2.7105,2.7357,2.7448,2.7554,2.7677,2.778,2.7885,2.7971,2.8056,2.8109,4.4874,4.4874,4.4685,4.461,4.461,4.461,4.4511,4.4343,4.4281,4.4166,4.405,4.3934,4.3949,4.4003,4.3858,4.3843,4.3918,4.3672,4.3503,4.3208,4.24,4.1768,4.1572,4.1474,4.1085,4.0546,4.0367,4.0053,3.9568,3.9433,3.9388,3.9388,3.9388,3.9409,3.923,3.8751,3.8512,3.8392,3.7808,3.721,3.6731,3.6477,3.6193,3.5624,3.5534,3.5489,3.5489,3.5489,3.5489,3.5489,3.5489,3.5489,3.5489,3.5489,3.5429,3.5415,3.5474,3.537,3.5429,3.528,3.531,3.5235,3.4816,3.4563,3.4503,3.4143,3.3873,3.3858,3.3799,3.3694,3.3635,3.3544,3.3484,3.332,3.2333,3.1735,3.157,3.1555,3.1496,3.1496,3.1496,3.1496,3.1553,3.1826,3.1938,3.2033,3.2167,3.2021,3.18,3.1477,3.1144,3.0763,3.0369,2.9967,2.9711,2.9466,2.9602,2.9613,2.9426,2.9174,2.8755,2.8048,2.7374,2.7127,2.708,2.7258,2.7294,2.7404,2.7509,2.7644,2.7751,2.7859,2.7932,2.8014,2.8067,4.4685,4.4685,4.461,4.461,4.461,4.461,4.4572,4.4496,4.4358,4.4281,4.4205,4.4065,4.4026,4.4003,4.4042,4.4003,4.3988,4.3949,4.391,4.3879,4.3568,4.2846,4.2269,4.2126,4.1796,4.116,4.0711,4.0307,4.0113,3.9694,3.9433,3.9388,3.9403,3.9388,3.9328,3.9215,3.9155,3.9065,3.8467,3.8063,3.7749,3.6941,3.6417,3.6222,3.5789,3.5534,3.5504,3.5489,3.5489,3.5489,3.5489,3.5489,3.5489,3.5489,3.5489,3.5489,3.5489,3.5489,3.5489,3.5489,3.5489,3.5489,3.531,3.525,3.5235,3.507,3.4966,3.4981,3.4966,3.4775,3.4463,3.4296,3.4054,3.3499,3.2811,3.2302,3.2168,3.1795,3.1496,3.1496,3.1525,3.1613,3.1712,3.1883,3.2053,3.2135,3.2272,3.2407,3.2218,3.2022,3.168,3.136,3.0975,3.0465,3.0045,2.9699,2.9573,2.9697,2.9626,2.9539,2.9137,2.8638,2.8067,2.765,2.7776,2.7945,2.7575,2.7405,2.7511,2.7717,2.7704,2.7795,2.7871,2.7957,2.8028,4.461,4.461,4.461,4.461,4.461,4.461,4.461,4.4572,4.4473,4.4435,4.4396,4.432,4.4243,4.4258,4.4258,4.4243,4.4243,4.4166,4.4127,4.4089,4.3918,4.3497,4.3031,4.2839,4.2432,4.1856,4.1437,4.1085,4.0756,4.0142,3.9822,3.9783,3.9523,3.9403,3.9388,3.9388,3.9388,3.9313,3.9005,3.8706,3.8332,3.7689,3.718,3.6851,3.6267,3.5833,3.5564,3.5489,3.5489,3.5489,3.5489,3.5489,3.5489,3.5489,3.5489,3.5489,3.5489,3.5489,3.5489,3.5489,3.5489,3.5489,3.5489,3.5489,3.5474,3.5489,3.5489,3.5527,3.5587,3.5458,3.5314,3.5162,3.4933,3.4539,3.3801,3.3291,3.2961,3.2617,3.2243,3.2107,3.2016,3.1954,3.193,3.1996,3.2094,3.2219,3.2358,3.2496,3.2513,3.2376,3.2191,3.1882,3.1688,3.1323,3.0784,3.0407,3.0083,3.0106,2.987,2.9777,2.9477,2.9105,2.8786,2.8422,2.8523,2.8425,2.801,2.7706,2.7774,2.7882,2.7764,2.7786,2.7915,2.8253,2.8269,4.4625,4.461,4.4625,4.461,4.461,4.461,4.461,4.461,4.4572,4.461,4.4625,4.461,4.461,4.4663,4.4678,4.4678,4.4663,4.4473,4.4358,4.4243,4.4011,4.3732,4.3624,4.3304,4.294,4.2515,4.2455,4.2006,4.1429,4.0816,4.0531,4.0367,3.9888,3.9589,3.9553,3.9463,3.9388,3.9388,3.9328,3.908,3.8661,3.8302,3.7928,3.7479,3.6731,3.6178,3.5789,3.5579,3.5489,3.5489,3.5489,3.5489,3.5489,3.5489,3.5489,3.5489,3.5489,3.5489,3.5489,3.5489,3.5489,3.5489,3.5489,3.5489,3.5489,3.5489,3.5554,3.5671,3.572,3.5721,3.5866,3.5928,3.5788,3.5481,3.5056,3.4511,3.3921,3.3651,3.3351,3.2915,3.2839,3.261,3.233,3.2242,3.2354,3.2358,3.2496,3.2676,3.28,3.2817,3.2652,3.2399,3.2295,3.2217,3.1678,3.1134,3.0842,3.0635,3.0233,3.002,2.9772,2.9492,2.9329,2.9208,2.9161,2.8918,2.8511,2.8317,2.832,2.8392,2.8539,2.8303,2.8137,2.8632,2.8847,4.4836,4.4836,4.4685,4.461,4.461,4.461,4.461,4.461,4.461,4.4685,4.4799,4.4852,4.4927,4.5055,4.5017,4.5055,4.5017,4.4814,4.4701,4.4496,4.432,4.4089,4.3871,4.3542,4.3254,4.3,4.262,4.2336,4.2051,4.1549,4.1175,4.1085,4.0546,4.0172,4.0113,3.9657,3.9388,3.9388,3.9388,3.9313,3.911,3.8676,3.8347,3.8048,3.7135,3.6507,3.6207,3.5774,3.5519,3.5489,3.5489,3.5489,3.5489,3.5489,3.5489,3.5489,3.5489,3.5489,3.5489,3.5489,3.5489,3.5489,3.5489,3.5489,3.5489,3.5489,3.5572,3.5671,3.572,3.5831,3.6005,3.6116,3.6053,3.5913,3.5775,3.5576,3.5302,3.4422,3.3834,3.3668,3.3668,3.3514,3.3035,3.3071,3.2985,3.2665,3.2707,3.287,3.3032,3.315,3.3066,3.2871,3.2844,3.2766,3.2512,3.1967,3.1531,3.1124,3.0706,3.0461,3.0197,2.998,2.9872,2.9803,2.9722,2.9437,2.9143,2.9179,2.9225,2.9287,2.9295,2.9183,2.9123,2.9394,2.9387,4.5039,4.5002,4.4814,4.4739,4.4723,4.4648,4.461,4.4625,4.4685,4.4799,4.4911,4.5002,4.5108,4.5182,4.522,4.5167,4.5167,4.4986,4.4836,4.4685,4.4458,4.4243,4.4089,4.3699,4.3423,4.3269,4.3,4.2821,4.2641,4.2207,4.1886,4.1826,4.1227,4.0666,4.0442,4.0053,3.9687,3.9433,3.9388,3.9388,3.9298,3.9095,3.8646,3.8422,3.7738,3.7165,3.6477,3.6178,3.5833,3.5594,3.5504,3.5489,3.5489,3.5489,3.5489,3.5489,3.5489,3.5489,3.5489,3.5489,3.5489,3.5489,3.5489,3.5489,3.5489,3.5489,3.5604,3.5782,3.5863,3.5941,3.621,3.6289,3.6258,3.6116,3.6085,3.6053,3.5883,3.5273,3.4713,3.4577,3.4516,3.4315,3.4095,3.401,3.3738,3.346,3.3396,3.3529,3.315,3.3309,3.3424,3.3348,3.3342,3.3292,3.3214,3.2789,3.2207,3.1725,3.1202,3.1052,3.0914,3.0683,3.0468,3.0366,3.0258,3.0197,2.9994,3.0074,2.9954,2.9724,2.97,2.9955,3.0055,2.9945,2.992,4.5257,4.522,4.5039,4.4949,4.4911,4.4776,4.4685,4.4723,4.4874,4.5002,4.5039,4.5167,4.5294,4.5294,4.5315,4.5294,4.5204,4.5114,4.5002,4.4836,4.4587,4.4396,4.4205,4.3949,4.3714,4.3409,4.3254,4.3215,4.312,4.2821,4.2506,4.2425,4.1886,4.1407,4.0876,4.0561,4.0262,3.9768,3.9679,3.9508,3.9418,3.9313,3.9065,3.8721,3.8317,3.7838,3.706,3.6596,3.6222,3.5699,3.5564,3.5504,3.5489,3.5489,3.5489,3.5489,3.5489,3.5489,3.5489,3.5489,3.5489,3.5489,3.5489,3.5489,3.5489,3.5522,3.5636,3.5846,3.5973,3.6148,3.646,3.646,3.6383,3.6305,3.6242,3.6179,3.61,3.6068,3.5735,3.5446,3.5385,3.5261,3.5055,3.4862,3.4556,3.4279,3.4242,3.4081,3.3715,3.3466,3.3623,3.3694,3.3687,3.3758,3.3695,3.3266,3.2731,3.246,3.188,3.1697,3.1578,3.1241,3.0996,3.0868,3.0763,3.0668,3.0689,3.074,3.0524,3.0161,3.033,3.0832,3.0759,3.0476,3.0558,4.5604,4.5442,4.5241,4.5145,4.5129,4.5092,4.5055,4.5108,4.5129,4.5257,4.5405,4.5442,4.5552,4.5662,4.5698,4.5625,4.5478,4.5352,4.5188,4.4986,4.4761,4.461,4.4358,4.422,4.405,4.3817,4.3566,4.3369,4.3329,4.3185,4.306,4.2985,4.2521,4.2111,4.1841,4.1504,4.0891,4.0352,4.0232,4.0023,3.9582,3.9403,3.9364,3.908,3.8736,3.8302,3.7883,3.7045,3.6432,3.6282,3.5804,3.5564,3.5489,3.5489,3.5489,3.5489,3.5489,3.5489,3.5489,3.5489,3.5489,3.5489,3.5489,3.5489,3.5489,3.5489,3.5619,3.5767,3.6053,3.6242,3.646,3.6492,3.6492,3.646,3.6429,3.6429,3.6398,3.6367,3.6274,3.6029,3.6138,3.6244,3.5946,3.5718,3.5519,3.5222,3.5015,3.4768,3.4378,3.4078,3.3893,3.3947,3.3958,3.4077,3.4144,3.3632,3.3144,3.3148,3.2758,3.2416,3.2215,3.1786,3.1523,3.1458,3.1187,3.0943,3.1036,3.1213,3.1298,3.1063,3.1394,3.1759,3.1549,3.1354,3.1649,4.588,4.5787,4.5478,4.5368,4.5331,4.522,4.522,4.522,4.5294,4.5405,4.5499,4.5625,4.5771,4.588,4.5844,4.5735,4.5662,4.5515,4.5389,4.5188,4.4986,4.4836,4.4587,4.4435,4.4281,4.4089,4.3801,4.3581,4.3518,4.3369,4.3344,4.323,4.2985,4.2716,4.2425,4.2066,4.1557,4.107,4.0876,4.0576,3.9918,3.9649,3.9418,3.9269,3.9095,3.8766,3.8302,3.7943,3.7135,3.6582,3.6193,3.5848,3.5624,3.5489,3.5489,3.5489,3.5489,3.5489,3.5489,3.5489,3.5489,3.5489,3.5489,3.5489,3.5489,3.5522,3.5619,3.5846,3.6006,3.6274,3.6492,3.6492,3.6492,3.6492,3.6492,3.6492,3.6523,3.6569,3.6523,3.6461,3.6492,3.6568,3.6716,3.655,3.6474,3.6207,3.5884,3.5495,3.5096,3.4774,3.4439,3.4187,3.4198,3.425,3.4349,3.4072,3.3728,3.3716,3.359,3.3248,3.2954,3.2575,3.2315,3.2179,3.1826,3.1328,3.1193,3.1306,3.1618,3.191,3.1897,3.1952,3.2179,3.2336,3.2388,4.6168,4.606,4.5735,4.5589,4.5515,4.5405,4.5331,4.5368,4.5478,4.5552,4.5589,4.5735,4.588,4.6024,4.5952,4.5844,4.5844,4.5662,4.5552,4.5426,4.5188,4.5039,4.4852,4.4663,4.4435,4.4435,4.4166,4.3949,4.3769,4.3557,4.3423,4.3354,4.3354,4.3105,4.2656,4.2581,4.2171,4.1811,4.1602,4.122,4.0457,3.9918,3.9493,3.9403,3.9388,3.914,3.8721,3.8362,3.7838,3.715,3.6626,3.6237,3.5789,3.5579,3.5504,3.5489,3.5489,3.5489,3.5489,3.5489,3.5489,3.5489,3.5489,3.5489,3.5489,3.5522,3.5619,3.5957,3.61,3.6242,3.646,3.6492,3.6492,3.6492,3.6492,3.6523,3.6585,3.6631,3.6739,3.6739,3.6785,3.6875,3.7037,3.7184,3.7076,3.7039,3.6714,3.6369,3.6002,3.5561,3.5172,3.4628,3.4446,3.4423,3.4472,3.4521,3.4348,3.4385,3.4228,3.3978,3.3694,3.3392,3.3167,3.2879,3.2271,3.1796,3.1601,3.1414,3.1612,3.1818,3.1964,3.2108,3.2214,3.2284,3.2319,4.6369,4.6096,4.6024,4.5932,4.5771,4.5714,4.5735,4.5698,4.5735,4.5771,4.575,4.5807,4.5916,4.606,4.6096,4.606,4.5988,4.5844,4.5698,4.5552,4.5442,4.5294,4.5167,4.4949,4.4814,4.4739,4.4435,4.4166,4.4026,4.3793,4.3636,4.3596,4.3409,4.3215,4.312,4.306,4.2865,4.2396,4.2261,4.1692,4.0681,4.0337,3.9948,3.9582,3.9388,3.9328,3.9125,3.8766,3.8272,3.8033,3.7045,3.6537,3.6282,3.5789,3.5564,3.5489,3.5489,3.5489,3.5489,3.5489,3.5489,3.5489,3.5489,3.5489,3.5489,3.5537,3.5651,3.5957,3.6037,3.6163,3.6398,3.6492,3.6492,3.6523,3.6523,3.6569,3.6662,3.6785,3.6892,3.6983,3.7043,3.7194,3.734,3.7565,3.7709,3.7671,3.7552,3.7173,3.6744,3.6222,3.5908,3.5405,3.4904,3.4791,3.4775,3.4815,3.4748,3.4844,3.4719,3.4561,3.4336,3.4021,3.3879,3.3477,3.2868,3.2481,3.2412,3.2201,3.1846,3.1967,3.2408,3.2366,3.2196,3.2267,3.2581,4.6545,4.6223,4.6148,4.6004,4.5807,4.5807,4.5807,4.5807,4.5807,4.5807,4.5807,4.5807,4.5932,4.6112,4.6294,4.6314,4.6223,4.606,4.5932,4.5771,4.5625,4.5478,4.5368,4.5167,4.5092,4.5017,4.4814,4.4648,4.4396,4.4104,4.3847,4.3675,4.3596,4.3423,4.3344,4.3305,4.314,4.2865,4.2536,4.2126,4.1512,4.0831,4.0277,3.9963,3.9619,3.9469,3.9298,3.92,3.8736,3.8452,3.7734,3.7195,3.6656,3.6193,3.5938,3.5489,3.5489,3.5489,3.5489,3.5489,3.5489,3.5489,3.5489,3.5489,3.5489,3.5504,3.5587,3.5799,3.5941,3.61,3.6289,3.6429,3.6492,3.6523,3.6538,3.6631,3.6754,3.6922,3.7074,3.7164,3.7284,3.7433,3.7551,3.7714,3.7876,3.7966,3.7883,3.7676,3.7138,3.6535,3.6354,3.6212,3.57,3.5242,3.5218,3.5208,3.4919,3.4925,3.4875,3.4759,3.4783,3.4601,3.4369,3.42,3.3788,3.3478,3.3307,3.2996,3.2627,3.2774,3.3001,3.2983,3.2976,3.3419,3.3701,4.6615,4.6314,4.6187,4.6008,4.5807,4.5807,4.5807,4.5807,4.5807,4.5807,4.5844,4.59,4.6008,4.6187,4.6439,4.6509,4.6369,4.6223,4.6168,4.6024,4.588,4.5735,4.5625,4.5478,4.5331,4.5257,4.5039,4.4927,4.4739,4.4473,4.4143,4.3832,4.3729,4.3596,4.3423,4.3329,4.3245,4.3185,4.2865,4.2575,4.2186,4.1452,4.0816,4.0352,3.9963,3.9589,3.9418,3.9358,3.9065,3.8796,3.8392,3.7823,3.7225,3.6656,3.6267,3.5848,3.5684,3.5489,3.5489,3.5489,3.5489,3.5489,3.5489,3.5489,3.5489,3.5489,3.5539,3.572,3.5831,3.599,3.6179,3.6336,3.6429,3.6476,3.6569,3.6662,3.68,3.6968,3.715,3.73,3.7419,3.7596,3.7714,3.7847,3.7992,3.8193,3.8193,3.81,3.7614,3.6983,3.6848,3.679,3.6355,3.594,3.5893,3.5761,3.5381,3.5065,3.5032,3.4916,3.4883,3.4866,3.4733,3.4598,3.4446,3.4389,3.4125,3.3775,3.3452,3.3386,3.3396,3.3744,3.3988,3.4405,3.4696,4.6509,4.6298,4.6298,4.608,4.5807,4.5807,4.5807,4.5807,4.5807,4.5807,4.5844,4.61,4.6227,4.6333,4.6509,4.6633,4.6547,4.6353,4.6298,4.6262,4.6227,4.6116,4.5988,4.5807,4.5662,4.5515,4.5278,4.5077,4.4949,4.4836,4.4549,4.4297,4.3949,4.3754,4.3596,4.3478,4.3329,4.3329,4.3125,4.2895,4.262,4.2111,4.1632,4.0696,4.0352,4.0068,3.9448,3.9403,3.9343,3.9185,3.8796,3.8407,3.7868,3.721,3.6731,3.6402,3.6028,3.5863,3.5818,3.5609,3.5489,3.5489,3.5489,3.5489,3.5489,3.5489,3.5572,3.5671,3.5735,3.5879,3.607,3.6227,3.6352,3.6476,3.6569,3.6708,3.6831,3.6953,3.7165,3.7375,3.7524,3.7642,3.773,3.7817,3.8049,3.825,3.8307,3.823,3.8116,3.763,3.7486,3.7329,3.694,3.6685,3.6724,3.6447,3.5935,3.5554,3.5379,3.5131,3.4899,3.4916,3.4899,3.4873,3.4698,3.4851,3.4855,3.4365,3.3963,3.3739,3.384,3.438,3.4668,3.4938,3.5283,4.6439,4.6187,4.6187,4.6024,4.5807,4.5807,4.5807,4.5807,4.5807,4.5807,4.5807,4.6152,4.6298,4.6369,4.6633,4.6772,4.6772,4.6547,4.6493,4.6439,4.6369,4.6278,4.6152,4.6096,4.5932,4.5807,4.5552,4.5368,4.5262,4.5061,4.4874,4.4572,4.4258,4.4026,4.3871,4.369,4.3503,4.3344,4.3344,4.315,4.3,4.256,4.2156,4.1737,4.0606,4.0367,4.0008,3.9619,3.9484,3.9313,3.911,3.8811,3.8482,3.7838,3.7434,3.7105,3.6701,3.6582,3.6387,3.5998,3.5504,3.5489,3.5489,3.5519,3.5564,3.5519,3.5504,3.5572,3.5671,3.5831,3.599,3.6148,3.6274,3.6445,3.6616,3.6739,3.6862,3.6984,3.7135,3.7375,3.751,3.7599,3.7671,3.7759,3.8049,3.8307,3.8335,3.8375,3.8246,3.8181,3.7978,3.7822,3.7487,3.7402,3.742,3.6964,3.6455,3.6158,3.5819,3.5495,3.5214,3.4916,3.4916,3.4899,3.4923,3.4937,3.4865,3.4704,3.4533,3.4506,3.4768,3.5266,3.5446,3.5503,3.5779,4.6314,4.6112,4.604,4.5916,4.5807,4.5807,4.5807,4.5807,4.5807,4.5844,4.5916,4.6171,4.6333,4.6474,4.6703,4.6876,4.6858,4.6738,4.6687,4.6633,4.658,4.6439,4.6369,4.6314,4.6223,4.6116,4.588,4.5662,4.5536,4.5225,4.5039,4.4836,4.461,4.4358,4.4104,4.3886,4.3675,4.3542,4.3503,4.3488,4.3437,4.3097,4.2608,4.2413,4.1497,4.0801,4.0427,3.9963,3.9664,3.9478,3.9284,3.914,3.8811,3.8467,3.8153,3.7823,3.7524,3.7434,3.715,3.6716,3.6073,3.6237,3.5923,3.5878,3.5774,3.5654,3.5504,3.5489,3.5604,3.5718,3.5925,3.6022,3.6179,3.6352,3.6523,3.6677,3.6831,3.6953,3.7165,3.7345,3.7435,3.7569,3.7671,3.7759,3.7963,3.8221,3.8335,3.8391,3.8359,3.8311,3.8322,3.8184,3.8056,3.8047,3.8078,3.7604,3.7164,3.7017,3.6613,3.6001,3.5661,3.5363,3.5015,3.4899,3.4923,3.4947,3.4918,3.4845,3.5096,3.5408,3.5576,3.5637,3.5874,3.5935,3.6238,4.6112,4.606,4.5896,4.5807,4.5787,4.5807,4.5807,4.5807,4.5807,4.5916,4.606,4.6243,4.6439,4.6598,4.6807,4.6876,4.6911,4.6892,4.6876,4.6842,4.6772,4.6738,4.6633,4.6528,4.6439,4.6314,4.6116,4.5916,4.5771,4.5552,4.5278,4.5039,4.4889,4.4648,4.432,4.4089,4.3988,4.3972,4.3934,4.391,4.384,4.3633,4.3253,4.2814,4.2331,4.1595,4.095,4.0367,4.0023,3.9694,3.9469,3.9349,3.9245,3.8751,3.8482,3.8392,3.7853,3.7584,3.7449,3.7389,3.7315,3.7075,3.6626,3.6477,3.6342,3.6028,3.5669,3.5804,3.5687,3.5664,3.5748,3.5863,3.6053,3.6258,3.6414,3.6585,3.677,3.6892,3.7044,3.7195,3.7391,3.7539,3.7671,3.7772,3.7934,3.8135,3.8307,3.8363,3.8335,3.8379,3.8363,3.8327,3.8237,3.8344,3.8313,3.8175,3.7903,3.7774,3.7413,3.6812,3.6324,3.6059,3.5661,3.5181,3.5304,3.5652,3.5385,3.5067,3.5345,3.5547,3.5656,3.5771,3.6062,3.6314,3.6482,4.5916,4.5698,4.5625,4.5589,4.5625,4.575,4.5807,4.5823,4.5916,4.6024,4.6132,4.6369,4.6528,4.6668,4.6807,4.6911,4.6911,4.6911,4.6911,4.6911,4.6911,4.6892,4.6772,4.6668,4.6547,4.6458,4.6314,4.6168,4.5988,4.5771,4.5589,4.5352,4.5092,4.4776,4.4435,4.4205,4.4127,4.4026,4.3988,4.3988,4.3988,4.3934,4.3726,4.3322,4.2898,4.2286,4.1587,4.0988,4.0322,3.9948,3.9723,3.9388,3.9388,3.9035,3.9035,3.905,3.8701,3.8751,3.8751,3.8676,3.8257,3.7749,3.7285,3.7105,3.703,3.6926,3.6596,3.6267,3.6163,3.6067,3.5823,3.5797,3.5941,3.6148,3.6336,3.6507,3.6631,3.6723,3.6862,3.6999,3.7197,3.7255,3.7389,3.7553,3.77,3.7788,3.7934,3.8049,3.8078,3.8209,3.8266,3.8278,3.8298,3.8444,3.8469,3.8341,3.8208,3.8025,3.7866,3.7573,3.7168,3.6804,3.6555,3.6208,3.629,3.6357,3.61,3.5858,3.5568,3.5605,3.5897,3.5943,3.6036,3.6251,3.644,4.5132,4.4881,4.4865,4.4865,4.4996,4.5457,4.5735,4.5823,4.6024,4.6148,4.6223,4.6458,4.6668,4.6738,4.6842,4.6911,4.6911,4.6911,4.6911,4.6911,4.6911,4.6892,4.6842,4.6772,4.6722,4.6633,4.6493,4.6349,4.6259,4.6024,4.5735,4.5478,4.5309,4.5017,4.4716,4.4641,4.4564,4.445,4.4396,4.432,4.4243,4.4143,4.4065,4.3758,4.34,4.2829,4.2286,4.152,4.0621,4.0322,3.9873,3.9418,3.9388,3.9388,3.9388,3.9388,3.9388,3.9343,3.9298,3.9298,3.8841,3.8297,3.7943,3.7764,3.7659,3.7434,3.7165,3.6911,3.6836,3.6633,3.6343,3.6225,3.6146,3.6386,3.6317,3.649,3.6491,3.6585,3.6693,3.6847,3.6984,3.7044,3.7119,3.7255,3.7421,3.748,3.7539,3.7671,3.7817,3.7963,3.8094,3.8135,3.8221,3.8335,3.8476,3.8535,3.8406,3.8274,3.821,3.8117,3.7864,3.7483,3.7367,3.7201,3.6986,3.6854,3.687,3.6696,3.6404,3.6315,3.6464,3.6366,3.6085,3.6247,3.6542,4.3703,4.3687,4.3703,4.3715,4.3905,4.4917,4.5536,4.5792,4.604,4.6187,4.6333,4.6528,4.6703,4.6876,4.6911,4.6911,4.6911,4.6911,4.6911,4.6911,4.6911,4.6911,4.6911,4.6876,4.6842,4.6807,4.6703,4.658,4.6545,4.6187,4.5844,4.5589,4.5457,4.5257,4.5182,4.5129,4.5017,4.4852,4.4776,4.4685,4.4587,4.4419,4.432,4.4105,4.3821,4.3385,4.2762,4.1986,4.1183,4.0546,3.9903,3.9589,3.9439,3.9388,3.9388,3.9388,3.9388,3.9388,3.9388,3.9388,3.9358,3.8955,3.8706,3.8512,3.8317,3.8063,3.7793,3.7569,3.7449,3.7375,3.7259,3.6985,3.6709,3.6617,3.6415,3.6421,3.6411,3.6475,3.6585,3.6708,3.6877,3.6969,3.6999,3.706,3.7151,3.7211,3.7271,3.7391,3.7553,3.7743,3.786,3.7963,3.8049,3.8193,3.8335,3.8504,3.8618,3.8499,3.8673,3.8632,3.8381,3.8195,3.8096,3.788,3.745,3.7301,3.7384,3.7368,3.7211,3.7161,3.7014,3.7013,3.6791,3.6642,3.6891,4.3602,4.3516,4.3481,4.3481,4.3579,4.4183,4.5017,4.5961,4.6187,4.6333,4.6528,4.6703,4.6858,4.6892,4.6911,4.6911,4.6911,4.6911,4.6911,4.6911,4.6911,4.6911,4.6911,4.6911,4.6911,4.6876,4.6807,4.6738,4.6563,4.6259,4.6112,4.5916,4.5714,4.5625,4.5589,4.5625,4.5389,4.5204,4.5114,4.4964,4.4836,4.4723,4.4534,4.432,4.4166,4.3775,4.3262,4.2627,4.1851,4.1108,4.0442,4.0008,3.9388,3.9388,3.9388,3.9388,3.9388,3.9388,3.9388,3.9388,3.9388,3.9388,3.9149,3.92,3.9065,3.8826,3.8461,3.8272,3.8093,3.8033,3.7793,3.7503,3.7331,3.7225,3.6965,3.6745,3.6691,3.6651,3.6719,3.6614,3.6739,3.6708,3.6739,3.6847,3.6908,3.6969,3.703,3.7121,3.7285,3.7478,3.761,3.7714,3.7934,3.8094,3.8266,3.842,3.8616,3.8761,3.8871,3.899,3.8954,3.8818,3.8818,3.8636,3.8304,3.8063,3.7947,3.7932,3.7934,3.7578,3.7399,3.7486,3.7517,3.7416,3.7551,4.2884,4.2716,4.2682,4.2858,4.3213,4.3466,4.4304,4.54,4.5824,4.6092,4.6263,4.6678,4.6911,4.6927,4.6911,4.6911,4.6911,4.6911,4.6911,4.6911,4.6911,4.6911,4.6911,4.6911,4.6911,4.6911,4.6876,4.6807,4.6633,4.6439,4.6294,4.6076,4.5968,4.5896,4.5823,4.5735,4.5662,4.5478,4.5331,4.5167,4.5002,4.4911,4.4685,4.4473,4.4358,4.4089,4.3756,4.3104,4.2318,4.149,4.0756,4.0113,3.9523,3.9388,3.9388,3.9388,3.9388,3.9388,3.9388,3.9388,3.9388,3.9388,3.9388,3.9358,3.9358,3.9194,3.9014,3.8871,3.8796,3.8661,3.8317,3.8003,3.7967,3.7966,3.7583,3.7198,3.7071,3.6973,3.6797,3.6589,3.6518,3.6413,3.6445,3.66,3.6616,3.66,3.6631,3.6723,3.6968,3.7194,3.7344,3.7449,3.773,3.7979,3.8151,3.8335,3.8516,3.8711,3.8832,3.8969,3.9191,3.9265,3.91,3.9133,3.9183,3.8874,3.8526,3.8636,3.8605,3.8295,3.8245,3.8576,3.8581,3.8218,3.8528,4.1833,4.1718,4.1621,4.2164,4.2773,4.2887,4.3436,4.436,4.5037,4.5474,4.5653,4.6403,4.6749,4.67,4.6813,4.6911,4.6911,4.6911,4.6911,4.6911,4.6911,4.6911,4.6911,4.6911,4.6911,4.6911,4.6876,4.6876,4.6842,4.6633,4.6385,4.6148,4.6076,4.6004,4.5823,4.5807,4.5735,4.5698,4.5515,4.5315,4.5039,4.4911,4.4799,4.4572,4.4435,4.4228,4.3874,4.3242,4.2416,4.1618,4.0898,4.0299,3.9664,3.9388,3.9388,3.9388,3.9388,3.9388,3.9388,3.9388,3.9388,3.9388,3.9388,3.9388,3.9388,3.9388,3.9239,3.9194,3.9125,3.911,3.8841,3.8646,3.8562,3.8402,3.8112,3.7816,3.7658,3.7488,3.724,3.7066,3.6919,3.6802,3.6514,3.664,3.655,3.6365,3.6305,3.643,3.6616,3.6906,3.7134,3.727,3.7508,3.7817,3.7992,3.8193,3.8432,3.8611,3.875,3.8985,3.9245,3.9299,3.9315,3.9315,3.9315,3.9315,3.9149,3.91,3.9129,3.9239,3.9353,3.9784,3.967,3.9157,3.9434,4.2013,4.1964,4.198,4.2124,4.2285,4.2462,4.2671,4.2993,4.3783,4.4479,4.5062,4.5694,4.6067,4.6099,4.6601,4.6813,4.6846,4.6878,4.6911,4.6911,4.6911,4.6911,4.6911,4.6911,4.6911,4.6911,4.6911,4.6911,4.6842,4.6703,4.6493,4.6243,4.6152,4.6004,4.5823,4.5807,4.5807,4.5735,4.5589,4.5368,4.5114,4.5039,4.498,4.4701,4.4496,4.4381,4.4167,4.4014,4.3243,4.2508,4.1769,4.074,3.9514,3.9454,3.9388,3.9388,3.9424,3.9388,3.9388,3.9388,3.9388,3.9388,3.9388,3.9388,3.9388,3.9388,3.9388,3.9388,3.9388,3.9388,3.9343,3.9179,3.9065,3.8861,3.8637,3.8447,3.8237,3.7981,3.7741,3.7597,3.7452,3.7152,3.6804,3.6609,3.6476,3.6342,3.6256,3.6305,3.6399,3.6646,3.6983,3.715,3.7344,3.7581,3.7801,3.8033,3.8319,3.86,3.8777,3.9013,3.9272,3.9299,3.9315,3.9315,3.9315,3.9315,3.9299,3.9265,3.9382,3.9625,3.9807,3.9986,4.0288,3.997,4.0364,4.2174,4.2109,4.2077,4.2142,4.2254,4.2349,4.2476,4.2715,4.3134,4.3555,4.4075,4.4853,4.5354,4.5451,4.6083,4.6423,4.6504,4.6763,4.6878,4.6911,4.6911,4.6911,4.6911,4.6979,4.703,4.703,4.703,4.6979,4.6911,4.6687,4.6493,4.6298,4.6152,4.6004,4.5844,4.5807,4.5719,4.5662,4.5552,4.5352,4.5129,4.5039,4.4942,4.4685,4.4572,4.4458,4.4396,4.4251,4.3731,4.2789,4.1881,4.1178,4.0209,3.9784,3.9583,3.9532,3.946,3.9388,3.9388,3.9388,3.9388,3.9388,3.9388,3.9388,3.9388,3.9388,3.9388,3.9388,3.9388,3.9388,3.9388,3.9269,3.9254,3.914,3.9065,3.8931,3.8712,3.8417,3.8217,3.8056,3.779,3.7353,3.7098,3.7067,3.6878,3.6604,3.6476,3.6346,3.6427,3.6506,3.6816,3.7029,3.724,3.7508,3.7847,3.802,3.8205,3.846,3.875,3.9013,3.9218,3.9272,3.9315,3.9315,3.9315,3.9315,3.9299,3.9325,3.9441,3.9651,3.9807,3.9961,4.0288,4.0631,4.0825,4.2076,4.2029,4.2061,4.2237,4.2445,4.2508,4.2665,4.2899,4.2947,4.2963,4.3144,4.4123,4.4545,4.4868,4.5354,4.5613,4.5937,4.6358,4.6651,4.6894,4.6911,4.6945,4.703,4.7115,4.7183,4.7183,4.7183,4.708,4.6961,4.6738,4.6493,4.6298,4.6152,4.5988,4.5844,4.5771,4.5662,4.5552,4.5405,4.5188,4.5024,4.4874,4.4761,4.4685,4.4572,4.4511,4.4396,4.4228,4.3861,4.316,4.2196,4.1431,4.0849,4.0302,3.9934,3.9787,3.9568,3.9532,3.946,3.9409,3.9424,3.9388,3.9388,3.9388,3.9388,3.9388,3.9388,3.9388,3.9388,3.9388,3.9388,3.9388,3.9388,3.9388,3.9358,3.9328,3.9095,3.8856,3.8691,3.8532,3.8202,3.7768,3.7588,3.7539,3.7342,3.7026,3.6796,3.6658,3.659,3.672,3.6909,3.7017,3.7105,3.7435,3.7817,3.7992,3.8091,3.846,3.8766,3.8985,3.9191,3.9245,3.9315,3.9315,3.9315,3.9299,3.9369,3.9422,3.9563,3.9703,3.9884,4.0062,4.0362,4.068,4.0901,4.1302,4.1698,4.179,4.2207,4.2741,4.2881,4.3021,4.3035,4.3052,4.3052,4.315,4.3233,4.3582,4.3962,4.4658,4.5111,4.5516,4.5953,4.6455,4.6795,4.6929,4.7014,4.7098,4.7251,4.7301,4.7335,4.7335,4.7183,4.703,4.6772,4.6477,4.6298,4.6168,4.5988,4.5807,4.5698,4.5552,4.5405,4.5204,4.5002,4.4949,4.4836,4.4761,4.4685,4.4572,4.4572,4.4549,4.4534,4.4358,4.3884,4.3107,4.2134,4.1474,4.0967,4.0612,4.0298,4.0085,3.9947,3.9956,3.9727,3.9691,3.9595,3.9544,3.9388,3.9388,3.9388,3.9388,3.9388,3.9388,3.9388,3.9388,3.9388,3.9388,3.9388,3.9373,3.9373,3.9275,3.923,3.9155,3.9095,3.899,3.8586,3.8227,3.8123,3.7913,3.7661,3.7492,3.7313,3.6995,3.7006,3.7045,3.708,3.7123,3.7405,3.7772,3.7876,3.8033,3.8403,3.8738,3.8958,3.9164,3.9272,3.9315,3.9315,3.9325,3.9325,3.9405,3.9501,3.9616,3.9781,3.9961,4.0188,4.0461,4.0728,4.0965]}]]